[[{"header":{"parameterUnit":"m.s-1","parameterCategory":1,"la1":30.6,"la2":29.2853,"lo1":-89.7004,"lo2":-87.6739,"dy":0.0162,"dx":0.0183,"nx":112,"ny":82,"refTime":"2023-03-24T06:00:00:Z","depth":0,"parameterNumber":2,"parameterNumberName":"U-component_of_WINDS"},"data":[0.0,0.0,0.0,0.0,0.0,0.0,0.0,0.0,0.0,0.0,0.0,0.0,0.0,0.0,0.0,0.0,0.0,0.0,0.0,0.0,0.0,0.0,0.0,0.0,0.0,0.0,0.0,0.0,0.0,0.0,0.0,0.0,0.0,0.0,0.0,0.0,0.0,0.0,0.0,0.0,0.0,0.0,0.0,0.0,0.0,0.0,0.0,0.0,0.0,0.0,0.0,0.0,0.0,0.0,0.0,0.0,0.0,0.0,0.0,0.0,0.0,0.0,0.0,0.0,0.0,0.0,0.0,0.0,0.0,0.0,0.0,0.0,0.0,0.0,0.0,0.0,0.0,0.0,0.0,0.0,0.0,0.0,0.0,0.0,0.0,0.0,0.0,0.0,0.0,0.0,-1.7699,-1.8703,-1.9422,-2.0212,-2.1177,-2.0678,-1.9999,-1.9379,0.0,0.0,0.0,0.0,0.0,0.0,0.0,0.0,0.0,0.0,0.0,0.0,0.0,0.0,0.0,0.0,0.0,0.0,0.0,0.0,0.0,0.0,0.0,0.0,0.0,0.0,0.0,0.0,0.0,0.0,0.0,0.0,0.0,0.0,0.0,0.0,0.0,0.0,0.0,0.0,0.0,0.0,0.0,0.0,0.0,0.0,0.0,0.0,0.0,0.0,0.0,0.0,0.0,0.0,0.0,0.0,0.0,0.0,0.0,0.0,0.0,0.0,0.0,0.0,0.0,0.0,0.0,0.0,0.0,0.0,0.0,0.0,0.0,0.0,0.0,0.0,0.0,0.0,0.0,0.0,0.0,0.0,0.0,0.0,0.0,0.0,0.0,0.0,0.0,0.0,0.0,0.0,0.0,0.0,0.0,0.0,0.0,0.0,0.0,0.0,0.0,0.0,0.0,0.0,-1.7699,-1.8703,-1.8149,-1.8149,-1.9163,-1.7624,-1.6911,-1.7624,0.0,0.0,0.0,0.0,0.0,0.0,0.0,0.0,0.0,0.0,0.0,0.0,0.0,0.0,0.0,0.0,0.0,0.0,0.0,0.0,0.0,0.0,0.0,0.0,0.0,0.0,0.0,0.0,0.0,0.0,0.0,0.0,0.0,0.0,0.0,0.0,0.0,0.0,0.0,0.0,0.0,0.0,0.0,0.0,0.0,0.0,0.0,0.0,0.0,0.0,0.0,0.0,0.0,0.0,0.0,0.0,0.0,0.0,0.0,0.0,0.0,0.0,0.0,0.0,0.0,0.0,0.0,0.0,0.0,0.0,0.0,0.0,0.0,0.0,0.0,0.0,0.0,0.0,0.0,0.0,0.0,0.0,0.0,0.0,0.0,0.0,0.0,0.0,0.0,0.0,0.0,0.0,0.0,0.0,0.0,0.0,0.0,0.0,0.0,0.0,0.0,0.0,0.0,-1.648,-1.6857,-1.787,-1.7559,-1.7699,-1.8703,-1.7963,-1.7404,-1.7326,-1.7535,0.0,0.0,0.0,0.0,0.0,0.0,0.0,0.0,0.0,0.0,0.0,0.0,0.0,0.0,0.0,0.0,0.0,0.0,0.0,0.0,0.0,0.0,0.0,0.0,0.0,0.0,0.0,0.0,0.0,0.0,0.0,0.0,0.0,0.0,0.0,0.0,0.0,0.0,0.0,0.0,0.0,0.0,0.0,0.0,0.0,0.0,0.0,0.0,0.0,0.0,0.0,0.0,0.0,0.0,0.0,0.0,0.0,0.0,0.0,0.0,0.0,0.0,0.0,0.0,0.0,0.0,0.0,0.0,0.0,0.0,0.0,0.0,0.0,0.0,0.0,0.0,0.0,0.0,0.0,0.0,0.0,0.0,0.0,0.0,0.0,0.0,0.0,0.0,0.0,0.0,0.0,0.0,0.0,0.0,0.0,0.0,0.0,0.0,0.0,0.0,0.0,0.0,-1.5784,-1.6103,-1.6857,-1.6951,-1.7279,-1.8056,-1.8102,-1.7777,-1.6998,-1.6768,0.0,0.0,0.0,0.0,0.0,0.0,0.0,0.0,0.0,0.0,0.0,0.0,0.0,0.0,0.0,0.0,0.0,0.0,0.0,0.0,0.0,0.0,0.0,0.0,0.0,0.0,0.0,0.0,0.0,0.0,0.0,0.0,0.0,0.0,0.0,0.0,0.0,0.0,0.0,0.0,0.0,0.0,0.0,0.0,0.0,0.0,0.0,0.0,0.0,0.0,0.0,0.0,0.0,0.0,0.0,0.0,0.0,0.0,0.0,0.0,0.0,0.0,0.0,0.0,0.0,0.0,0.0,0.0,0.0,0.0,0.0,0.0,0.0,0.0,0.0,0.0,0.0,0.0,0.0,0.0,0.0,0.0,0.0,0.0,0.0,0.0,0.0,0.0,0.0,0.0,0.0,0.0,0.0,0.0,0.0,0.0,0.0,0.0,0.0,0.0,0.0,0.0,-1.5784,-1.5832,-1.5927,-1.5927,-1.5913,-1.6008,-1.6008,-1.5961,-1.5927,-1.59,0.0,0.0,0.0,0.0,0.0,0.0,0.0,0.0,0.0,0.0,0.0,0.0,0.0,0.0,0.0,0.0,0.0,0.0,0.0,0.0,0.0,0.0,0.0,0.0,0.0,0.0,0.0,0.0,0.0,0.0,0.0,0.0,0.0,0.0,0.0,0.0,0.0,0.0,0.0,0.0,0.0,0.0,0.0,0.0,0.0,0.0,0.0,0.0,0.0,0.0,0.0,0.0,0.0,0.0,0.0,0.0,0.0,0.0,0.0,0.0,0.0,0.0,0.0,0.0,0.0,0.0,0.0,0.0,0.0,0.0,0.0,0.0,0.0,0.0,0.0,0.0,0.0,0.0,0.0,0.0,0.0,0.0,0.0,0.0,0.0,0.0,0.0,0.0,0.0,0.0,0.0,0.0,0.0,0.0,0.0,0.0,0.0,0.0,0.0,0.0,0.0,0.0,-1.5784,-1.5784,-1.5784,-1.5784,-1.5784,-1.5784,-1.5784,-1.5784,-1.5784,0.0,0.0,0.0,0.0,0.0,0.0,0.0,0.0,0.0,0.0,0.0,0.0,0.0,0.0,0.0,0.0,0.0,0.0,0.0,0.0,0.0,0.0,0.0,0.0,0.0,0.0,0.0,0.0,0.0,0.0,0.0,0.0,0.0,0.0,0.0,0.0,0.0,0.0,0.0,0.0,0.0,0.0,0.0,0.0,0.0,0.0,0.0,0.0,0.0,0.0,0.0,0.0,0.0,0.0,0.0,0.0,0.0,0.0,0.0,0.0,0.0,0.0,0.0,0.0,0.0,0.0,0.0,0.0,0.0,0.0,0.0,0.0,0.0,0.0,0.0,0.0,0.0,0.0,0.0,0.0,0.0,0.0,0.0,0.0,0.0,0.0,0.0,0.0,0.0,0.0,0.0,0.0,0.0,0.0,0.0,0.0,0.0,0.0,0.0,0.0,0.0,0.0,-1.5784,-1.5784,-1.5784,-1.5784,-1.5784,-1.5784,-1.5784,-1.5784,-1.5784,-1.5784,0.0,0.0,0.0,0.0,0.0,0.0,0.0,0.0,0.0,0.0,0.0,0.0,0.0,0.0,0.0,0.0,0.0,0.0,0.0,0.0,0.0,0.0,0.0,0.0,0.0,0.0,0.0,0.0,0.0,0.0,0.0,0.0,0.0,0.0,0.0,0.0,0.0,0.0,0.0,0.0,0.0,0.0,0.0,0.0,0.0,0.0,0.0,0.0,0.0,0.0,0.0,0.0,0.0,0.0,0.0,0.0,0.0,0.0,0.0,0.0,0.0,0.0,0.0,0.0,0.0,0.0,0.0,0.0,0.0,0.0,0.0,0.0,0.0,0.0,0.0,0.0,0.0,0.0,0.0,0.0,0.0,0.0,0.0,0.0,0.0,0.0,0.0,0.0,0.0,0.0,0.0,0.0,0.0,0.0,0.0,0.0,0.0,0.0,0.0,0.0,0.0,0.0,-1.5832,-1.5784,-1.5798,-1.5798,-1.5798,-1.5798,-1.5798,-1.5784,-1.5832,0.0,0.0,0.0,0.0,0.0,0.0,0.0,0.0,0.0,0.0,0.0,0.0,0.0,0.0,0.0,0.0,0.0,0.0,0.0,0.0,0.0,0.0,0.0,0.0,0.0,0.0,0.0,0.0,0.0,0.0,0.0,0.0,0.0,0.0,0.0,0.0,0.0,0.0,0.0,0.0,0.0,0.0,0.0,0.0,0.0,0.0,0.0,0.0,0.0,0.0,0.0,0.0,0.0,0.0,0.0,0.0,0.0,0.0,0.0,0.0,0.0,0.0,0.0,0.0,0.0,0.0,0.0,0.0,0.0,0.0,0.0,0.0,0.0,0.0,0.0,0.0,0.0,0.0,0.0,0.0,0.0,0.0,0.0,0.0,0.0,0.0,0.0,0.0,0.0,0.0,0.0,0.0,0.0,0.0,0.0,0.0,0.0,0.0,0.0,0.0,0.0,0.0,0.0,-1.6139,-1.6326,-1.6446,-1.6446,-1.6446,-1.6446,-1.6446,-1.6259,-1.6139,-1.6139,0.0,0.0,0.0,0.0,0.0,0.0,0.0,0.0,0.0,0.0,0.0,0.0,0.0,0.0,0.0,0.0,0.0,0.0,0.0,0.0,0.0,0.0,0.0,0.0,0.0,0.0,0.0,0.0,0.0,0.0,0.0,0.0,0.0,0.0,0.0,0.0,0.0,0.0,0.0,0.0,0.0,0.0,0.0,0.0,0.0,0.0,0.0,0.0,0.0,0.0,0.0,0.0,0.0,0.0,0.0,0.0,0.0,0.0,0.0,0.0,0.0,0.0,0.0,0.0,0.0,0.0,0.0,0.0,0.0,0.0,0.0,0.0,0.0,0.0,0.0,0.0,0.0,0.0,0.0,0.0,0.0,0.0,0.0,0.0,0.0,0.0,0.0,0.0,0.0,0.0,0.0,0.0,0.0,0.0,0.0,0.0,0.0,0.0,0.0,0.0,0.0,0.0,-1.6446,-1.6593,-1.67,-1.67,-1.67,-1.67,-1.67,-1.654,-1.6446,-1.6446,0.0,0.0,0.0,0.0,0.0,0.0,0.0,0.0,0.0,0.0,0.0,0.0,0.0,0.0,0.0,0.0,0.0,0.0,0.0,0.0,0.0,0.0,0.0,0.0,0.0,0.0,0.0,0.0,0.0,0.0,0.0,0.0,0.0,0.0,0.0,0.0,0.0,0.0,0.0,0.0,0.0,0.0,0.0,0.0,0.0,0.0,0.0,0.0,0.0,0.0,0.0,0.0,0.0,0.0,0.0,0.0,0.0,0.0,0.0,0.0,0.0,0.0,0.0,0.0,0.0,0.0,0.0,0.0,0.0,0.0,0.0,0.0,0.0,0.0,0.0,0.0,0.0,0.0,0.0,0.0,0.0,0.0,0.0,0.0,0.0,0.0,0.0,0.0,0.0,0.0,0.0,0.0,0.0,0.0,0.0,0.0,0.0,0.0,0.0,0.0,0.0,0.0,-1.674,-1.6767,-1.678,-1.678,-1.678,-1.678,-1.678,-1.6767,-1.674,-1.674,0.0,0.0,0.0,0.0,0.0,0.0,0.0,0.0,0.0,0.0,0.0,0.0,0.0,0.0,0.0,0.0,0.0,0.0,0.0,0.0,0.0,0.0,0.0,0.0,0.0,0.0,0.0,0.0,0.0,0.0,0.0,0.0,0.0,0.0,0.0,0.0,0.0,0.0,0.0,0.0,0.0,0.0,0.0,0.0,0.0,0.0,0.0,0.0,0.0,0.0,0.0,0.0,0.0,0.0,0.0,0.0,0.0,0.0,0.0,0.0,-2.4727,0.0,0.0,0.0,0.0,0.0,0.0,0.0,0.0,0.0,0.0,0.0,0.0,0.0,0.0,0.0,0.0,0.0,0.0,0.0,0.0,0.0,0.0,0.0,0.0,0.0,0.0,0.0,0.0,0.0,0.0,0.0,0.0,0.0,0.0,0.0,0.0,0.0,0.0,0.0,0.0,0.0,-1.7099,-1.7261,-1.7395,-1.7395,-1.7395,-1.7395,-1.7395,-1.7181,-1.7099,-1.7099,-1.6834,0.0,0.0,0.0,0.0,0.0,0.0,0.0,0.0,0.0,0.0,0.0,0.0,0.0,0.0,0.0,0.0,0.0,0.0,0.0,0.0,0.0,0.0,0.0,0.0,0.0,0.0,0.0,0.0,0.0,0.0,0.0,0.0,0.0,0.0,0.0,0.0,0.0,0.0,0.0,0.0,0.0,0.0,0.0,0.0,0.0,0.0,0.0,0.0,0.0,0.0,0.0,0.0,0.0,0.0,0.0,0.0,0.0,0.0,0.0,0.0,-2.4707,0.0,0.0,0.0,0.0,0.0,0.0,0.0,0.0,0.0,0.0,0.0,0.0,0.0,0.0,0.0,0.0,0.0,0.0,0.0,0.0,0.0,0.0,0.0,0.0,0.0,0.0,0.0,0.0,0.0,0.0,0.0,0.0,0.0,0.0,0.0,0.0,0.0,0.0,0.0,0.0,-1.7407,-1.7488,-1.7582,-1.7582,-1.7582,-1.7582,-1.7582,-1.7448,-1.7407,-1.7407,-1.7208,0.0,0.0,0.0,0.0,0.0,0.0,0.0,0.0,0.0,0.0,0.0,0.0,0.0,0.0,0.0,0.0,0.0,0.0,0.0,0.0,0.0,0.0,0.0,0.0,0.0,0.0,0.0,0.0,0.0,0.0,0.0,0.0,0.0,0.0,0.0,0.0,0.0,0.0,0.0,0.0,0.0,0.0,0.0,0.0,0.0,0.0,0.0,0.0,0.0,0.0,0.0,0.0,0.0,-2.5693,-2.5693,-2.5693,-2.5693,-2.5693,-2.5693,-2.5479,-2.543,-2.543,-2.5625,0.0,0.0,0.0,0.0,0.0,0.0,0.0,0.0,0.0,0.0,0.0,0.0,0.0,0.0,0.0,0.0,0.0,0.0,0.0,0.0,0.0,0.0,0.0,0.0,-1.8099,-1.7932,0.0,0.0,0.0,0.0,0.0,0.0,0.0,0.0,0.0,0.0,0.0,0.0,-1.7635,-1.7582,-1.7582,-1.7582,-1.7582,-1.7582,-1.7582,-1.7582,-1.7582,-1.7582,-1.7582,-1.7475,0.0,0.0,0.0,0.0,0.0,0.0,0.0,0.0,0.0,0.0,0.0,0.0,0.0,0.0,0.0,0.0,0.0,0.0,0.0,0.0,0.0,0.0,0.0,0.0,0.0,0.0,0.0,0.0,0.0,0.0,0.0,0.0,-2.5693,-2.5693,0.0,0.0,0.0,0.0,0.0,0.0,0.0,0.0,0.0,0.0,0.0,0.0,0.0,-2.5693,-2.5693,-2.5693,-2.5693,-2.5693,-2.5693,-2.5693,-2.5693,-2.5693,-2.5693,-2.5645,-2.4707,0.0,-2.4393,-2.5333,0.0,0.0,0.0,0.0,0.0,0.0,0.0,0.0,0.0,0.0,0.0,0.0,0.0,0.0,0.0,0.0,0.0,0.0,0.0,0.0,0.0,0.0,-1.8812,-1.8812,-1.8565,-1.8356,0.0,-1.7828,-1.7462,-1.7514,-1.7527,0.0,0.0,0.0,0.0,0.0,0.0,0.0,-1.7635,-1.7582,-1.7582,-1.7582,-1.7582,-1.7582,-1.7582,-1.7582,-1.7582,-1.7582,-1.7582,-1.7569,-1.7528,-1.7528,0.0,0.0,0.0,0.0,0.0,0.0,0.0,0.0,0.0,0.0,0.0,0.0,0.0,0.0,0.0,0.0,0.0,0.0,0.0,0.0,0.0,0.0,0.0,0.0,0.0,0.0,0.0,0.0,0.0,-2.5693,-2.5693,-2.5693,-2.5693,-2.5693,0.0,0.0,0.0,0.0,0.0,0.0,0.0,0.0,0.0,-2.5693,-2.5693,-2.5693,-2.5693,-2.5693,-2.5693,-2.5693,-2.5693,-2.5693,-2.5693,-2.5693,-2.5382,-2.4756,-2.4295,-2.3732,-2.3235,-2.3701,-2.3352,-2.2534,0.0,0.0,0.0,0.0,-2.1591,-2.1438,-2.038,-1.9983,0.0,-1.9428,0.0,0.0,0.0,0.0,0.0,0.0,0.0,0.0,0.0,0.0,-1.913,-1.913,-1.8921,-1.8698,-1.8698,-1.8318,-1.8055,0.0,-1.795,-1.7911,-1.8174,0.0,0.0,0.0,0.0,-1.7911,-1.7635,-1.7582,-1.7582,-1.7582,-1.7582,-1.7582,-1.7582,-1.7582,-1.7582,-1.7582,-1.7582,-1.7582,-1.7582,-1.7582,-1.7515,0.0,0.0,0.0,0.0,0.0,0.0,0.0,0.0,0.0,0.0,0.0,0.0,0.0,0.0,0.0,0.0,0.0,0.0,0.0,0.0,0.0,0.0,0.0,0.0,0.0,0.0,0.0,0.0,-2.5693,-2.5693,-2.5693,-2.5693,-2.5693,0.0,0.0,0.0,0.0,0.0,0.0,-2.5693,-2.5693,-2.5693,-2.5693,-2.5693,-2.5693,-2.5693,-2.5693,-2.5693,-2.5693,-2.543,-2.5284,-2.5265,-2.502,-2.4461,-2.3683,-2.3384,-2.2835,-2.208,-2.2383,-2.2333,-2.208,-2.208,-2.1929,-2.1591,-2.079,-2.0483,-2.038,-1.9583,-1.9272,-1.9272,-1.9272,-1.9272,-1.9272,-1.9272,0.0,0.0,0.0,0.0,-1.9272,-1.9272,-1.9272,-1.9272,-1.9272,-1.913,-1.9026,-1.9026,-1.8803,-1.8579,0.0,-1.8213,-1.8174,-1.8475,0.0,0.0,0.0,0.0,-1.8016,-1.7845,-1.7687,-1.7635,-1.7687,-1.7635,-1.7582,-1.7582,-1.7582,-1.7582,-1.7582,-1.7582,-1.7582,-1.7582,-1.7582,-1.7582,-1.7582,0.0,0.0,0.0,0.0,0.0,0.0,0.0,0.0,0.0,0.0,0.0,0.0,0.0,0.0,0.0,0.0,0.0,0.0,0.0,0.0,0.0,0.0,0.0,0.0,0.0,0.0,0.0,0.0,0.0,-2.5693,-2.5693,0.0,0.0,0.0,0.0,-2.5693,-2.5693,-2.5693,-2.5693,-2.5693,-2.5693,-2.5693,-2.5693,-2.5693,-2.5693,-2.5693,-2.5693,-2.5693,-2.4658,-2.4196,-2.4146,-2.3135,-2.2634,-2.2534,-2.1489,-2.103,-2.103,-2.208,-2.1878,-2.0979,-2.0979,-2.038,-1.9428,-1.9376,-1.9376,-1.9376,-1.9324,-1.9272,-1.9272,-1.9272,-1.9272,-1.9272,-1.9272,-1.9272,0.0,0.0,-1.9272,-1.9272,-1.9272,-1.9272,-1.9272,-1.9272,-1.9272,-1.9272,-1.9272,-1.9272,-1.9116,0.0,-1.837,-1.8489,-1.8817,0.0,-1.8869,-1.8869,-1.8593,-1.837,-1.837,-1.7898,-1.7687,-1.7964,-1.774,-1.7582,-1.7582,-1.7582,-1.7582,-1.7582,-1.7582,-1.7582,-1.7582,-1.7582,-1.7582,-1.7582,-1.7582,0.0,0.0,0.0,0.0,0.0,0.0,0.0,0.0,0.0,0.0,0.0,0.0,0.0,0.0,0.0,0.0,0.0,0.0,0.0,0.0,0.0,0.0,0.0,0.0,0.0,0.0,0.0,0.0,-2.6423,-2.5869,0.0,-2.6462,-2.5819,-2.5718,-2.6462,-2.6562,-2.6562,-2.6562,-2.6562,-2.6562,-2.6562,-2.6562,-2.6562,-2.6562,-2.5768,-2.5395,-2.5344,-2.4253,-2.3738,-2.3686,-2.3324,-2.2751,-2.2018,-2.165,-2.1084,-2.046,-2.0871,-2.0573,-1.9879,-1.9879,-1.9635,-1.9272,-1.9272,-1.9272,-1.9272,-1.9272,-1.9272,-1.9272,-1.9272,-1.9272,-1.9272,-1.9272,-1.9272,-1.9272,-1.9272,-1.9272,-1.9272,-1.9272,-1.9272,-1.9272,-1.9272,-1.9272,-1.9272,-1.9272,-1.9272,-1.922,-1.9011,-1.8855,-1.8698,-1.8593,-1.8593,-1.8593,-1.8593,-1.8331,-1.8122,-1.8122,-1.7845,-1.7635,-1.774,-1.7635,-1.7582,-1.7582,-1.7582,-1.7582,-1.7582,-1.7582,-1.7582,-1.7582,-1.7582,-1.7582,-1.7582,-1.7582,-1.7582,0.0,0.0,0.0,0.0,0.0,0.0,0.0,0.0,0.0,0.0,0.0,0.0,0.0,0.0,0.0,0.0,0.0,0.0,0.0,0.0,0.0,0.0,0.0,0.0,0.0,-2.54,-2.5289,-2.6288,-2.5359,-2.5081,-2.6256,-2.567,-2.5548,-2.6307,-2.6737,-2.7012,-2.7012,-2.7012,-2.6807,-2.641,-2.6359,-2.6205,-2.5792,-2.5047,-2.4612,-2.4612,-2.3455,-2.2941,-2.2941,-2.2568,-2.1979,-2.124,-2.124,-2.0861,-2.0183,-2.0183,-1.9989,-1.9594,-1.9477,-1.9485,-1.9433,-1.9316,-1.9272,-1.9272,-1.9272,-1.9272,-1.9272,-1.9272,-1.9272,-1.9272,-1.9272,-1.9272,-1.9272,-1.9272,-1.9272,-1.9272,-1.9272,-1.9272,-1.9272,-1.9272,-1.9272,-1.9272,-1.9272,-1.9272,-1.9272,-1.9272,-1.9182,-1.8974,-1.875,-1.8684,-1.8684,-1.8684,-1.8489,-1.8331,-1.8436,-1.8016,-1.774,-1.7845,-1.7687,-1.7582,-1.7582,-1.7582,-1.7582,-1.7582,-1.7582,-1.7582,-1.7582,-1.7582,-1.7582,-1.7582,-1.7582,-1.7582,-1.7582,0.0,0.0,0.0,0.0,0.0,0.0,0.0,0.0,0.0,0.0,0.0,0.0,0.0,0.0,0.0,0.0,0.0,0.0,0.0,0.0,0.0,0.0,0.0,-2.4891,-2.5151,-2.5151,-2.5222,-2.4175,-2.3912,-2.5066,-2.517,-2.517,-2.517,-2.6243,-2.6948,-2.6948,-2.6948,-2.6467,-2.5274,-2.5274,-2.4752,-2.3665,-2.3612,-2.3612,-2.3559,-2.2387,-2.185,-2.1796,-2.0743,-2.0212,-2.0212,-2.0212,-2.0212,-2.0212,-2.0212,-2.0212,-2.0183,-1.9901,-1.9837,-1.9793,-1.947,-1.9301,-1.9301,-1.9301,-1.9301,-1.9301,-1.9301,-1.9301,-1.9301,-1.9301,-1.9338,-1.9286,-1.9286,-1.9272,-1.9272,-1.9272,-1.9272,-1.9272,-1.9272,-1.9272,-1.9272,-1.9272,-1.9272,-1.9272,-1.9272,-1.9272,-1.9272,-1.9272,-1.9272,-1.9272,-1.9272,-1.9078,0.0,-1.922,-1.8541,-1.8122,-1.837,-1.7898,-1.7582,-1.7582,-1.7582,-1.7582,-1.7582,-1.7582,-1.7582,-1.7582,-1.7582,-1.7582,-1.7582,-1.7582,-1.7582,-1.7582,0.0,0.0,0.0,0.0,0.0,0.0,0.0,0.0,0.0,0.0,0.0,0.0,0.0,0.0,0.0,0.0,0.0,0.0,0.0,0.0,0.0,-2.5649,-2.5326,-2.5644,-2.4293,-2.3965,-2.5936,-2.4381,-2.3613,-2.4746,-2.409,-2.3943,-2.48,-2.5126,-2.5343,-2.5343,-2.6188,-2.6474,-2.6134,-2.7009,-2.7275,-2.7009,-2.6134,-2.5703,-2.5649,-2.3613,-2.2688,-2.2633,-2.1489,-2.094,-2.094,-2.094,-2.094,-2.094,-2.094,-2.094,-2.0881,-2.0325,-2.0106,-2.0091,-2.0003,-1.9974,-1.9974,-1.9974,-1.9974,-1.9974,-1.9974,-1.9974,-1.993,-1.9696,-1.9676,-1.9632,-1.9397,-1.9272,-1.9272,-1.9272,-1.9272,-1.9272,-1.9272,-1.9272,-1.9272,-1.9272,-1.9272,-1.9272,-1.9272,-1.9272,-1.9272,-1.9272,-1.9272,-1.9272,-1.9272,-1.9078,0.0,-1.8698,-1.8279,-1.7964,-1.7845,-1.7687,-1.7582,-1.7582,-1.7582,-1.7582,-1.7582,-1.7582,-1.7582,-1.7582,-1.7582,-1.7582,-1.7582,-1.7582,-1.7582,0.0,0.0,0.0,0.0,0.0,0.0,0.0,0.0,0.0,0.0,0.0,0.0,0.0,0.0,0.0,0.0,0.0,0.0,0.0,0.0,0.0,0.0,-2.4833,-2.4631,-2.5027,-2.4127,-2.3844,-2.4893,-2.3815,-2.3255,-2.3911,-2.3407,-2.3463,-2.4616,-2.5168,-2.568,-2.6173,-2.6844,-2.7025,-2.6518,-2.7187,-2.7295,-2.6789,-2.6118,-2.5516,-2.5038,-2.4133,-2.3199,-2.2256,-2.2044,-2.1645,-2.1203,-2.1203,-2.1203,-2.1203,-2.1203,-2.1203,0.0,0.0,0.0,0.0,0.0,-2.0183,-2.0183,-2.0183,-2.0183,-2.0183,-2.0183,-2.0183,-2.0139,-2.0018,-1.9959,-1.993,-1.9725,-1.9681,-1.9681,-1.9681,-1.9681,-1.9681,-1.9681,-1.9681,-1.9681,-1.9681,-1.9681,-1.9638,-1.9506,-1.9529,0.0,-1.9301,-1.9272,-1.9272,-1.9272,-1.9182,-1.9026,-1.8803,-1.8436,-1.8108,-1.795,-1.774,-1.7582,-1.7582,-1.7582,0.0,0.0,0.0,-1.7582,-1.7582,-1.7582,0.0,0.0,0.0,-1.7582,-1.7582,0.0,0.0,0.0,-1.7554,-1.7541,0.0,0.0,0.0,0.0,0.0,0.0,0.0,0.0,0.0,0.0,0.0,0.0,0.0,0.0,0.0,0.0,-2.265,-2.2362,-2.352,-2.4212,-2.425,-2.3198,-2.2988,-2.2931,-2.2931,-2.2931,-2.3311,-2.4362,-2.5418,-2.65,-2.7536,-2.7717,0.0,0.0,0.0,-2.5933,-2.4791,-2.4791,-2.4306,-2.3311,-2.4194,-2.3521,-2.1536,-2.2493,-2.2322,-2.132,-2.132,-2.132,-2.132,-2.1276,-2.1247,-2.1174,-2.0896,-2.0779,-2.075,-2.0402,-2.0285,-2.0285,-2.0285,0.0,0.0,-2.0285,-2.0285,-2.0285,-2.0241,-2.0241,-2.0227,-2.0197,-2.0183,-2.0183,-2.0183,-2.0183,-2.0183,-2.0183,-2.0183,-2.0183,-2.0183,-2.0183,-2.015,-1.9872,-1.9867,-1.9725,-1.9433,-1.933,-1.9272,-1.9272,-1.9272,-1.9272,-1.9272,-1.8803,-1.8422,-1.837,0.0,0.0,-1.7582,-1.7582,-1.7582,-1.7582,-1.7582,-1.7582,-1.7582,-1.7582,-1.7582,-1.7582,-1.7582,-1.7582,-1.7582,-1.7582,-1.7582,-1.7582,-1.7582,-1.7582,0.0,0.0,0.0,0.0,0.0,0.0,0.0,0.0,0.0,0.0,0.0,0.0,0.0,0.0,0.0,-2.4204,-2.3634,-2.3253,-2.2632,-2.3383,-2.3991,-2.3758,-2.291,-2.2334,-2.2334,-2.2334,-2.2453,-2.2689,-2.291,-2.3145,-2.338,-2.4224,-2.4614,-2.4382,-2.5364,-2.5766,-2.552,-2.552,-2.5405,-2.5192,0.0,0.0,-2.3364,-2.2674,-2.2231,-2.1993,-2.1993,-2.1993,-2.1979,-2.1715,-2.1452,-2.1203,-2.1145,-2.1115,-2.1115,-2.1042,-2.1028,-2.1028,-2.1028,-2.1028,-2.1028,-2.1028,-2.1028,-2.0969,-2.0706,-2.0577,0.0,-2.0256,-2.0183,-2.0183,-2.0183,-2.0183,-2.0183,-2.0183,-2.0183,-2.0183,-2.0183,-2.0183,-2.0168,-2.015,-2.015,-2.012,-2.0062,-1.9623,-1.9272,-1.9272,-1.9272,-1.922,-1.9026,-1.8869,-1.8608,-1.8122,-1.7964,-1.7859,-1.7635,-1.7582,-1.7582,-1.7582,-1.7582,-1.7582,-1.7582,-1.7582,-1.7582,-1.7582,-1.7582,-1.7582,-1.7582,-1.7582,-1.7582,-1.7582,-1.7582,-1.7582,0.0,0.0,0.0,0.0,0.0,0.0,0.0,0.0,0.0,0.0,0.0,-2.8434,-2.5654,0.0,-2.5679,-2.4455,-2.4218,-2.4118,-2.3702,-2.4141,-2.4121,-2.3139,-2.3626,-2.3567,-2.2303,-2.2766,-2.3093,-2.3049,-2.3049,-2.333,-2.3905,-2.4477,-2.4828,-2.4828,-2.5393,-2.5683,-2.5683,-2.5683,-2.5393,-2.4828,-2.4828,-2.4199,-2.3049,-2.3049,-2.2751,-2.2184,-2.2184,-2.2184,-2.2169,-2.2008,-2.1847,-2.1701,-2.1701,-2.1496,-2.1203,-2.1203,-2.1203,-2.1203,-2.1203,-2.1203,-2.1203,-2.1203,-2.1203,-2.1174,-2.1013,-2.0969,-2.094,-2.0764,-2.072,-2.072,-2.072,-2.072,-2.072,-2.072,-2.072,-2.072,-2.072,-2.072,-2.0676,-2.046,-2.0431,-2.0428,-2.0212,-1.9974,-1.9755,-1.9755,-1.9755,-1.9648,-1.9395,-1.9092,-1.8727,-1.8302,-1.7993,-1.774,-1.7635,-1.7582,-1.7582,-1.7582,-1.7582,-1.7582,-1.7582,-1.7582,-1.7582,-1.7582,-1.7582,-1.7582,-1.7582,-1.7582,-1.7582,-1.7582,-1.7582,-1.7582,0.0,0.0,0.0,0.0,0.0,0.0,0.0,-2.9488,-2.9488,-2.7975,-2.8523,-2.8414,-2.5594,-2.5064,-2.5004,-2.4763,-2.4461,-2.4374,-2.4655,-2.4702,-2.4132,-2.2539,-2.417,-2.4569,-2.2601,-2.3291,-2.3857,-2.3754,-2.3754,-2.4154,-2.5142,-2.5201,-2.5201,-2.5201,-2.5201,-2.5201,-2.5201,-2.5201,-2.4746,-2.3754,-2.473,-2.4213,-2.242,-2.3351,-2.3231,-2.2359,-2.2359,-2.233,-2.2271,-2.2271,-2.2242,-2.2184,-2.2184,-2.1862,-2.1393,-2.1393,-2.1393,-2.1393,-2.1393,-2.135,-2.1306,-2.1306,-2.1262,-2.1203,-2.1203,-2.1203,-2.1203,-2.1203,-2.1203,-2.1203,-2.1203,-2.1203,-2.1203,-2.1203,-2.1203,-2.1203,-2.1203,-2.1203,-2.113,-2.0867,-2.0823,-2.0735,-2.0416,-2.0373,-2.0329,-2.0197,-2.0183,-2.0128,-1.9924,-1.9422,-1.8982,-1.8726,-1.8171,-1.7809,-1.7756,-1.7702,-1.7675,-1.7662,-1.7609,-1.7582,-1.7582,-1.7582,-1.7582,-1.7582,-1.7582,-1.7582,-1.7582,-1.7582,-1.7582,-1.7582,-1.7582,-1.7582,-2.9375,-2.9726,-3.0,-3.0039,-2.9487,-2.8564,0.0,-2.7966,-2.8372,-2.5984,-2.8247,-2.9844,-2.7194,-2.6755,-2.6376,-2.5253,-2.4039,-2.3248,-2.3355,-2.3293,-2.3263,-2.3018,-2.3251,-2.3298,-2.3003,-2.3127,-2.3189,-2.3189,-2.3189,-2.3237,-2.336,-2.336,-2.336,-2.336,-2.336,-2.336,-2.336,-2.336,-2.3298,-2.3189,-2.3298,-2.3237,-2.3003,-2.3127,-2.3127,-2.3003,-2.3003,-2.2842,-2.2579,-2.2579,-2.2418,-2.2184,-2.2184,-2.214,-2.2081,-2.2081,-2.2081,-2.2081,-2.2081,-2.1876,-2.1642,-2.1642,-2.1452,-2.1203,-2.1203,-2.1203,-2.1203,-2.1203,-2.1203,-2.1203,-2.1203,-2.1203,-2.1203,-2.1203,-2.1203,-2.1203,-2.1203,-2.1203,-2.1203,-2.1159,-2.1159,-2.1145,-2.1101,-2.1101,-2.0911,-2.027,-2.0183,-2.0183,-2.0183,-1.988,-1.9592,-1.9304,-1.8947,-1.8659,-1.8439,-1.8143,-1.7929,-1.7969,-1.7729,-1.7582,-1.7582,-1.7582,-1.7582,-1.7582,-1.7582,-1.7582,-1.7582,-1.7582,-1.7582,-1.7582,-1.7582,-1.7582,-2.9531,-3.0078,-3.0527,-3.0273,-2.9562,-2.8943,-2.9031,-2.8928,-2.8623,-2.7529,-2.8623,-2.8938,-2.6338,-2.5912,-2.5729,-2.5194,-2.4641,-2.427,-2.427,-2.427,-2.3961,-2.3168,-2.3106,-2.3106,-2.3106,-2.379,-2.3961,-2.3168,-2.3106,-2.3106,-2.3106,-2.3106,-2.3106,-2.3106,-2.3106,-2.3106,-2.3106,-2.3106,-2.3106,-2.3106,-2.3106,-2.3106,-2.3106,-2.3106,-2.3106,-2.3106,-2.3106,-2.3032,-2.2901,-2.2901,-2.2828,-2.2725,-2.2725,-2.2725,-2.2681,-2.2315,-2.2184,-2.2184,-2.2184,-2.2096,-2.1979,-2.1979,-2.1891,-2.1774,-2.1774,-2.1774,-2.1774,-2.1774,-2.1774,-2.1774,-2.1774,-2.1642,-2.1496,-2.1496,-2.135,-2.1203,-2.1203,-2.1203,-2.1203,-2.1203,-2.1203,-2.1203,-2.1203,-2.1203,-2.1115,-2.0837,-2.0808,-2.0681,-2.0498,-2.006,-1.9556,-1.8947,-1.8754,-1.8601,-1.849,-1.837,-1.8303,-1.829,-1.8183,-1.8103,-1.8103,-1.8103,-1.8103,-1.8103,-1.7943,-1.7849,-1.7836,-1.7662,-1.7582,-1.7582,-1.7582,-1.7582,-2.9941,-3.041,-3.082,-3.0469,-2.9657,-2.9157,-3.0157,-2.9589,-2.892,-2.892,-2.892,-2.8325,-2.652,-2.5851,-2.5501,-2.5133,-2.5071,-2.4949,-2.4579,-2.4517,-2.4209,-2.323,-2.3106,-2.3106,-2.3106,-2.3961,-2.4147,-2.3168,-2.3106,-2.3106,-2.3106,-2.3106,-2.3106,-2.3106,-2.3193,-2.3237,-2.3237,-2.3325,-2.3384,-2.3384,-2.3384,-2.3384,-2.3384,-2.3384,-2.3384,-2.3384,-2.3384,-2.3384,-2.3369,-2.3281,-2.3237,-2.3237,-2.3149,-2.3106,-2.3047,-2.2608,-2.2432,-2.2432,-2.2432,-2.2374,-2.2301,-2.2301,-2.2257,-2.2184,-2.2184,-2.2184,-2.2184,-2.2184,-2.2184,-2.2184,-2.2184,-2.2008,-2.1832,-2.1832,-2.1657,-2.1481,-2.1481,-2.1481,-2.1481,-2.1481,-2.1481,-2.1481,-2.1481,-2.1481,-2.1452,-2.135,-2.135,-2.1191,-2.073,-2.0188,-1.9568,-1.8913,-1.8787,-1.8731,-1.8731,-1.8651,-1.8611,-1.8611,-1.8531,-1.849,-1.849,-1.849,-1.849,-1.849,-1.8277,-1.8156,-1.8143,-1.7929,-1.7836,-1.7836,-1.7836,-1.7836,-3.0859,-3.0859,-3.0879,-3.0879,-2.9903,-2.892,-2.892,-2.892,-2.892,-2.892,-2.892,-2.8861,-2.8801,-2.7787,-2.6537,-2.5317,-2.5071,-2.4641,-2.3355,-2.3168,-2.3168,-2.3106,-2.3106,-2.3106,-2.3106,-2.3168,-2.3168,-2.3106,-2.3106,-2.3106,-2.3106,-2.3106,-2.3106,-2.3106,-2.3413,-2.3574,-2.3574,-2.3896,-2.4057,-2.4057,-2.4057,-2.4057,-2.4057,-2.4057,-2.4057,-2.4057,-2.4057,-2.4057,-2.4027,-2.372,-2.3574,-2.3545,-2.3237,-2.3106,-2.3106,-2.3091,-2.3076,-2.3076,-2.3076,-2.2871,-2.2608,-2.2608,-2.2418,-2.2184,-2.2184,-2.2184,-2.2184,-2.2184,-2.2184,-2.2184,-2.2184,-2.2169,-2.2169,-2.2169,-2.2154,-2.2154,-2.2154,-2.2154,-2.2154,-2.2154,-2.2154,-2.2154,-2.2154,-2.2154,-2.2052,-2.173,-2.1686,-2.1438,-2.0759,-2.0141,-1.9795,-1.9781,-1.9506,-1.9345,-1.9345,-1.9078,-1.8905,-1.8905,-1.8651,-1.849,-1.849,-1.849,-1.849,-1.849,-1.8477,-1.8477,-1.8477,-1.8464,-1.8464,-1.8464,-1.8464,-1.8464,-3.0898,-3.0898,-3.0898,-3.0898,-2.9903,-2.9098,-3.002,-2.953,-2.9157,-3.002,-3.0426,-3.0379,-2.9504,-2.8296,-2.6952,-2.5716,-2.4549,-2.3604,-2.3168,-2.3106,-2.3106,-2.3106,-2.3106,-2.3106,-2.3106,-2.3106,-2.3106,-2.3106,-2.3106,-2.3208,-2.3427,-2.3427,-2.353,-2.3749,-2.3866,-2.3925,-2.3925,-2.4027,-2.4086,-2.4086,-2.4086,-2.4086,-2.4086,-2.4086,-2.4086,-2.4086,-2.4086,-2.4086,-2.4071,-2.3969,-2.3925,-2.391,-2.3793,-2.3749,-2.3749,-2.3749,-2.3749,-2.3691,-2.3252,-2.3032,-2.2945,-2.2945,-2.2871,-2.2798,-2.2798,-2.2798,-2.2798,-2.2798,-2.2798,-2.2798,-2.2798,-2.2637,-2.2476,-2.2476,-2.233,-2.2184,-2.2184,-2.2184,-2.2184,-2.2184,-2.2184,-2.2184,-2.2184,-2.2184,-2.208,-2.1785,-2.1335,-2.0902,-2.0515,-2.004,-1.9751,-1.9533,-1.9417,-1.943,-1.943,-1.9279,-1.9225,-1.9225,-1.9132,-1.9078,-1.9078,-1.9078,-1.9078,-1.9078,-1.8878,-1.8784,-1.8771,-1.8584,-1.849,-1.849,-1.849,-1.849,-3.0957,-3.0898,-3.0898,-3.0898,-3.0274,-2.9844,-3.0704,-3.0216,-2.9844,-3.0704,-3.0856,-3.0588,-2.9767,-2.8491,-2.7233,-2.6054,-2.4796,-2.3768,-2.3344,-2.3281,-2.3237,-2.312,-2.3106,-2.3149,-2.3267,-2.3281,-2.3281,-2.3281,-2.3398,-2.3545,-2.3764,-2.3764,-2.3866,-2.4071,-2.4203,-2.4262,-2.4262,-2.4379,-2.4437,-2.4437,-2.4437,-2.4437,-2.4437,-2.4437,-2.4437,-2.4437,-2.4437,-2.4437,-2.4423,-2.4305,-2.4262,-2.4247,-2.413,-2.4086,-2.4086,-2.4086,-2.4086,-2.4013,-2.3471,-2.3281,-2.3267,-2.3149,-2.3106,-2.3106,-2.3106,-2.3106,-2.3106,-2.3106,-2.3106,-2.3106,-2.3106,-2.2959,-2.2798,-2.2798,-2.2652,-2.252,-2.252,-2.252,-2.252,-2.252,-2.252,-2.252,-2.252,-2.2418,-2.227,-2.2074,-2.1448,-2.0943,-2.0665,-2.0196,-1.9902,-1.9856,-1.9738,-1.9639,-1.9533,-1.9519,-1.9479,-1.943,-1.943,-1.943,-1.943,-1.943,-1.943,-1.943,-1.9185,-1.9078,-1.9078,-1.8891,-1.8811,-1.8811,-1.8811,-1.8811,-3.0937,-3.0898,-3.0898,-3.0898,-3.0898,-3.0898,-3.0898,-3.0898,-3.0898,-3.0918,-3.0263,-2.9744,-2.9781,-2.8605,-2.7368,-2.6455,-2.5834,-2.4983,-2.3809,-2.3618,-2.3501,-2.3193,-2.3164,-2.3281,-2.3588,-2.3632,-2.3647,-2.3647,-2.391,-2.4086,-2.4101,-2.4101,-2.4115,-2.413,-2.4437,-2.4665,-2.4665,-2.4973,-2.5119,-2.5119,-2.5119,-2.5119,-2.5119,-2.5119,-2.5119,-2.5119,-2.5119,-2.5119,-2.5105,-2.4797,-2.4665,-2.4569,-2.4247,-2.413,-2.413,-2.413,-2.413,-2.4086,-2.3764,-2.3632,-2.3574,-2.3252,-2.3164,-2.3164,-2.3164,-2.3149,-2.3135,-2.3135,-2.312,-2.3106,-2.3106,-2.3106,-2.3106,-2.3106,-2.3106,-2.3106,-2.3106,-2.3106,-2.3106,-2.3106,-2.3106,-2.3106,-2.3106,-2.2857,-2.2652,-2.2652,-2.2086,-2.1583,-2.1254,-2.0651,-2.0348,-2.0651,-2.0409,-2.012,-1.984,-1.9826,-1.9706,-1.9484,-1.947,-1.947,-1.947,-1.947,-1.9399,-1.9444,-1.9444,-1.9386,-1.943,-1.943,-1.943,-1.943,-1.943,-1.943,-3.0898,-3.0898,-3.0898,-3.0898,-3.0898,-3.0898,-3.0898,-3.0898,-3.0976,-3.1289,-3.1459,-3.1645,-3.1892,-3.0049,-2.8443,-2.8162,-2.6087,-2.4342,-2.4019,-2.3954,-2.3925,-2.3837,-2.3837,-2.3866,-2.3954,-2.4174,-2.432,-2.432,-2.4174,-2.4188,-2.4437,-2.4437,-2.4554,-2.487,-2.4958,-2.5002,-2.5002,-2.509,-2.5119,-2.5119,-2.5119,-2.5119,-2.5119,-2.5119,-2.5119,-2.5119,-2.5119,-2.5119,-2.5119,-2.5031,-2.5002,-2.4987,-2.4914,-2.487,-2.487,-2.487,-2.487,-2.4826,-2.4437,-2.4159,-2.394,-2.3866,-2.3837,-2.3837,-2.3837,-2.3662,-2.3471,-2.3471,-2.3296,-2.3106,-2.3106,-2.3106,-2.3106,-2.3106,-2.3106,-2.3106,-2.3106,-2.3106,-2.3106,-2.3106,-2.3106,-2.3106,-2.3106,-2.3047,-2.2988,-2.2988,-2.242,-2.1774,-2.125,-2.0832,-2.053,-2.0348,-2.0227,-2.014,-2.0134,-2.012,-2.0094,-2.0013,-2.0013,-2.0013,-2.0013,-2.0013,-1.9907,-1.9693,-1.9693,-1.9586,-1.943,-1.943,-1.943,-1.943,-1.943,-1.943,-3.0957,-3.0898,-3.0898,-3.0898,-3.0898,-3.0937,-3.1133,-3.1172,-3.1289,-3.1719,-3.2148,-3.2519,-3.2754,-3.0628,-2.8815,-2.8987,-2.6385,-2.4291,-2.4291,-2.4291,-2.4247,-2.4101,-2.4086,-2.4145,-2.4276,-2.4466,-2.4627,-2.4841,-2.4679,-2.4583,-2.4841,-2.4855,-2.4929,-2.5119,-2.5119,-2.5119,-2.5119,-2.5119,-2.5119,-2.5119,-2.5119,-2.5119,-2.5119,-2.5119,-2.5119,-2.5119,0.0,-2.5119,-2.5119,-2.5119,-2.5119,-2.5119,-2.5119,-2.5119,-2.5119,-2.5119,-2.5119,-2.5105,-2.4914,-2.4723,-2.4466,-2.4174,-2.4086,-2.4086,-2.4086,-2.3954,-2.3808,-2.3808,-2.3676,-2.353,-2.353,-2.3427,-2.3325,-2.3325,-2.3208,-2.3106,-2.3106,-2.3106,-2.3106,-2.3106,-2.3106,-2.3106,-2.3106,-2.3106,-2.3106,-2.3106,-2.2793,-2.2352,-2.1888,-2.1293,-2.08,-2.0615,-2.0615,-2.0561,-2.0441,-2.0428,-2.0374,-2.0241,-2.0167,-2.0167,-2.0167,-2.0167,-2.016,-2.0,-1.9987,-1.9907,-1.9746,-1.9746,-1.9746,-1.9746,-1.9746,-1.9746,-3.0937,-3.0898,-3.0898,-3.0898,-3.0898,-3.0996,-3.1426,-3.1523,-3.166,-3.2148,-3.2539,-3.2812,-3.2871,-3.0827,-2.9129,-2.9196,-2.6767,-2.4893,-2.4694,-2.4709,-2.4525,-2.4247,-2.4218,-2.432,-2.4679,-2.4709,-2.4826,-2.5105,-2.5119,-2.5119,-2.5119,-2.5119,-2.5119,-2.5119,-2.5119,-2.5119,-2.5119,-2.5119,-2.5119,-2.5119,-2.5119,-2.5119,-2.5119,-2.5119,-2.5119,-2.5119,-2.5119,-2.5119,-2.5119,-2.5119,-2.5119,-2.5119,-2.5119,-2.5119,-2.5119,-2.5119,-2.5119,-2.5119,-2.5119,-2.5119,-2.5031,-2.4393,-2.4218,-2.4218,-2.4218,-2.4174,-2.4145,-2.4145,-2.4115,-2.4086,-2.4086,-2.3866,-2.3662,-2.3662,-2.3442,-2.3237,-2.3237,-2.3208,-2.3179,-2.3179,-2.3135,-2.3106,-2.3106,-2.3106,-2.3106,-2.3106,-2.3043,-2.2918,-2.2606,-2.179,-2.1235,-2.1172,-2.1109,-2.1002,-2.0762,-2.0735,-2.0628,-2.0361,-2.0347,-2.0347,-2.0347,-2.0347,-2.0273,-2.0294,-2.0294,-2.0207,-2.0167,-2.0167,-2.0167,-2.0167,-2.0167,-2.0167,-3.0898,-3.0898,-3.0898,-3.0898,-3.0898,-3.0996,-3.1426,-3.1523,-3.1738,-3.2519,-3.2734,-3.291,-3.3242,-3.1933,-3.0524,-2.9378,-2.7751,-2.6275,-2.5166,-2.5031,-2.5017,-2.4958,-2.4958,-2.4973,-2.5031,-2.5031,-2.5061,-2.5119,-2.5119,-2.5119,-2.5119,-2.5119,-2.5119,-2.5119,-2.5119,-2.5119,-2.5119,-2.5119,-2.5119,-2.5119,-2.5119,-2.5119,-2.5119,-2.5119,-2.5119,-2.5119,-2.5119,0.0,-2.5119,-2.5119,-2.5119,-2.5119,-2.5119,-2.5119,-2.5119,-2.5119,-2.5119,-2.5119,-2.5119,-2.5119,-2.5105,-2.4987,-2.4958,-2.4958,-2.4958,-2.4701,-2.4481,-2.4481,-2.4291,-2.4086,-2.4086,-2.4042,-2.3998,-2.3998,-2.3954,-2.391,-2.391,-2.3706,-2.3515,-2.3515,-2.3296,-2.3106,-2.3106,-2.3106,-2.3106,-2.3106,-2.2856,-2.2543,-2.223,-2.2041,-2.179,-2.1551,-2.1299,-2.1082,-2.1042,-2.1029,-2.1015,-2.0962,-2.0949,-2.0949,-2.0949,-2.0949,-2.0842,-2.0601,-2.0601,-2.0481,-2.0167,-2.0167,-2.0167,-2.0167,-2.0167,-2.0167,-3.0937,-3.0898,-3.0898,-3.0898,-3.0898,-3.1055,-3.1719,-3.1855,-3.209,-3.2949,-3.3125,-3.2932,-3.239,-3.113,-2.977,-2.8328,-2.6953,-2.5846,-2.5187,-2.5119,-2.5119,-2.5119,-2.5119,-2.5119,-2.5119,-2.5119,-2.5119,-2.5119,-2.5119,-2.5119,-2.5119,-2.5119,-2.5119,-2.5119,-2.5119,-2.5119,-2.5119,-2.5119,-2.5119,-2.5119,-2.5119,-2.5119,-2.5119,-2.5119,-2.5119,-2.5119,-2.5119,0.0,-2.5119,-2.5119,-2.5119,-2.5119,-2.5119,-2.5119,-2.5119,-2.5119,-2.5119,-2.5119,-2.5119,-2.5119,-2.5119,-2.5119,-2.5119,-2.5119,-2.5119,-2.5017,-2.4885,-2.4885,-2.4715,-2.4583,-2.4583,-2.4466,-2.4335,-2.4335,-2.4203,-2.4086,-2.4086,-2.3954,-2.3852,-2.3852,-2.372,-2.3618,-2.3618,-2.3618,-2.3559,-2.3384,-2.3243,-2.2981,-2.2634,-2.2292,-2.1915,-2.1425,-2.1172,-2.1109,-2.1109,-2.1109,-2.1109,-2.1109,-2.1109,-2.1109,-2.1109,-2.1109,-2.1042,-2.0909,-2.0895,-2.0828,-2.0695,-2.0695,-2.0695,-2.0695,-2.0695,-2.0695,-3.0937,-3.0898,-3.0898,-3.0898,-3.0898,-3.1113,-3.1973,-3.2229,-3.2402,-3.3242,-3.3418,-3.2956,-3.1579,-3.0419,-2.9117,-2.7419,-2.6234,-2.5457,-2.5119,-2.5119,-2.5119,-2.5119,-2.5119,-2.5119,-2.5119,-2.5119,-2.5119,-2.5119,-2.5119,-2.5119,-2.5119,-2.5119,-2.5119,-2.5119,-2.5119,-2.5119,-2.5119,-2.5119,-2.5119,-2.5119,-2.5119,-2.5119,-2.5119,-2.5119,-2.5119,-2.5119,-2.5119,-2.5119,0.0,-2.5119,-2.5119,-2.5119,-2.5119,-2.5119,-2.5119,-2.5119,-2.5119,-2.5119,-2.5119,-2.5119,-2.5119,-2.5119,-2.5119,-2.5119,-2.5119,-2.5119,-2.5119,-2.5119,-2.5119,-2.5119,-2.5119,-2.4929,-2.4738,-2.4738,-2.4481,-2.4291,-2.4291,-2.4232,-2.4188,-2.4188,-2.413,-2.4086,-2.4086,-2.4086,-2.3998,-2.3735,-2.3706,-2.3603,-2.3228,-2.268,-2.206,-2.1487,-2.1253,-2.1109,-2.1109,-2.1109,-2.1109,-2.1109,-2.1109,-2.1109,-2.1109,-2.1109,-2.1109,-2.1109,-2.1109,-2.1109,-2.1109,-2.1109,-2.1109,-2.1109,-2.1109,-2.1109,-3.0937,-3.0898,-3.0898,-3.0898,-3.0898,-3.1113,-3.1973,-3.2229,-3.2402,-3.3242,-3.3418,-3.2956,-3.1579,-3.1194,-3.0272,-2.7618,-2.702,-2.6501,-2.5255,-2.5119,-2.5119,-2.5119,-2.5119,-2.5119,-2.5119,-2.5119,-2.5119,-2.5119,-2.5119,-2.5119,-2.5119,-2.5119,-2.5119,-2.5119,-2.5119,-2.5119,-2.5119,-2.5119,-2.5119,-2.5119,-2.5119,-2.5119,-2.5119,-2.5119,-2.5119,-2.5119,-2.5119,-2.5119,0.0,-2.5119,-2.5119,-2.5119,-2.5119,-2.5119,-2.5119,-2.5119,-2.5119,-2.5119,-2.5119,-2.5119,-2.5119,-2.5119,-2.5119,-2.5119,-2.5119,-2.5119,-2.5119,-2.5119,-2.5119,-2.5119,-2.5119,-2.5105,-2.5075,-2.5075,-2.5061,-2.5031,-2.5031,-2.4797,-2.4525,-2.4525,-2.4291,-2.4086,-2.4086,-2.4086,-2.4071,-2.4042,-2.4042,-2.3898,-2.3609,-2.3204,-2.2748,-2.2421,-2.1622,-2.1109,-2.1109,-2.1109,-2.1109,-2.1109,-2.1109,-2.1109,-2.1109,-2.1109,-2.1109,-2.1109,-2.1109,-2.1109,-2.1109,-2.1109,-2.1109,-2.1109,-2.1109,-2.1109,-3.0937,-3.0898,-3.0898,-3.0898,-3.1074,-3.1426,-3.2031,-3.2363,-3.2715,-3.3301,-3.3418,-3.2702,-3.0484,-3.003,-2.9117,-2.6368,-2.5913,-2.5712,-2.5187,-2.5119,-2.5119,-2.5119,-2.5119,-2.5119,-2.5119,-2.5119,-2.5119,-2.5119,-2.5119,-2.5119,-2.5119,-2.5119,-2.5119,-2.5119,-2.5119,-2.5119,-2.5119,-2.5119,-2.5119,-2.5119,-2.5119,-2.5119,-2.5119,-2.5119,-2.5119,-2.5119,-2.5119,-2.5119,0.0,-2.5119,-2.5119,-2.5119,-2.5119,-2.5119,-2.5119,-2.5119,-2.5119,-2.5119,-2.5119,-2.5119,-2.5119,-2.5119,-2.5119,-2.5119,-2.5119,-2.5119,-2.5119,-2.5119,-2.5119,-2.5119,-2.5119,-2.5119,-2.5119,-2.5119,-2.5119,-2.5119,-2.5119,-2.5017,-2.4929,-2.4929,-2.4826,-2.4671,-2.4671,-2.4671,-2.4598,-2.4408,-2.4379,-2.4305,-2.392,-2.3355,-2.2962,-2.2831,-2.194,-2.1376,-2.1376,-2.1216,-2.1109,-2.1109,-2.1109,-2.1109,-2.1109,-2.1109,-2.1109,-2.1109,-2.1109,-2.1109,-2.1109,-2.1109,-2.1109,-2.1109,-2.1109,-2.1109,-3.1112,-3.0937,-3.0898,-3.0898,-3.1211,-3.1621,-3.207,-3.25,-3.291,-3.334,-3.3418,-3.2511,-2.9705,-2.9182,-2.8262,-2.551,-2.5119,-2.5119,-2.5119,-2.5119,-2.5119,-2.5119,-2.5119,-2.5119,-2.5119,-2.5119,-2.5119,-2.5119,-2.5119,-2.5119,-2.5119,-2.5119,-2.5119,-2.5119,-2.5119,-2.5119,-2.5119,-2.5119,-2.5119,-2.5119,-2.5119,-2.5119,-2.5119,-2.5119,-2.5119,-2.5119,-2.5119,-2.5119,0.0,-2.5119,-2.5119,-2.5119,-2.5119,-2.5119,-2.5119,-2.5119,-2.5119,-2.5119,-2.5119,-2.5119,-2.5119,-2.5119,-2.5119,-2.5119,-2.5119,-2.5119,-2.5119,-2.5119,-2.5119,-2.5119,-2.5119,-2.5119,-2.5119,-2.5119,-2.5119,-2.5119,-2.5119,-2.5119,-2.5119,-2.5119,-2.5119,-2.5119,-2.5119,-2.5119,-2.4979,-2.4611,-2.4582,-2.4494,-2.4261,-2.3573,-2.3161,-2.3308,-2.2438,-2.1777,-2.1762,-2.1496,-2.1336,-2.1243,-2.1243,-2.1203,-2.1109,-2.1109,-2.1109,-2.1109,-2.1109,-2.1109,-2.1109,-2.1109,-2.1109,-2.1109,-2.1109,-2.1109,-3.1383,-3.1112,-3.0898,-3.0898,-3.1211,-3.1621,-3.207,-3.25,-3.291,-3.334,-3.3418,-3.2511,-2.9705,-2.9182,-2.8262,-2.551,-2.5119,-2.5119,-2.5119,-2.5119,-2.5119,-2.5119,-2.5119,-2.5119,-2.5119,-2.5119,-2.5119,-2.5119,-2.5119,-2.5119,-2.5119,-2.5119,-2.5119,-2.5119,-2.5119,-2.5119,-2.5119,-2.5119,-2.5119,-2.5119,-2.5119,-2.5119,-2.5119,-2.5119,-2.5119,-2.5119,-2.5119,0.0,0.0,-2.5119,-2.5119,-2.5119,-2.5119,-2.5119,-2.5119,-2.5119,-2.5119,-2.5119,-2.5119,-2.5119,-2.5119,-2.5119,-2.5119,-2.5119,-2.5119,-2.5119,-2.5119,-2.5119,-2.5119,-2.5119,-2.5119,-2.5119,-2.5119,-2.5119,-2.5119,-2.5119,-2.5119,-2.5119,-2.5119,-2.5119,-2.5119,-2.5119,-2.5119,-2.5119,-2.4984,-2.4563,-2.4495,-2.4495,-2.4495,-2.387,-2.3529,-2.3952,-2.3065,-2.2298,-2.2004,-2.1977,-2.1857,-2.1628,-2.1614,-2.148,-2.1122,-2.1109,-2.1109,-2.1109,-2.1109,-2.1109,-2.1109,-2.1109,-2.1109,-2.1109,-2.1109,-2.1109,-3.1383,-3.1208,-3.1112,-3.0957,-3.1426,-3.1992,-3.2148,-3.2715,-3.3262,-3.3398,-3.3418,-3.2511,-2.9705,-2.9182,-2.8262,-2.551,-2.5119,-2.5119,-2.5119,-2.5119,-2.5119,-2.5119,-2.5119,-2.5119,-2.5119,-2.5119,-2.5119,-2.5119,-2.5119,-2.5119,-2.5119,-2.5119,-2.5119,-2.5119,-2.5119,-2.5119,-2.5119,-2.5119,-2.5119,-2.5119,-2.5119,-2.5119,-2.5119,-2.5119,-2.5119,-2.5119,-2.5119,0.0,0.0,-2.5119,-2.5119,-2.5119,-2.5119,-2.5119,-2.5119,-2.5119,-2.5119,-2.5119,-2.5119,-2.5119,-2.5119,-2.5119,-2.5119,-2.5119,-2.5119,-2.5119,-2.5119,-2.5119,-2.5119,-2.5119,-2.5119,-2.5119,-2.5119,-2.5119,-2.5119,-2.5119,-2.5119,-2.5119,-2.5119,-2.5119,-2.5119,-2.5119,-2.5119,-2.5119,-2.5052,-2.4916,-2.4713,-2.4495,-2.4495,-2.3884,-2.3475,-2.3611,-2.3052,-2.2605,-2.2311,-2.2098,-2.1951,-2.1857,-2.1844,-2.1804,-2.171,-2.171,-2.1617,-2.148,-2.1416,-2.1309,-2.1109,-2.1109,-2.1109,-2.1109,-2.1109,-2.1109,-3.1672,-3.1441,-3.1112,-3.1054,-3.1642,-3.2229,-3.2229,-3.2812,-3.3418,-3.3418,-3.3418,-3.2511,-2.9705,-2.9182,-2.8262,-2.551,-2.5119,-2.5119,-2.5119,-2.5119,-2.5119,-2.5119,-2.5119,-2.5119,-2.5119,-2.5119,-2.5119,-2.5119,-2.5119,-2.5119,-2.5119,-2.5119,-2.5119,-2.5119,-2.5119,-2.5119,-2.5119,-2.5119,-2.5119,-2.5119,-2.5119,-2.5119,-2.5119,-2.5119,-2.5119,-2.5119,-2.5119,0.0,0.0,-2.5119,-2.5119,-2.5119,-2.5119,-2.5119,-2.5119,-2.5119,-2.5119,-2.5119,-2.5119,-2.5119,-2.5119,-2.5119,-2.5119,-2.5119,-2.5119,-2.5119,-2.5119,-2.5119,-2.5119,-2.5119,-2.5119,-2.5119,-2.5119,-2.5119,-2.5119,-2.5119,-2.5119,-2.5119,-2.5119,-2.5119,-2.5119,-2.5119,-2.5119,-2.5119,-2.5052,-2.4916,-2.4578,-2.4306,-2.4306,-2.3679,-2.327,-2.3406,-2.3133,-2.2792,-2.2605,-2.2418,-2.2271,-2.2151,-2.2151,-2.2098,-2.1991,-2.1991,-2.1897,-2.1724,-2.1775,-2.163,-2.1443,-2.1336,-2.1216,-2.1109,-2.1109,-2.1109,0.0,-3.1634,-3.0995,-3.1208,-3.1761,-3.2229,-3.2229,-3.275,0.0,-3.3355,-3.3292,-3.2447,-2.9705,-2.9182,-2.8262,-2.551,-2.5119,-2.5119,-2.5119,-2.5119,-2.5119,-2.5119,-2.5119,-2.5119,-2.5119,-2.5119,-2.5119,-2.5119,-2.5119,-2.5119,-2.5119,-2.5119,-2.5119,-2.5119,-2.5119,-2.5119,-2.5119,-2.5119,-2.5119,-2.5119,-2.5119,-2.5119,-2.5119,-2.5119,-2.5119,0.0,0.0,0.0,0.0,-2.5119,-2.5119,-2.5119,-2.5119,-2.5119,-2.5119,-2.5119,-2.5119,-2.5119,-2.5119,-2.5119,-2.5119,-2.5119,-2.5119,-2.5119,-2.5119,-2.5119,-2.5119,-2.5119,-2.5119,-2.5119,-2.5119,-2.5119,-2.5119,-2.5119,-2.5119,-2.5119,-2.5119,-2.5119,-2.5119,-2.5119,-2.5119,-2.5119,-2.5119,-2.5119,-2.4984,-2.4578,-2.4224,-2.4034,-2.4034,-2.3338,-2.2996,-2.3338,-2.3065,-2.2928,-2.2928,-2.2928,-2.2739,-2.2472,-2.2458,-2.2325,-2.2058,-2.2044,-2.2031,-2.2017,-2.1991,-2.1991,-2.1991,-2.1775,-2.1443,-2.1176,-2.1149,-2.1149,-3.2076,0.0,-3.117,-3.1054,-3.1583,-3.2229,0.0,-3.1984,-3.211,-3.3165,-3.2556,-3.1258,-2.9509,-2.9182,-2.8262,-2.551,-2.5119,-2.5119,-2.5119,-2.5119,-2.5119,-2.5119,-2.5119,-2.5119,-2.5119,-2.5119,-2.5119,-2.5119,-2.5119,-2.5119,-2.5119,-2.5119,-2.5119,-2.5119,-2.5119,-2.5119,-2.5119,-2.5119,-2.5119,-2.5119,-2.5119,-2.5119,-2.5119,-2.5119,-2.5119,0.0,0.0,0.0,-2.5119,-2.5119,-2.5119,-2.5119,-2.5119,-2.5119,-2.5119,-2.5119,-2.5119,-2.5119,-2.5119,-2.5119,-2.5119,-2.5119,-2.5119,-2.5119,-2.5119,-2.5119,-2.5119,-2.5119,-2.5119,-2.5119,-2.5119,-2.5119,-2.5119,-2.5119,-2.5119,-2.5119,-2.5119,-2.5119,-2.5119,-2.5119,-2.5119,-2.5119,-2.5119,-2.5119,-2.5052,-2.4984,-2.4442,-2.4034,-2.4034,-2.3338,-2.2928,-2.2996,-2.2928,-2.2928,-2.2928,-2.2928,-2.2901,-2.2766,-2.2752,-2.2726,-2.2659,-2.2659,-2.2552,-2.2325,-2.2098,-2.1991,-2.1991,-2.1924,-2.1844,-2.1777,-2.155,-2.1443,-3.1845,-3.1614,-3.1112,-3.1112,-3.1505,-3.1914,-3.2129,-3.208,-3.2264,-3.3189,-3.2765,-3.1643,-2.9574,-2.9182,-2.8262,-2.551,-2.5119,-2.5119,-2.5119,-2.5119,-2.5119,-2.5119,-2.5119,-2.5119,-2.5119,-2.5119,-2.5119,-2.5119,-2.5119,-2.5119,-2.5119,-2.5119,-2.5119,-2.5119,-2.5119,-2.5119,-2.5119,-2.5119,-2.5119,-2.5119,-2.5119,-2.5119,-2.5119,-2.5119,-2.5119,0.0,0.0,0.0,-2.5119,-2.5119,-2.5119,-2.5119,-2.5119,-2.5119,-2.5119,-2.5119,-2.5119,-2.5119,-2.5119,-2.5119,-2.5119,-2.5119,-2.5119,-2.5119,-2.5119,-2.5119,-2.5119,-2.5119,-2.5119,-2.5119,-2.5119,-2.5119,-2.5119,-2.5119,-2.5119,-2.5119,-2.5119,-2.5119,-2.5119,-2.5119,-2.5119,-2.5052,-2.4849,-2.4984,-2.5052,-2.4849,-2.4374,-2.4034,-2.4034,-2.3338,-2.2928,-2.2928,-2.2928,-2.2928,-2.2928,-2.2928,-2.2928,-2.2928,-2.2928,-2.2928,-2.2928,-2.2928,-2.2792,-2.2619,-2.2472,-2.2325,-2.2178,-2.2178,-2.2111,-2.1977,-2.1817,-2.175,-3.1614,-3.1344,-3.0937,-3.117,-3.1368,-3.1621,-3.207,-3.2358,-3.2661,-3.3277,-3.3038,-3.2046,-2.9639,-2.9182,-2.8262,-2.551,-2.5119,-2.5119,-2.5119,-2.5119,-2.5119,-2.5119,-2.5119,-2.5119,-2.5119,-2.5119,-2.5119,-2.5119,-2.5119,-2.5119,-2.5119,-2.5119,-2.5119,-2.5119,-2.5119,-2.5119,-2.5119,-2.5119,-2.5119,-2.5119,-2.5119,-2.5119,-2.5119,-2.5119,-2.5119,-2.5119,0.0,0.0,-2.5119,-2.5119,-2.5119,-2.5119,-2.5119,-2.5119,-2.5119,-2.5119,-2.5119,-2.5119,-2.5119,-2.5119,-2.5119,-2.5119,-2.5119,-2.5119,-2.5119,-2.5119,-2.5119,-2.5119,-2.5119,-2.5119,-2.5119,-2.5119,-2.5119,-2.5119,-2.5119,-2.5119,-2.5119,-2.5119,-2.5119,-2.5119,-2.5119,-2.4984,-2.4578,-2.4849,-2.4984,-2.4563,-2.4224,-2.4034,-2.4034,-2.3338,-2.2928,-2.2928,-2.2928,-2.2928,-2.2928,-2.2928,-2.2928,-2.2928,-2.2928,-2.2928,-2.2928,-2.2928,-2.2928,-2.2928,-2.2928,-2.2739,-2.2485,-2.2485,-2.2365,-2.2124,-2.2071,-2.2044,-3.1614,-3.1344,-3.0898,-3.0937,-3.1211,-3.1621,-3.207,-3.1598,-3.1477,-3.3068,-3.1534,-2.9705,-2.9248,-2.9182,-2.8262,-2.551,-2.5119,-2.5119,-2.5119,-2.5119,-2.5119,-2.5119,-2.5119,-2.5119,-2.5119,-2.5119,-2.5119,-2.5119,-2.5119,-2.5119,-2.5119,-2.5119,-2.5119,-2.5119,-2.5119,-2.5119,-2.5119,-2.5119,-2.5119,-2.5119,-2.5119,-2.5119,-2.5119,-2.5119,-2.5119,-2.5119,0.0,-2.5119,-2.5119,-2.5119,-2.5119,-2.5119,-2.5119,-2.5119,-2.5119,-2.5119,-2.5119,-2.5119,-2.5119,-2.5119,-2.5119,-2.5119,-2.5119,-2.5119,-2.5119,-2.5119,-2.5119,-2.5119,-2.5119,-2.5119,-2.5119,-2.5119,-2.5119,-2.5119,-2.5119,-2.5119,-2.5119,-2.5119,-2.5119,-2.5119,-2.5119,-2.4984,-2.4578,-2.4849,-2.4984,-2.4563,-2.4224,-2.4034,-2.4034,-2.3338,-2.2928,-2.2928,-2.2928,-2.2928,-2.2928,-2.2928,-2.2928,-2.2928,-2.2928,-2.2928,-2.2928,-2.2928,-2.2928,-2.2928,-2.2928,-2.2846,-2.2792,-2.2792,-2.2766,-2.2794,-2.2472,-2.2352,-3.1614,-3.1344,-3.0898,-3.0898,-3.1035,-3.1289,-3.1719,-3.1642,-3.1612,-3.1885,-3.1112,-2.99,-2.8328,-2.8657,-2.8526,-2.6501,-2.5577,-2.5119,-2.5119,-2.5119,-2.5119,-2.5119,-2.5119,-2.5119,-2.5119,-2.5119,-2.5119,-2.5119,-2.5119,-2.5119,-2.5119,-2.5119,-2.5119,-2.5119,-2.5119,-2.5119,-2.5119,-2.5119,-2.5119,-2.5119,-2.5119,-2.5119,-2.5119,-2.5119,-2.5119,-2.5119,0.0,-2.5119,-2.5119,-2.5119,-2.5119,-2.5119,-2.5119,-2.5119,-2.5119,-2.5119,-2.5119,-2.5119,-2.5119,-2.5119,-2.5119,-2.5119,-2.5119,-2.5119,-2.5119,-2.5119,-2.5119,-2.5119,-2.5119,-2.5119,-2.5119,-2.5119,-2.5119,-2.5119,-2.5119,-2.5119,-2.5119,-2.5119,-2.5119,-2.5119,-2.5119,-2.4916,-2.4292,-2.451,-2.4645,-2.4292,-2.4088,-2.4034,-2.4034,-2.3475,-2.3133,-2.2928,-2.2928,-2.2928,-2.2928,-2.2928,-2.2928,-2.2928,-2.2928,-2.2928,-2.2928,-2.2928,-2.2928,-2.2928,-2.2928,-2.2928,-2.2928,-2.2928,-2.2928,-2.2928,-2.2726,-2.2659,-3.1614,-3.1344,-3.0898,-3.0898,-3.0898,-3.0996,-3.1426,-3.1855,-3.1899,-3.0895,-3.1047,-3.0531,-2.8065,-2.8196,-2.846,-2.7734,-2.6167,-2.5119,-2.5119,-2.5119,-2.5119,-2.5119,-2.5119,-2.5119,-2.5119,-2.5119,-2.5119,-2.5119,-2.5119,-2.5119,-2.5119,-2.5119,-2.5119,-2.5119,-2.5119,-2.5119,-2.5119,-2.5119,-2.5119,-2.5119,-2.5119,-2.5119,-2.5119,-2.5119,-2.5119,-2.5119,-2.5119,-2.5119,-2.5119,-2.5119,-2.5119,-2.5119,-2.5119,-2.5119,-2.5119,-2.5119,-2.5119,-2.5119,-2.5119,-2.5119,-2.5119,-2.5119,-2.5119,-2.5119,-2.5119,-2.5119,-2.5119,-2.5119,-2.5119,-2.5119,-2.5119,-2.5119,-2.5119,-2.5119,-2.5119,-2.5119,-2.5119,-2.5119,-2.5119,-2.5119,-2.5119,-2.4849,-2.417,-2.4292,-2.4374,-2.4034,-2.4034,-2.4034,-2.4034,-2.3679,-2.327,-2.2928,-2.2928,-2.2928,-2.2928,-2.2928,-2.2928,-2.2928,-2.2928,-2.2928,-2.2928,-2.2928,-2.2928,-2.2928,-2.2928,-2.2928,-2.2928,-2.2928,-2.2928,-2.2928,-2.2928,-2.2928,-3.1614,-3.1344,-3.0898,-3.0898,-3.0898,-3.0996,-3.1426,-3.1855,-3.1899,-3.0895,-3.1047,-3.0854,-2.9313,-2.8065,-2.7668,-2.8854,-2.6835,-2.5119,-2.5119,-2.5119,-2.5119,-2.5119,-2.5119,-2.5119,-2.5119,-2.5119,-2.5119,-2.5119,-2.5119,-2.5119,-2.5119,-2.5119,-2.5119,-2.5119,-2.5119,-2.5119,-2.5119,-2.5119,-2.5119,-2.5119,-2.5119,-2.5119,-2.5119,-2.5119,-2.5119,-2.5119,-2.5119,-2.5119,-2.5119,-2.5119,-2.5119,-2.5119,-2.5119,-2.5119,-2.5119,-2.5119,-2.5119,-2.5119,-2.5119,-2.5119,-2.5119,-2.5119,-2.5119,-2.5119,-2.5119,-2.5119,-2.5119,-2.5119,-2.5119,-2.5119,-2.5119,-2.5119,-2.5119,-2.5119,-2.5119,-2.5119,-2.5119,-2.5119,-2.5119,-2.5119,-2.5119,-2.4849,-2.417,-2.4292,-2.4374,-2.4034,-2.4034,-2.4034,-2.4034,-2.3679,-2.327,-2.2928,-2.2928,-2.2928,-2.2928,-2.2928,-2.2928,-2.2928,-2.2928,-2.2928,-2.2928,-2.2928,-2.2928,-2.2928,-2.2928,-2.2928,-2.2928,-2.2928,-2.2928,-2.2928,-2.2928,-2.2928,-3.1614,-3.1344,-3.0898,-3.0898,-3.0898,-3.0937,-3.1094,-3.1041,-3.0822,-3.0394,-3.0165,-2.9835,-2.9313,-2.8065,-2.7286,-2.7883,-2.6368,-2.5119,-2.5119,-2.5119,-2.5119,-2.5119,-2.5119,-2.5119,-2.5119,-2.5119,-2.5119,-2.5119,-2.5119,-2.5119,-2.5119,-2.5119,-2.5119,-2.5119,-2.5119,-2.5119,-2.5119,-2.5119,-2.5119,-2.5119,-2.5119,-2.5119,-2.5119,-2.5119,-2.5119,-2.5119,-2.5119,-2.5119,-2.5119,-2.5119,-2.5119,-2.5119,-2.5119,-2.5119,-2.5119,-2.5119,-2.5119,-2.5119,-2.5119,-2.5119,-2.5119,-2.5119,-2.5119,-2.5119,-2.5119,-2.5119,-2.5119,-2.5119,-2.5119,-2.5119,-2.5119,-2.5119,-2.5119,-2.5119,-2.5119,-2.5119,-2.5119,-2.5119,-2.5119,-2.5119,-2.5119,-2.4849,-2.417,-2.4102,-2.4088,-2.3679,-2.3816,-2.3884,-2.3679,-2.3679,-2.3543,-2.2928,-2.2928,-2.2928,-2.2928,-2.2928,-2.2928,-2.2928,-2.2928,-2.2928,-2.2928,-2.2928,-2.2928,-2.2928,-2.2928,-2.2928,-2.2928,-2.2928,-2.2928,-2.2928,-2.2928,-2.2928,-3.1498,-3.1286,-3.0898,-3.0898,-3.0898,-3.0898,-3.0898,-3.0806,-3.0519,-2.9635,-2.9311,-2.9313,-2.977,-2.8328,-2.7153,-2.7153,-2.5981,-2.5119,-2.5119,-2.5119,-2.5119,-2.5119,-2.5119,-2.5119,-2.5119,-2.5119,-2.5119,-2.5119,-2.5119,-2.5119,-2.5119,-2.5119,-2.5119,-2.5119,-2.5119,-2.5119,-2.5119,-2.5119,-2.5119,-2.5119,-2.5119,-2.5119,-2.5119,-2.5119,-2.5119,-2.5119,-2.5119,-2.5119,-2.5119,-2.5119,-2.5119,-2.5119,-2.5119,-2.5119,-2.5119,-2.5119,-2.5119,-2.5119,-2.5119,-2.5119,-2.5119,-2.5119,-2.5119,-2.5119,-2.5119,-2.5119,-2.5119,-2.5119,-2.5119,-2.5119,-2.5119,-2.5119,-2.5119,-2.5119,-2.5119,-2.5119,-2.5119,-2.5119,-2.5119,-2.5119,-2.5119,-2.4916,-2.4306,-2.4088,-2.3884,-2.3611,-2.3747,-2.3747,-2.3611,-2.3747,-2.3543,-2.2996,-2.2928,-2.2928,-2.2928,-2.2928,-2.2928,-2.2928,-2.2928,-2.2928,-2.2928,-2.2928,-2.2928,-2.2928,-2.2928,-2.2928,-2.2928,-2.2928,-2.2928,-2.2928,-2.2928,-2.2928,-3.1208,-3.1112,-3.0898,-3.0898,-3.0898,-3.0898,-3.0898,-3.1543,-3.1417,-2.8699,-2.8734,-2.9639,-3.1047,-2.8969,-2.7086,-2.7086,-2.5981,-2.5119,-2.5119,-2.5119,-2.5119,-2.5119,-2.5119,-2.5119,-2.5119,-2.5119,-2.5119,-2.5119,-2.5119,-2.5119,-2.5119,-2.5119,-2.5119,-2.5119,-2.5119,-2.5119,-2.5119,-2.5119,-2.5119,-2.5119,-2.5119,-2.5119,-2.5119,-2.5119,-2.5119,-2.5119,-2.5119,-2.5119,-2.5119,-2.5119,-2.5119,-2.5119,-2.5119,-2.5119,-2.5119,-2.5119,-2.5119,-2.5119,-2.5119,-2.5119,-2.5119,-2.5119,-2.5119,-2.5119,-2.5119,-2.5119,-2.5119,-2.5119,-2.5119,-2.5119,-2.5119,-2.5119,-2.5119,-2.5119,-2.5119,-2.5119,-2.5119,-2.5119,-2.5119,-2.5119,-2.5119,-2.4984,-2.4578,-2.4224,-2.4034,-2.3952,-2.3679,-2.3543,-2.3966,-2.3679,-2.327,-2.2928,-2.2928,-2.2928,-2.2928,-2.2928,-2.2928,-2.2928,-2.2928,-2.2928,-2.2928,-2.2928,-2.2928,-2.2928,-2.2928,-2.2928,-2.2928,-2.2928,-2.2928,-2.2928,-2.2928,-2.2928,-3.0119,-3.0431,-3.0898,-3.0898,-3.0898,-3.0645,-2.9726,-3.0106,-3.0668,-3.0402,-3.0498,-3.0484,-2.9965,-2.8328,-2.682,-2.5846,-2.539,-2.5119,-2.5119,-2.5119,-2.5119,-2.5119,-2.5119,-2.5119,-2.5119,-2.5119,-2.5119,-2.5119,-2.5119,-2.5119,-2.5119,-2.5119,-2.5119,-2.5119,-2.5119,-2.5119,-2.5119,-2.5119,-2.5119,-2.5119,-2.5119,-2.5119,-2.5119,-2.5119,-2.5119,-2.5119,-2.5119,-2.5119,-2.5119,-2.5119,-2.5119,-2.5119,-2.5119,-2.5119,-2.5119,-2.5119,-2.5119,-2.5119,-2.5119,-2.5119,-2.5119,-2.5119,-2.5119,-2.5119,-2.5119,-2.5119,-2.5119,-2.5119,-2.5119,-2.5119,-2.5119,-2.5119,-2.5119,-2.5119,-2.5119,-2.5119,-2.5119,-2.5119,-2.5119,-2.5119,-2.5119,-2.4984,-2.4578,-2.4224,-2.3884,-2.3611,-2.3475,-2.3543,-2.3966,-2.3406,-2.3133,-2.327,-2.3065,-2.2928,-2.2928,-2.2928,-2.2928,-2.2928,-2.2928,-2.2928,-2.2928,-2.2928,-2.2928,-2.2928,-2.2928,-2.2928,-2.2928,-2.2928,-2.2928,-2.2928,-2.2928,-2.2928,-3.002,-3.045,-3.0898,-3.0898,-3.0898,-3.0742,-3.0111,-3.0037,-3.0351,-3.1157,-3.0854,-3.0012,-2.8657,-2.7219,-2.6032,-2.5255,-2.5119,-2.5119,-2.5119,-2.5119,-2.5119,-2.5119,-2.5119,-2.5119,-2.5119,-2.5119,-2.5119,-2.5119,-2.5119,-2.5119,-2.5119,-2.5119,-2.5119,-2.5119,-2.5119,-2.5119,-2.5119,-2.5119,-2.5119,-2.5119,-2.5119,-2.5119,-2.5119,-2.5119,-2.5119,-2.5119,-2.5119,-2.5119,-2.5119,-2.5119,-2.5119,-2.5119,-2.5119,-2.5119,-2.5119,-2.5119,-2.5119,-2.5119,-2.5119,-2.5119,-2.5119,-2.5119,-2.5119,-2.5119,-2.5119,-2.5119,-2.5119,-2.5119,-2.5119,-2.5119,-2.5119,-2.5119,-2.5119,-2.5119,-2.5119,-2.5119,-2.5119,-2.5119,-2.5119,-2.5119,-2.5119,-2.4984,-2.4781,-2.4306,-2.3898,-2.3679,-2.3475,-2.3406,-2.3543,-2.327,-2.3133,-2.3201,-2.2996,-2.2928,-2.2928,-2.2928,-2.2928,-2.2928,-2.2928,-2.2928,-2.2928,-2.2928,-2.2928,-2.2928,-2.2928,-2.2928,-2.2928,-2.2928,-2.2928,-2.2928,-2.2928,-2.2928,-3.0392,-3.082,-3.0879,-3.0762,-3.0704,-3.082,-3.1228,-3.0709,-3.0394,-3.1102,-3.006,-2.8592,-2.7352,-2.5965,-2.5119,-2.5255,-2.5255,-2.5255,-2.5255,-2.5255,-2.5255,-2.5119,-2.5119,-2.5119,-2.5119,-2.5119,-2.5119,-2.5119,-2.5119,-2.5119,-2.5119,-2.5119,-2.5119,-2.5119,-2.5119,-2.5119,-2.5119,-2.5119,-2.5119,-2.5119,-2.5119,-2.5119,-2.5119,-2.5119,-2.5119,-2.5119,-2.5119,-2.5119,-2.5119,-2.5119,-2.5119,-2.5119,-2.5119,-2.5119,-2.5119,-2.5119,-2.5119,-2.5119,-2.5119,-2.5119,-2.5119,-2.5119,-2.5119,-2.5119,-2.5119,-2.5119,-2.5119,-2.5119,-2.5119,-2.5119,-2.5119,-2.5119,-2.5119,-2.5119,-2.5119,-2.5119,-2.5119,-2.5119,-2.5119,-2.5119,-2.5119,-2.5119,-2.5119,-2.451,-2.402,-2.3952,-2.3611,-2.327,-2.2996,-2.3201,-2.327,-2.2996,-2.2928,-2.2928,-2.2928,-2.2928,-2.2928,-2.2928,-2.2928,-2.2928,-2.2928,-2.2928,-2.2928,-2.2928,-2.2928,-2.2928,-2.2928,-2.2928,-2.2928,-2.2928,-2.2928,-2.2928,-2.9235,-3.0098,-3.0645,-2.9589,-2.9353,-2.9465,-2.9934,-3.01,-3.0277,-3.0754,-2.909,-2.7485,-2.7153,-2.5965,-2.5457,-2.6501,-2.6686,-2.6686,-2.6686,-2.6686,-2.6301,-2.5255,-2.5119,-2.5119,-2.5119,-2.5119,-2.5119,-2.5119,-2.5119,-2.5119,-2.5119,-2.5119,-2.5119,-2.5119,-2.5119,-2.5119,-2.5119,-2.5119,-2.5119,0.0,-2.5119,-2.5119,-2.5119,-2.5119,-2.5119,-2.5119,-2.5119,-2.5119,-2.5119,-2.5119,-2.5119,-2.5119,-2.5119,-2.5119,-2.5119,-2.5119,-2.5119,-2.5119,-2.5119,-2.5119,-2.5119,-2.5119,-2.5119,-2.5119,-2.5119,-2.5119,-2.5119,-2.5119,-2.5119,-2.5119,-2.5119,-2.5119,-2.5119,-2.5119,-2.5119,-2.5119,-2.5119,-2.5119,-2.5119,-2.5119,-2.5119,-2.5119,-2.5119,-2.4713,-2.4224,-2.3611,-2.3201,-2.3065,-2.327,-2.3133,-2.3065,-2.327,-2.3065,-2.2928,-2.2928,-2.2928,-2.2928,-2.2928,-2.2928,-2.2928,-2.2928,-2.2928,-2.2928,-2.2928,-2.2928,-2.2928,-2.2928,-2.2928,-2.2928,-2.2928,-2.2928,-2.2928,-2.8742,-2.9903,-3.0587,-2.9235,-2.9412,-2.9783,-2.9375,-2.9202,-2.9128,-2.9385,-2.8207,-2.7086,-2.7086,-2.6501,-2.6301,-2.702,-2.7153,-2.6886,-2.6234,-2.6167,-2.5913,-2.5187,-2.5119,-2.5119,-2.5119,-2.5119,-2.5119,-2.5119,-2.5119,-2.5119,-2.5119,-2.5119,-2.5119,-2.5119,-2.5119,-2.5119,-2.5119,-2.5119,-2.5119,-2.5119,-2.5119,-2.5119,-2.5119,-2.5119,-2.5119,-2.5119,-2.5119,-2.5119,-2.5119,-2.5119,-2.5119,-2.5119,-2.5119,-2.5119,-2.5119,-2.5119,-2.5119,-2.5119,-2.5119,-2.5119,-2.5119,-2.5119,-2.5119,-2.5119,-2.5119,-2.5119,-2.5119,-2.5119,-2.5119,-2.5119,-2.5119,-2.5119,-2.5119,-2.5119,-2.5119,-2.5119,-2.5119,-2.5119,-2.5119,-2.5119,-2.5119,-2.5119,-2.5119,-2.4645,-2.4088,-2.3475,-2.3133,-2.2928,-2.3133,-2.2996,-2.2996,-2.3133,-2.2996,-2.2928,-2.2928,-2.2928,-2.2928,-2.2928,-2.2928,-2.2928,-2.2928,-2.2928,-2.2928,-2.2928,-2.2928,-2.2928,-2.2928,-2.2928,-2.2928,-2.2928,-2.2928,-2.2928,-2.8206,-2.9353,-2.9981,-2.8861,-2.9431,-2.9922,-2.8801,-2.8246,-2.7929,-2.7676,-2.7182,-2.682,-2.7086,-2.7086,-2.7153,-2.7419,-2.7485,-2.7035,-2.5644,-2.5457,-2.539,-2.5119,-2.5119,-2.5119,-2.5119,-2.5119,-2.5119,-2.5119,-2.5119,-2.5119,-2.5119,-2.5119,-2.5119,-2.5119,-2.5119,-2.5119,-2.5119,-2.5119,-2.5119,-2.5119,-2.5119,-2.5119,-2.5119,-2.5119,-2.5119,-2.5119,-2.5119,-2.5119,-2.5119,-2.5119,-2.5119,-2.5119,-2.5119,-2.5119,-2.5119,-2.5119,-2.5119,-2.5119,-2.5119,-2.5119,-2.5119,-2.5119,-2.5119,-2.5119,-2.5119,-2.5119,-2.5119,-2.5119,-2.5119,-2.5119,-2.5119,-2.5119,-2.5119,-2.5119,-2.5119,-2.5119,-2.5119,-2.5119,-2.5119,-2.5119,-2.5119,-2.5052,-2.4984,-2.451,-2.3952,-2.3543,-2.3201,-2.2996,-2.2928,-2.2928,-2.2928,-2.2928,-2.2928,-2.2928,-2.2928,-2.2928,-2.2928,-2.2928,-2.2928,-2.2928,-2.2928,-2.2928,-2.2928,-2.2928,-2.2928,-2.2928,-2.2928,-2.2928,-2.2928,-2.2928,-2.2928,-2.2928,-2.6883,-2.7383,-2.7504,-2.7323,-2.7383,-2.7504,-2.7323,-2.771,-2.7756,-2.6487,-2.5773,-2.5712,-2.6886,-2.7086,-2.7485,-2.8723,-2.892,-2.846,-2.702,-2.682,-2.6435,-2.5255,-2.5119,-2.5119,-2.5119,-2.5119,-2.5119,-2.5119,-2.5119,-2.5119,-2.5119,-2.5119,-2.5119,-2.5119,-2.5119,-2.5119,-2.5119,-2.5119,-2.5119,-2.5119,-2.5119,-2.5119,-2.5119,-2.5119,-2.5119,-2.5119,-2.5119,-2.5119,-2.5119,-2.5119,-2.5119,-2.5119,-2.5119,-2.5119,-2.5119,-2.5119,-2.5119,-2.5119,-2.5119,-2.5119,-2.5119,-2.5119,-2.5119,-2.5119,-2.5119,-2.5119,-2.5119,-2.5119,-2.5119,-2.5119,-2.5119,-2.5119,-2.5119,-2.5119,-2.5119,-2.5119,-2.5119,-2.5119,-2.5119,-2.5119,-2.5119,-2.4984,-2.4645,-2.4495,-2.4292,-2.3952,-2.3611,-2.3201,-2.2928,-2.2928,-2.2928,-2.2928,-2.2928,-2.2928,-2.2928,-2.2928,-2.2928,-2.2928,-2.2928,-2.2928,-2.2928,-2.2928,-2.2928,-2.2928,-2.2928,-2.2928,-2.2928,-2.2928,-2.2928,-2.2928,-2.2928,-2.2928,-2.6641,-2.7486,-2.7727,-2.6277,-2.7004,-2.7847,-2.7125,-2.7432,-2.7611,-2.7201,-2.6452,-2.6335,-2.7966,-2.8262,-2.8723,-3.016,-3.0419,-2.9622,-2.7419,-2.7086,-2.662,-2.5255,-2.5119,-2.5119,-2.5119,-2.5119,-2.5119,-2.5119,-2.5119,-2.5119,-2.5119,-2.5119,-2.5119,-2.5119,-2.5119,-2.5119,-2.5119,-2.5119,-2.5119,-2.5119,-2.5119,-2.5119,-2.5119,-2.5119,-2.5119,-2.5119,-2.5119,-2.5119,-2.5119,-2.5119,-2.5119,-2.5119,-2.5119,-2.5119,-2.5119,-2.5119,-2.5119,-2.5119,-2.5119,-2.5119,-2.5119,-2.5119,-2.5119,-2.5119,-2.5119,-2.5119,-2.5119,-2.5119,-2.5119,-2.5119,-2.5119,-2.5119,-2.5119,-2.5119,-2.5119,-2.5119,-2.5119,-2.5119,-2.5052,-2.4781,-2.4781,-2.4645,-2.4292,-2.4224,-2.4156,-2.402,-2.3679,-2.3338,-2.3201,-2.2996,-2.2928,-2.2928,-2.2928,-2.2928,-2.2928,-2.2928,-2.2928,-2.2928,-2.2928,-2.2928,-2.2928,-2.2928,-2.2928,-2.2928,-2.2928,-2.2928,-2.2928,-2.2928,-2.2928,-2.2928,-2.2928,-2.2928,-2.5729,-2.6944,-2.7469,-2.5546,-2.652,-2.7787,-2.7125,-2.7295,-2.7593,-2.7969,-2.7532,-2.7442,-2.8918,-2.9182,-2.9509,-3.0613,-3.1047,-3.0337,-2.7469,-2.7086,-2.6635,-2.5255,-2.5119,-2.5119,-2.5119,-2.5119,-2.5119,-2.5119,-2.5119,-2.5119,-2.5119,-2.5119,-2.5119,-2.5119,-2.5119,-2.5119,-2.5119,-2.5119,-2.5119,-2.5119,-2.5119,-2.5119,-2.5119,-2.5119,-2.5119,-2.5119,-2.5119,-2.5119,-2.5119,-2.5119,-2.5119,-2.5119,-2.5119,-2.5119,-2.5119,-2.5119,-2.5119,-2.5119,-2.5119,-2.5119,-2.5119,-2.5119,-2.5119,-2.5119,-2.5119,-2.5119,-2.5119,-2.5119,-2.5119,-2.5119,-2.5119,-2.5119,-2.5119,-2.5119,-2.5119,-2.5119,-2.5119,-2.5119,-2.4984,-2.451,-2.4428,-2.436,-2.3884,-2.3952,-2.3952,-2.3884,-2.3679,-2.3475,-2.327,-2.3133,-2.2996,-2.2928,-2.2928,-2.2928,-2.2928,-2.2928,-2.2928,-2.2928,-2.2928,-2.2928,-2.2928,-2.2928,-2.2928,-2.2928,-2.2928,-2.2928,-2.2928,-2.2928,-2.2928,-2.2928,-2.2928,-2.2928,-2.3293,-2.427,-2.5256,-2.5133,-2.5194,-2.5623,-2.6719,-2.7295,-2.7672,-2.8049,-2.8298,-2.8656,-2.9114,-2.9182,-2.9248,-2.9313,-3.0419,-3.0337,-2.7469,-2.7153,-2.6635,-2.5255,-2.5119,-2.5119,-2.5119,-2.5119,-2.5119,-2.5119,-2.5119,-2.5119,-2.5119,-2.5119,-2.5119,-2.5119,-2.5119,-2.5119,-2.5119,-2.5119,-2.5119,-2.5119,-2.5119,-2.5119,-2.5119,-2.5119,-2.5119,-2.5119,-2.5119,-2.5119,-2.5119,-2.5119,-2.5119,-2.5119,-2.5119,-2.5119,-2.5119,-2.5119,-2.5119,-2.5119,-2.5119,-2.5119,-2.5119,-2.5119,-2.5119,-2.5119,-2.5119,-2.5119,-2.5119,-2.5119,-2.5119,-2.5119,-2.5119,-2.5119,-2.5119,-2.5119,-2.5119,-2.5119,-2.5119,-2.5119,-2.4916,-2.417,-2.4292,-2.4292,-2.3543,-2.3747,-2.3884,-2.3475,-2.3747,-2.3747,-2.2996,-2.3201,-2.327,-2.2928,-2.2928,-2.2928,-2.2928,-2.2928,-2.2928,-2.2928,-2.2928,-2.2928,-2.2928,-2.2928,-2.2928,-2.2928,-2.2928,-2.2928,-2.2928,-2.2928,-2.2928,-2.2928,-2.2928,-2.2928,-2.3106,-2.4085,-2.4887,-2.4023,-2.4456,-2.5194,-2.5684,-2.5905,-2.6397,-2.7826,-2.8174,-2.8192,-2.79,-2.8592,-2.9509,-3.0419,-3.1707,-3.1982,-3.0077,-2.9051,-2.7949,-2.6568,-2.5644,-2.5119,-2.5119,-2.5119,-2.5119,-2.5119,-2.5119,-2.5119,-2.5119,-2.5119,-2.5119,-2.5119,-2.5119,-2.5119,-2.5119,-2.5119,-2.5119,-2.5119,-2.5119,-2.5119,-2.5119,-2.5119,-2.5119,-2.5119,-2.5119,-2.5119,-2.5119,-2.5119,-2.5119,-2.5119,-2.5119,-2.5119,-2.5119,-2.5119,-2.5119,-2.5119,-2.5119,-2.5119,-2.5119,-2.5119,-2.5119,-2.5119,-2.5119,-2.5119,-2.5119,-2.5119,-2.5119,-2.5119,-2.5119,-2.5119,-2.5119,-2.5119,-2.5119,-2.5119,-2.5119,-2.5119,-2.4916,-2.4442,-2.4224,-2.402,-2.3475,-2.3543,-2.3543,-2.3406,-2.3543,-2.3543,-2.327,-2.3133,-2.2996,-2.2928,-2.2928,-2.2928,-2.2928,-2.2928,-2.2928,-2.2928,-2.2928,-2.2928,-2.2928,-2.2928,-2.2928,-2.2928,-2.2928,-2.2928,-2.2928,-2.2928,-2.2928,-2.2928,-2.2928,-2.2928,-2.3106,-2.3728,-2.4332,-2.3914,-2.4085,-2.4517,-2.501,-2.5071,-2.5539,-2.6998,-2.7735,-2.7879,-2.713,-2.818,-2.9509,-3.0419,-3.2174,-3.2892,-3.1515,-3.0095,-2.8657,-2.7286,-2.5913,-2.5119,-2.5119,-2.5119,-2.5119,-2.5119,-2.5119,0.0,-2.5119,-2.5119,-2.5119,-2.5119,-2.5119,-2.5119,-2.5119,-2.5119,-2.5119,-2.5119,-2.5119,-2.5119,-2.5119,-2.5119,-2.5119,-2.5119,-2.5119,-2.5119,-2.5119,-2.5119,-2.5119,-2.5119,-2.5119,-2.5119,-2.5119,-2.5119,-2.5119,-2.5119,-2.5119,-2.5119,-2.5119,-2.5119,-2.5119,-2.5119,-2.5119,-2.5119,-2.5119,-2.5119,-2.5119,-2.5119,-2.5119,-2.5119,-2.5119,-2.5119,-2.5119,-2.5119,-2.5119,-2.5119,-2.4984,-2.4563,-2.4292,-2.4034,-2.3679,-2.3475,-2.3406,-2.3406,-2.3406,-2.3338,-2.327,-2.3133,-2.2996,-2.2928,-2.2928,-2.2928,-2.2928,-2.2928,-2.2928,-2.2928,-2.2928,-2.2928,-2.2928,-2.2928,-2.2928,-2.2928,-2.2928,-2.2928,-2.2928,-2.2928,-2.2928,-2.2928,-2.2928,-2.2928,0.0,0.0,0.0,-2.4702,-2.4023,-2.3417,-2.4764,-2.501,-2.5167,-2.5641,-2.6922,-2.7811,-2.689,-2.8096,-2.9182,-2.9182,-3.1534,-3.2892,-3.1579,-3.016,-2.8723,-2.7352,-2.5981,-2.5119,-2.5119,-2.5119,-2.5119,-2.5119,-2.5119,-2.5119,-2.5119,-2.5119,-2.5119,-2.5119,-2.5119,-2.5119,-2.5119,-2.5119,-2.5119,-2.5119,-2.5119,-2.5119,-2.5119,-2.5119,-2.5119,-2.5119,-2.5119,-2.5119,-2.5119,-2.5119,-2.5119,-2.5119,-2.5119,-2.5119,-2.5119,-2.5119,-2.5119,-2.5119,-2.5119,-2.5119,-2.5119,-2.5119,-2.5119,-2.5119,-2.5119,-2.5119,-2.5119,-2.5119,-2.5119,-2.5119,-2.5119,-2.5119,-2.5119,-2.5119,-2.5119,-2.5119,-2.5119,-2.5119,-2.4984,-2.4578,-2.4495,-2.4428,-2.4088,-2.3679,-2.3406,-2.3406,-2.3406,-2.327,-2.2928,-2.3201,-2.327,-2.2928,-2.2928,-2.2928,-2.2928,-2.2928,-2.2928,-2.2928,-2.2928,-2.2928,-2.2928,-2.2928,-2.2928,-2.2928,-2.2928,-2.2928,-2.2928,-2.2928,-2.2928,-2.2928,-2.2928,-2.2928,-2.3106,0.0,0.0,0.0,0.0,0.0,-2.3604,-2.3666,-2.4067,-2.5454,-2.6246,-2.7048,-2.8053,-2.8748,-2.9182,-2.9182,-3.0678,-3.211,-3.2702,-3.1579,-3.0207,-2.8789,-2.7419,-2.6167,-2.5187,-2.5119,-2.5119,0.0,-2.5119,-2.5119,-2.5119,-2.5119,-2.5119,-2.5119,-2.5119,-2.5119,-2.5119,-2.5119,-2.5119,-2.5119,-2.5119,-2.5119,-2.5119,-2.5119,-2.5119,-2.5119,-2.5119,-2.5119,-2.5119,-2.5119,-2.5119,-2.5119,-2.5119,-2.5119,-2.5119,-2.5119,-2.5119,-2.5119,-2.5119,-2.5119,-2.5119,-2.5119,-2.5119,-2.5119,-2.5119,-2.5119,-2.5119,-2.5119,-2.5119,-2.5119,-2.5119,-2.5119,-2.5119,-2.5119,-2.5119,-2.5119,-2.5119,-2.5119,-2.5052,-2.4984,-2.4713,-2.4495,-2.436,-2.3816,-2.3406,-2.3406,-2.3201,-2.2996,-2.2928,-2.2996,-2.2996,-2.2928,-2.2928,-2.2928,-2.2928,-2.2928,-2.2928,-2.2928,-2.2928,-2.2928,-2.2928,-2.2928,-2.2928,-2.2928,-2.2928,-2.2928,-2.2928,-2.2928,-2.2928,-2.2928,-2.2928,-2.2928,0.0,0.0,-2.3106,-2.3106,0.0,0.0,-2.3106,-2.3106,-2.3399,-2.4392,-2.5454,-2.6296,-2.6761,-2.7671,-2.8328,-2.8328,-2.9034,-3.0012,-3.1469,-3.0936,-3.0095,-2.9313,-2.7932,-2.682,-2.6032,-2.5457,-2.5119,-2.5119,-2.5119,-2.5119,-2.5119,-2.5119,-2.5119,-2.5119,-2.5119,-2.5119,-2.5119,-2.5119,-2.5119,-2.5119,-2.5119,-2.5119,-2.5119,-2.5119,-2.5119,-2.5119,-2.5119,-2.5119,-2.5119,-2.5119,-2.5119,-2.5119,-2.5119,-2.5119,-2.5119,-2.5119,-2.5119,-2.5119,-2.5119,-2.5119,-2.5119,-2.5119,-2.5119,-2.5119,-2.5119,-2.5119,-2.5119,-2.5119,-2.5119,-2.5119,-2.5119,-2.5119,-2.5119,-2.5119,-2.5119,-2.5119,-2.5119,-2.5119,-2.5119,-2.5119,-2.4916,-2.4781,-2.4781,-2.4156,-2.3679,-2.3679,-2.3201,-2.2928,-2.2928,-2.2928,-2.2928,-2.2928,-2.2928,-2.2928,-2.2928,-2.2928,-2.2928,-2.2928,-2.2928,-2.2928,-2.2928,-2.2928,-2.2928,-2.2928,-2.2928,-2.2928,-2.2928,-2.2928,-2.2928,-2.2928,-2.2928,-2.2928,0.0,0.0,0.0,0.0,-2.3106,0.0,-2.3106,-2.3106,-2.3106,-2.3106,-2.4589,-2.5609,-2.4466,-2.5616,-2.6843,-2.6975,-2.6874,-2.737,-2.8986,-2.9182,-2.9117,-2.8986,-2.7866,-2.7086,-2.7086,-2.5913,-2.5187,-2.5322,-2.5187,-2.5119,-2.5119,-2.5119,-2.5119,-2.5119,-2.5119,-2.5119,-2.5119,-2.5119,-2.5119,-2.5119,-2.5119,-2.5119,-2.5119,-2.5119,-2.5119,-2.5119,-2.5119,-2.5119,-2.5119,-2.5119,-2.5119,-2.5119,-2.5119,-2.5119,-2.5119,-2.5119,-2.5119,-2.5119,-2.5119,-2.5119,-2.5119,-2.5119,-2.5119,-2.5119,-2.5119,-2.5119,-2.5119,-2.5119,-2.5119,-2.5119,-2.5119,-2.5119,-2.5119,-2.5119,-2.5119,-2.5119,-2.5119,-2.5119,-2.5119,-2.5119,-2.5119,-2.5119,-2.5119,-2.451,-2.402,-2.4034,-2.3406,-2.2928,-2.2928,-2.2928,-2.2928,-2.2928,-2.2928,-2.2928,-2.2928,-2.2928,-2.2928,-2.2928,-2.2928,-2.2928,-2.2928,-2.2928,-2.2928,-2.2928,-2.2928,-2.2928,-2.2928,-2.2928,-2.2928,-2.2928,-2.2928,-2.2928,0.0,0.0,0.0,0.0,-2.3106,0.0,-2.3106,-2.3106,-2.3106,-2.3106,-2.3665,-2.4378,-2.525,-2.5016,-2.5046,-2.6182,-2.5651,-2.6059,-2.8821,-2.9182,-2.8789,-2.7602,-2.7286,-2.7086,-2.7086,-2.5913,-2.551,-2.6635,-2.5712,-2.5119,-2.5119,-2.5119,-2.5119,-2.5119,-2.5119,-2.5119,-2.5119,-2.5119,-2.5119,-2.5119,-2.5119,-2.5119,-2.5119,-2.5119,-2.5119,-2.5119,-2.5119,-2.5119,-2.5119,-2.5119,-2.5119,-2.5119,-2.5119,-2.5119,-2.5119,-2.5119,-2.5119,-2.5119,-2.5119,-2.5119,-2.5119,-2.5119,-2.5119,-2.5119,-2.5119,-2.5119,-2.5119,-2.5119,-2.5119,-2.5119,-2.5119,-2.5119,-2.5119,-2.5119,-2.5119,-2.5119,-2.5119,-2.5119,-2.5119,-2.5119,-2.5119,-2.5119,-2.5119,-2.4713,-2.4306,-2.402,-2.3611,-2.3201,-2.2928,-2.2928,-2.2928,-2.2928,-2.2928,-2.2928,-2.2928,-2.2928,-2.2928,-2.2928,-2.2928,-2.2928,-2.2928,-2.2928,-2.2928,-2.2928,-2.2928,-2.2928,-2.2928,-2.2928,-2.2928,-2.2928,-2.2928,-2.2928,0.0,0.0,0.0,-2.3106,0.0,0.0,0.0,-2.3106,-2.3106,-2.3106,-2.3369,-2.3843,-2.4525,-2.4366,-2.4331,-2.5028,-2.4874,-2.5084,-2.6433,-2.7523,-2.7866,-2.7153,-2.7086,-2.7086,-2.7086,-2.5913,-2.539,-2.6032,-2.5457,-2.5119,-2.5119,-2.5119,-2.5119,-2.5119,-2.5119,-2.5119,-2.5119,-2.5119,-2.5119,-2.5119,-2.5119,-2.5119,-2.5119,-2.5119,-2.5119,-2.5119,-2.5119,-2.5119,-2.5119,-2.5119,-2.5119,-2.5119,-2.5119,-2.5119,-2.5119,-2.5119,-2.5119,-2.5119,-2.5119,-2.5119,-2.5119,-2.5119,-2.5119,-2.5119,-2.5119,-2.5119,-2.5119,-2.5119,-2.5119,-2.5119,-2.5119,-2.5119,-2.5119,-2.5119,-2.5119,-2.5119,-2.5119,-2.5119,-2.5119,-2.5119,-2.5119,-2.5119,-2.5119,-2.4781,-2.4374,-2.4034,-2.3679,-2.327,-2.2928,-2.2928,-2.2928,-2.2928,-2.2928,-2.2928,-2.2928,-2.2928,-2.2928,-2.2928,-2.2928,-2.2928,-2.2928,-2.2928,-2.2928,-2.2928,-2.2928,-2.2928,-2.2928,-2.2928,-2.2928,-2.2928,-2.2928,-2.2928,0.0,0.0,0.0,0.0,0.0,-2.3106,0.0,0.0,0.0,-2.3106,-2.3325,-2.3501,-2.3501,-2.372,-2.3852,-2.3735,-2.4086,-2.4247,-2.3852,-2.5378,-2.6515,-2.6577,-2.6655,-2.682,-2.7086,-2.61,-2.539,-2.5119,-2.5119,-2.5119,-2.5119,-2.5119,-2.5119,-2.5119,-2.5119,-2.5119,-2.5119,-2.5119,-2.5119,-2.5119,-2.5119,-2.5119,-2.5119,-2.5119,-2.5119,-2.5119,-2.5119,-2.5119,-2.5119,-2.5119,-2.5119,-2.5119,-2.5119,-2.5119,-2.5119,-2.5119,-2.5119,-2.5119,-2.5119,-2.5119,-2.5119,-2.5119,-2.5119,-2.5119,-2.5119,-2.5119,-2.5119,-2.5119,-2.5119,-2.5119,-2.5119,-2.5119,-2.5119,-2.5119,-2.5119,-2.5119,-2.5119,-2.5119,-2.5119,-2.5119,-2.5119,-2.5119,-2.5119,-2.4849,-2.451,-2.4034,-2.3747,-2.3338,-2.2928,-2.2928,-2.2928,-2.2928,-2.2928,-2.2928,-2.2928,-2.2928,-2.2928,-2.2928,-2.2928,-2.2928,-2.2928,-2.2928,-2.2928,-2.2928,-2.2928,-2.2928,-2.2928,-2.2928,-2.2928,-2.2928,-2.2928,-2.2928,0.0,0.0,0.0,0.0,-2.3106,0.0,0.0,0.0,-2.3106,-2.3106,0.0,-2.3164,-2.3164,0.0,0.0,-2.2491,-2.3135,-2.3486,-2.2871,-2.3716,-2.4553,-2.4849,-2.5145,-2.5779,-2.6953,-2.6953,-2.6368,-2.5187,-2.5119,-2.5119,-2.5119,-2.5119,-2.5119,-2.5119,-2.5119,-2.5119,-2.5119,-2.5119,-2.5119,-2.5119,-2.5119,-2.5119,-2.5119,-2.5119,-2.5119,-2.5119,-2.5119,-2.5119,-2.5119,-2.5119,-2.5119,-2.5119,-2.5119,-2.5119,-2.5119,-2.5119,-2.5119,-2.5119,-2.5119,-2.5119,-2.5119,-2.5119,-2.5119,-2.5119,-2.5119,-2.5119,-2.5119,-2.5119,-2.5119,-2.5119,-2.5119,-2.5119,-2.5119,-2.5119,-2.5119,-2.5119,-2.5119,-2.5119,-2.5119,-2.5119,-2.5119,-2.5119,-2.5119,-2.5052,-2.4781,-2.4088,-2.3952,-2.3679,-2.2996,-2.2928,-2.2928,-2.2928,-2.2928,-2.2928,-2.2928,-2.2928,-2.2928,-2.2928,-2.2928,-2.2928,-2.2928,-2.2928,-2.2928,-2.2928,-2.2928,-2.2928,-2.2928,-2.2928,-2.2928,-2.2928,-2.2928,-2.2928,0.0,0.0,0.0,0.0,0.0,0.0,-2.3106,0.0,-2.3106,0.0,0.0,0.0,0.0,0.0,0.0,0.0,-2.3208,-2.3427,-2.2974,-2.3588,-2.4203,-2.4525,0.0,0.0,-2.5883,-2.5913,-2.5712,-2.5119,-2.5119,-2.5119,-2.5119,-2.5119,-2.5119,-2.5119,-2.5119,-2.5119,-2.5119,-2.5119,-2.5119,-2.5119,-2.5119,-2.5119,-2.5119,-2.5119,-2.5119,-2.5119,-2.5119,-2.5119,-2.5119,-2.5119,-2.5119,-2.5119,-2.5119,-2.5119,-2.5119,-2.5119,-2.5119,-2.5119,-2.5119,-2.5119,-2.5119,-2.5119,-2.5119,-2.5119,-2.5119,-2.5119,-2.5119,-2.5119,-2.5119,-2.5119,-2.5119,-2.5119,-2.5119,-2.5119,-2.5119,-2.5119,-2.5119,-2.5119,-2.5119,-2.5119,-2.5119,-2.5119,-2.5119,-2.5119,-2.4916,-2.4374,-2.4292,-2.402,-2.327,-2.3201,-2.3133,-2.2928,-2.2928,-2.2928,-2.2928,-2.2928,-2.2928,-2.2928,-2.2928,-2.2928,-2.2928,-2.2928,-2.2928,-2.2928,-2.2928,-2.2928,-2.2928,-2.2928,-2.2928,-2.2928,-2.2928,-2.2928,-2.3325,0.0,0.0,0.0,0.0,0.0,0.0,0.0,0.0,0.0,0.0,0.0,0.0,0.0,0.0,0.0,0.0,-2.3325,-2.2915,-2.3413,-2.394,-2.4262,0.0,0.0,0.0,-2.5119,-2.5119,-2.5119,-2.5119,-2.5119,-2.5119,-2.5119,-2.5119,-2.5119,-2.5119,-2.5119,-2.5119,-2.5119,-2.5119,-2.5119,-2.5119,-2.5119,-2.5119,-2.5119,-2.5119,-2.5119,-2.5119,-2.5119,-2.5119,-2.5119,-2.5119,-2.5119,-2.5119,-2.5119,-2.5119,-2.5119,-2.5119,-2.5119,-2.5119,-2.5119,-2.5119,-2.5119,-2.5119,-2.5119,-2.5119,-2.5119,-2.5119,-2.5119,-2.5119,-2.5119,-2.5119,-2.5119,-2.5119,-2.5119,-2.5119,-2.5119,-2.5119,-2.5119,-2.5119,-2.5119,-2.5119,-2.5119,-2.5119,-2.5119,-2.4984,-2.4563,-2.4495,-2.4292,-2.3679,-2.3475,-2.3338,-2.3065,-2.2928,-2.2928,-2.2928,-2.2928,-2.2928,-2.2928,-2.2928,-2.2928,-2.2928,-2.2928,-2.2928,-2.2928,-2.2928,-2.2928,-2.2928,-2.2928,-2.2928,-2.2928,-2.2928,-2.2928,0.0,0.0,0.0,-2.3179,0.0,0.0,0.0,0.0,-2.3106,0.0,0.0,0.0,0.0,0.0,0.0,0.0,0.0,0.0,0.0,-2.2754,-2.3267,-2.3588,-2.4188,0.0,0.0,-2.5119,-2.5119,0.0,-2.5119,-2.5119,-2.5119,-2.5119,-2.5119,-2.5119,-2.5119,-2.5119,-2.5119,-2.5119,-2.5119,-2.5119,-2.5119,-2.5119,-2.5119,-2.5119,-2.5119,-2.5119,-2.5119,-2.5119,-2.5119,-2.5119,-2.5119,-2.5119,-2.5119,-2.5119,-2.5119,-2.5119,-2.5119,-2.5119,-2.5119,-2.5119,-2.5119,-2.5119,-2.5119,-2.5119,-2.5119,-2.5119,-2.5119,-2.5119,-2.5119,-2.5119,-2.5119,-2.5119,-2.5119,-2.5119,-2.5119,-2.5119,-2.5119,-2.5119,-2.5119,-2.5119,-2.5119,-2.5119,-2.5119,-2.5119,-2.4984,-2.4563,-2.4495,-2.436,-2.4034,-2.3611,-2.3406,-2.3406,-2.3065,-2.2928,-2.2928,-2.2928,-2.2928,-2.2928,-2.2928,-2.2928,-2.2928,-2.2928,-2.2928,-2.2928,-2.2928,-2.2928,-2.2928,-2.2928,-2.2928,-2.2928,-2.2928,-2.2928,0.0,0.0,-2.3896,-2.3779,0.0,0.0,0.0,0.0,0.0,0.0,0.0,0.0,0.0,0.0,0.0,0.0,0.0,0.0,0.0,0.0,-2.331,-2.3852,-2.4305,-2.4701,-2.509,0.0,0.0,0.0,-2.5119,0.0,-2.5119,-2.5119,-2.5119,-2.5119,-2.5119,-2.5119,-2.5119,-2.5119,-2.5119,-2.5119,-2.5119,-2.5119,-2.5119,-2.5119,-2.5119,-2.5119,-2.5119,-2.5119,-2.5119,-2.5119,-2.5119,-2.5119,-2.5119,-2.5119,-2.5119,-2.5119,-2.5119,-2.5119,-2.5119,-2.5119,-2.5119,-2.5119,-2.5119,-2.5119,-2.5119,-2.5119,-2.5119,-2.5119,-2.5119,-2.5119,-2.5119,-2.5119,-2.5119,-2.5119,-2.5119,-2.5119,-2.5119,-2.5119,-2.5119,-2.5119,-2.5119,-2.5119,-2.5119,-2.5119,-2.5052,-2.4916,-2.4645,-2.4428,-2.436,-2.4224,-2.3952,-2.3475,-2.327,-2.3133,-2.2928,-2.2928,-2.2928,-2.2928,-2.2928,-2.2928,-2.2928,-2.2928,-2.2928,-2.2928,-2.2928,-2.2928,-2.2928,-2.2928,-2.2379,-2.139,-2.139,-2.1953,-2.4349,-2.4262,0.0,-2.4115,-2.3925,0.0,-2.3764,0.0,-2.3457,0.0,0.0,0.0,0.0,0.0,0.0,0.0,0.0,0.0,0.0,-2.3384,-2.3647,-2.4188,-2.4335,-2.4569,-2.5075,-2.5119,-2.5119,-2.5119,-2.5119,-2.5119,0.0,-2.5119,-2.5119,-2.5119,-2.5119,-2.5119,-2.5119,-2.5119,-2.5119,-2.5119,-2.5119,-2.5119,-2.5119,-2.5119,-2.5119,-2.5119,-2.5119,-2.5119,-2.5119,-2.5119,-2.5119,-2.5119,-2.5119,-2.5119,-2.5119,-2.5119,-2.5119,-2.5119,-2.5119,-2.5119,-2.5119,-2.5119,-2.5119,-2.5119,-2.5119,-2.5119,-2.5119,-2.5119,-2.5119,-2.5119,-2.5119,-2.5119,-2.5119,-2.5119,-2.5119,-2.5119,-2.5119,-2.5119,-2.5119,-2.5119,-2.5119,-2.5119,-2.5119,-2.4984,-2.4916,-2.5052,-2.4849,-2.4713,-2.4713,-2.4578,-2.4292,-2.3816,-2.3543,-2.327,-2.2928,-2.2928,-2.2928,-2.2928,-2.2928,-2.2928,-2.2928,-2.2928,-2.2928,-2.2928,-2.2928,-2.2928,-2.2928,-2.2928,-2.2091,-2.0629,-2.0629,-2.0837]},{"header":{"parameterUnit":"m.s-1","parameterCategory":1,"la1":30.6,"la2":29.2853,"lo1":-89.7004,"lo2":-87.6739,"dy":0.0162,"dx":0.0183,"nx":112,"ny":82,"refTime":"2023-03-24T06:00:00:Z","depth":0,"parameterNumber":3,"parameterNumberName":"V-component_of_WINDS"},"data":[0.0,0.0,0.0,0.0,0.0,0.0,0.0,0.0,0.0,0.0,0.0,0.0,0.0,0.0,0.0,0.0,0.0,0.0,0.0,0.0,0.0,0.0,0.0,0.0,0.0,0.0,0.0,0.0,0.0,0.0,0.0,0.0,0.0,0.0,0.0,0.0,0.0,0.0,0.0,0.0,0.0,0.0,0.0,0.0,0.0,0.0,0.0,0.0,0.0,0.0,0.0,0.0,0.0,0.0,0.0,0.0,0.0,0.0,0.0,0.0,0.0,0.0,0.0,0.0,0.0,0.0,0.0,0.0,0.0,0.0,0.0,0.0,0.0,0.0,0.0,0.0,0.0,0.0,0.0,0.0,0.0,0.0,0.0,0.0,0.0,0.0,0.0,0.0,0.0,0.0,4.2729,4.2257,4.1888,4.1556,4.1117,4.0582,4.0442,4.0743,0.0,0.0,0.0,0.0,0.0,0.0,0.0,0.0,0.0,0.0,0.0,0.0,0.0,0.0,0.0,0.0,0.0,0.0,0.0,0.0,0.0,0.0,0.0,0.0,0.0,0.0,0.0,0.0,0.0,0.0,0.0,0.0,0.0,0.0,0.0,0.0,0.0,0.0,0.0,0.0,0.0,0.0,0.0,0.0,0.0,0.0,0.0,0.0,0.0,0.0,0.0,0.0,0.0,0.0,0.0,0.0,0.0,0.0,0.0,0.0,0.0,0.0,0.0,0.0,0.0,0.0,0.0,0.0,0.0,0.0,0.0,0.0,0.0,0.0,0.0,0.0,0.0,0.0,0.0,0.0,0.0,0.0,0.0,0.0,0.0,0.0,0.0,0.0,0.0,0.0,0.0,0.0,0.0,0.0,0.0,0.0,0.0,0.0,0.0,0.0,0.0,0.0,0.0,0.0,4.2729,4.2257,4.2498,4.2498,4.205,4.2549,4.2795,4.2549,0.0,0.0,0.0,0.0,0.0,0.0,0.0,0.0,0.0,0.0,0.0,0.0,0.0,0.0,0.0,0.0,0.0,0.0,0.0,0.0,0.0,0.0,0.0,0.0,0.0,0.0,0.0,0.0,0.0,0.0,0.0,0.0,0.0,0.0,0.0,0.0,0.0,0.0,0.0,0.0,0.0,0.0,0.0,0.0,0.0,0.0,0.0,0.0,0.0,0.0,0.0,0.0,0.0,0.0,0.0,0.0,0.0,0.0,0.0,0.0,0.0,0.0,0.0,0.0,0.0,0.0,0.0,0.0,0.0,0.0,0.0,0.0,0.0,0.0,0.0,0.0,0.0,0.0,0.0,0.0,0.0,0.0,0.0,0.0,0.0,0.0,0.0,0.0,0.0,0.0,0.0,0.0,0.0,0.0,0.0,0.0,0.0,0.0,0.0,0.0,0.0,0.0,0.0,4.3214,4.3069,4.2616,4.2787,4.2729,4.2257,4.2577,4.2808,4.2882,4.1061,0.0,0.0,0.0,0.0,0.0,0.0,0.0,0.0,0.0,0.0,0.0,0.0,0.0,0.0,0.0,0.0,0.0,0.0,0.0,0.0,0.0,0.0,0.0,0.0,0.0,0.0,0.0,0.0,0.0,0.0,0.0,0.0,0.0,0.0,0.0,0.0,0.0,0.0,0.0,0.0,0.0,0.0,0.0,0.0,0.0,0.0,0.0,0.0,0.0,0.0,0.0,0.0,0.0,0.0,0.0,0.0,0.0,0.0,0.0,0.0,0.0,0.0,0.0,0.0,0.0,0.0,0.0,0.0,0.0,0.0,0.0,0.0,0.0,0.0,0.0,0.0,0.0,0.0,0.0,0.0,0.0,0.0,0.0,0.0,0.0,0.0,0.0,0.0,0.0,0.0,0.0,0.0,0.0,0.0,0.0,0.0,0.0,0.0,0.0,0.0,0.0,0.0,4.3515,4.3356,4.3069,4.3032,4.2901,4.2537,4.2518,4.2655,4.3013,4.2432,0.0,0.0,0.0,0.0,0.0,0.0,0.0,0.0,0.0,0.0,0.0,0.0,0.0,0.0,0.0,0.0,0.0,0.0,0.0,0.0,0.0,0.0,0.0,0.0,0.0,0.0,0.0,0.0,0.0,0.0,0.0,0.0,0.0,0.0,0.0,0.0,0.0,0.0,0.0,0.0,0.0,0.0,0.0,0.0,0.0,0.0,0.0,0.0,0.0,0.0,0.0,0.0,0.0,0.0,0.0,0.0,0.0,0.0,0.0,0.0,0.0,0.0,0.0,0.0,0.0,0.0,0.0,0.0,0.0,0.0,0.0,0.0,0.0,0.0,0.0,0.0,0.0,0.0,0.0,0.0,0.0,0.0,0.0,0.0,0.0,0.0,0.0,0.0,0.0,0.0,0.0,0.0,0.0,0.0,0.0,0.0,0.0,0.0,0.0,0.0,0.0,0.0,4.3515,4.3497,4.3463,4.3463,4.3426,4.3391,4.3391,4.3409,4.3463,4.3389,0.0,0.0,0.0,0.0,0.0,0.0,0.0,0.0,0.0,0.0,0.0,0.0,0.0,0.0,0.0,0.0,0.0,0.0,0.0,0.0,0.0,0.0,0.0,0.0,0.0,0.0,0.0,0.0,0.0,0.0,0.0,0.0,0.0,0.0,0.0,0.0,0.0,0.0,0.0,0.0,0.0,0.0,0.0,0.0,0.0,0.0,0.0,0.0,0.0,0.0,0.0,0.0,0.0,0.0,0.0,0.0,0.0,0.0,0.0,0.0,0.0,0.0,0.0,0.0,0.0,0.0,0.0,0.0,0.0,0.0,0.0,0.0,0.0,0.0,0.0,0.0,0.0,0.0,0.0,0.0,0.0,0.0,0.0,0.0,0.0,0.0,0.0,0.0,0.0,0.0,0.0,0.0,0.0,0.0,0.0,0.0,0.0,0.0,0.0,0.0,0.0,0.0,4.3515,4.3515,4.3515,4.3515,4.3515,4.3515,4.3515,4.3515,4.3515,0.0,0.0,0.0,0.0,0.0,0.0,0.0,0.0,0.0,0.0,0.0,0.0,0.0,0.0,0.0,0.0,0.0,0.0,0.0,0.0,0.0,0.0,0.0,0.0,0.0,0.0,0.0,0.0,0.0,0.0,0.0,0.0,0.0,0.0,0.0,0.0,0.0,0.0,0.0,0.0,0.0,0.0,0.0,0.0,0.0,0.0,0.0,0.0,0.0,0.0,0.0,0.0,0.0,0.0,0.0,0.0,0.0,0.0,0.0,0.0,0.0,0.0,0.0,0.0,0.0,0.0,0.0,0.0,0.0,0.0,0.0,0.0,0.0,0.0,0.0,0.0,0.0,0.0,0.0,0.0,0.0,0.0,0.0,0.0,0.0,0.0,0.0,0.0,0.0,0.0,0.0,0.0,0.0,0.0,0.0,0.0,0.0,0.0,0.0,0.0,0.0,0.0,4.3515,4.3515,4.3515,4.3515,4.3515,4.3515,4.3515,4.3515,4.3515,4.3515,0.0,0.0,0.0,0.0,0.0,0.0,0.0,0.0,0.0,0.0,0.0,0.0,0.0,0.0,0.0,0.0,0.0,0.0,0.0,0.0,0.0,0.0,0.0,0.0,0.0,0.0,0.0,0.0,0.0,0.0,0.0,0.0,0.0,0.0,0.0,0.0,0.0,0.0,0.0,0.0,0.0,0.0,0.0,0.0,0.0,0.0,0.0,0.0,0.0,0.0,0.0,0.0,0.0,0.0,0.0,0.0,0.0,0.0,0.0,0.0,0.0,0.0,0.0,0.0,0.0,0.0,0.0,0.0,0.0,0.0,0.0,0.0,0.0,0.0,0.0,0.0,0.0,0.0,0.0,0.0,0.0,0.0,0.0,0.0,0.0,0.0,0.0,0.0,0.0,0.0,0.0,0.0,0.0,0.0,0.0,0.0,0.0,0.0,0.0,0.0,0.0,0.0,4.3497,4.3515,4.3551,4.3551,4.3551,4.3551,4.3551,4.3515,4.3497,0.0,0.0,0.0,0.0,0.0,0.0,0.0,0.0,0.0,0.0,0.0,0.0,0.0,0.0,0.0,0.0,0.0,0.0,0.0,0.0,0.0,0.0,0.0,0.0,0.0,0.0,0.0,0.0,0.0,0.0,0.0,0.0,0.0,0.0,0.0,0.0,0.0,0.0,0.0,0.0,0.0,0.0,0.0,0.0,0.0,0.0,0.0,0.0,0.0,0.0,0.0,0.0,0.0,0.0,0.0,0.0,0.0,0.0,0.0,0.0,0.0,0.0,0.0,0.0,0.0,0.0,0.0,0.0,0.0,0.0,0.0,0.0,0.0,0.0,0.0,0.0,0.0,0.0,0.0,0.0,0.0,0.0,0.0,0.0,0.0,0.0,0.0,0.0,0.0,0.0,0.0,0.0,0.0,0.0,0.0,0.0,0.0,0.0,0.0,0.0,0.0,0.0,0.0,4.4342,4.4856,4.5186,4.5186,4.5186,4.5186,4.5186,4.4672,4.4342,4.4342,0.0,0.0,0.0,0.0,0.0,0.0,0.0,0.0,0.0,0.0,0.0,0.0,0.0,0.0,0.0,0.0,0.0,0.0,0.0,0.0,0.0,0.0,0.0,0.0,0.0,0.0,0.0,0.0,0.0,0.0,0.0,0.0,0.0,0.0,0.0,0.0,0.0,0.0,0.0,0.0,0.0,0.0,0.0,0.0,0.0,0.0,0.0,0.0,0.0,0.0,0.0,0.0,0.0,0.0,0.0,0.0,0.0,0.0,0.0,0.0,0.0,0.0,0.0,0.0,0.0,0.0,0.0,0.0,0.0,0.0,0.0,0.0,0.0,0.0,0.0,0.0,0.0,0.0,0.0,0.0,0.0,0.0,0.0,0.0,0.0,0.0,0.0,0.0,0.0,0.0,0.0,0.0,0.0,0.0,0.0,0.0,0.0,0.0,0.0,0.0,0.0,0.0,4.5186,4.559,4.5883,4.5883,4.5883,4.5883,4.5883,4.5443,4.5186,4.5186,0.0,0.0,0.0,0.0,0.0,0.0,0.0,0.0,0.0,0.0,0.0,0.0,0.0,0.0,0.0,0.0,0.0,0.0,0.0,0.0,0.0,0.0,0.0,0.0,0.0,0.0,0.0,0.0,0.0,0.0,0.0,0.0,0.0,0.0,0.0,0.0,0.0,0.0,0.0,0.0,0.0,0.0,0.0,0.0,0.0,0.0,0.0,0.0,0.0,0.0,0.0,0.0,0.0,0.0,0.0,0.0,0.0,0.0,0.0,0.0,0.0,0.0,0.0,0.0,0.0,0.0,0.0,0.0,0.0,0.0,0.0,0.0,0.0,0.0,0.0,0.0,0.0,0.0,0.0,0.0,0.0,0.0,0.0,0.0,0.0,0.0,0.0,0.0,0.0,0.0,0.0,0.0,0.0,0.0,0.0,0.0,0.0,0.0,0.0,0.0,0.0,0.0,4.5993,4.6067,4.6104,4.6104,4.6104,4.6104,4.6104,4.6067,4.5993,4.5993,0.0,0.0,0.0,0.0,0.0,0.0,0.0,0.0,0.0,0.0,0.0,0.0,0.0,0.0,0.0,0.0,0.0,0.0,0.0,0.0,0.0,0.0,0.0,0.0,0.0,0.0,0.0,0.0,0.0,0.0,0.0,0.0,0.0,0.0,0.0,0.0,0.0,0.0,0.0,0.0,0.0,0.0,0.0,0.0,0.0,0.0,0.0,0.0,0.0,0.0,0.0,0.0,0.0,0.0,0.0,0.0,0.0,0.0,0.0,0.0,4.2828,0.0,0.0,0.0,0.0,0.0,0.0,0.0,0.0,0.0,0.0,0.0,0.0,0.0,0.0,0.0,0.0,0.0,0.0,0.0,0.0,0.0,0.0,0.0,0.0,0.0,0.0,0.0,0.0,0.0,0.0,0.0,0.0,0.0,0.0,0.0,0.0,0.0,0.0,0.0,0.0,0.0,4.6819,4.7425,4.7792,4.7792,4.7792,4.7792,4.7792,4.7205,4.6819,4.6819,4.625,0.0,0.0,0.0,0.0,0.0,0.0,0.0,0.0,0.0,0.0,0.0,0.0,0.0,0.0,0.0,0.0,0.0,0.0,0.0,0.0,0.0,0.0,0.0,0.0,0.0,0.0,0.0,0.0,0.0,0.0,0.0,0.0,0.0,0.0,0.0,0.0,0.0,0.0,0.0,0.0,0.0,0.0,0.0,0.0,0.0,0.0,0.0,0.0,0.0,0.0,0.0,0.0,0.0,0.0,0.0,0.0,0.0,0.0,0.0,0.0,4.3559,0.0,0.0,0.0,0.0,0.0,0.0,0.0,0.0,0.0,0.0,0.0,0.0,0.0,0.0,0.0,0.0,0.0,0.0,0.0,0.0,0.0,0.0,0.0,0.0,0.0,0.0,0.0,0.0,0.0,0.0,0.0,0.0,0.0,0.0,0.0,0.0,0.0,0.0,0.0,0.0,4.7663,4.8049,4.8306,4.8306,4.8306,4.8306,4.8306,4.7939,4.7663,4.7663,4.7278,0.0,0.0,0.0,0.0,0.0,0.0,0.0,0.0,0.0,0.0,0.0,0.0,0.0,0.0,0.0,0.0,0.0,0.0,0.0,0.0,0.0,0.0,0.0,0.0,0.0,0.0,0.0,0.0,0.0,0.0,0.0,0.0,0.0,0.0,0.0,0.0,0.0,0.0,0.0,0.0,0.0,0.0,0.0,0.0,0.0,0.0,0.0,0.0,0.0,0.0,0.0,0.0,0.0,4.4615,4.4615,4.4615,4.4615,4.4615,4.4615,4.4692,4.472,4.472,4.4609,0.0,0.0,0.0,0.0,0.0,0.0,0.0,0.0,0.0,0.0,0.0,0.0,0.0,0.0,0.0,0.0,0.0,0.0,0.0,0.0,0.0,0.0,0.0,0.0,4.7614,4.7802,0.0,0.0,0.0,0.0,0.0,0.0,0.0,0.0,0.0,0.0,0.0,0.0,4.8287,4.8306,4.8306,4.8306,4.8306,4.8306,4.8306,4.8306,4.8306,4.8306,4.8306,4.8012,0.0,0.0,0.0,0.0,0.0,0.0,0.0,0.0,0.0,0.0,0.0,0.0,0.0,0.0,0.0,0.0,0.0,0.0,0.0,0.0,0.0,0.0,0.0,0.0,0.0,0.0,0.0,0.0,0.0,0.0,0.0,0.0,4.4615,4.4615,0.0,0.0,0.0,0.0,0.0,0.0,0.0,0.0,0.0,0.0,0.0,0.0,0.0,4.4615,4.4615,4.4615,4.4615,4.4615,4.4615,4.4615,4.4615,4.4615,4.4615,4.4643,4.5035,0.0,4.5161,4.4776,0.0,0.0,0.0,0.0,0.0,0.0,0.0,0.0,0.0,0.0,0.0,0.0,0.0,0.0,0.0,0.0,0.0,0.0,0.0,0.0,0.0,0.0,4.7756,4.7756,4.7895,4.7975,0.0,4.7841,4.7976,4.7957,4.7993,0.0,0.0,0.0,0.0,0.0,0.0,0.0,4.8287,4.8306,4.8306,4.8306,4.8306,4.8306,4.8306,4.8306,4.8306,4.8306,4.8306,4.8269,4.8159,4.8159,0.0,0.0,0.0,0.0,0.0,0.0,0.0,0.0,0.0,0.0,0.0,0.0,0.0,0.0,0.0,0.0,0.0,0.0,0.0,0.0,0.0,0.0,0.0,0.0,0.0,0.0,0.0,0.0,0.0,4.4615,4.4615,4.4615,4.4615,4.4615,0.0,0.0,0.0,0.0,0.0,0.0,0.0,0.0,0.0,4.4615,4.4615,4.4615,4.4615,4.4615,4.4615,4.4615,4.4615,4.4615,4.4615,4.4615,4.4748,4.5008,4.5214,4.5468,4.5724,4.5528,4.5708,4.6074,0.0,0.0,0.0,0.0,4.6566,4.6637,4.7151,4.7363,0.0,4.7636,0.0,0.0,0.0,0.0,0.0,0.0,0.0,0.0,0.0,0.0,4.7798,4.7798,4.7881,4.7927,4.7927,4.8032,4.8131,0.0,4.817,4.8226,4.8128,0.0,0.0,0.0,0.0,4.8226,4.8287,4.8306,4.8306,4.8306,4.8306,4.8306,4.8306,4.8306,4.8306,4.8306,4.8306,4.8306,4.8306,4.8306,4.8122,0.0,0.0,0.0,0.0,0.0,0.0,0.0,0.0,0.0,0.0,0.0,0.0,0.0,0.0,0.0,0.0,0.0,0.0,0.0,0.0,0.0,0.0,0.0,0.0,0.0,0.0,0.0,0.0,4.4615,4.4615,4.4615,4.4615,4.4615,0.0,0.0,0.0,0.0,0.0,0.0,4.4615,4.4615,4.4615,4.4615,4.4615,4.4615,4.4615,4.4615,4.4615,4.4615,4.472,4.4803,4.4769,4.4906,4.5169,4.5494,4.5648,4.5925,4.6293,4.6147,4.6172,4.6293,4.6293,4.6365,4.6566,4.6972,4.7107,4.7151,4.7572,4.7699,4.7699,4.7699,4.7699,4.7699,4.7699,0.0,0.0,0.0,0.0,4.7699,4.7699,4.7699,4.7699,4.7699,4.7798,4.784,4.784,4.7886,4.7931,0.0,4.8072,4.8128,4.7972,0.0,0.0,0.0,0.0,4.8187,4.8209,4.8267,4.8287,4.8267,4.8287,4.8306,4.8306,4.8306,4.8306,4.8306,4.8306,4.8306,4.8306,4.8306,4.8306,4.8306,0.0,0.0,0.0,0.0,0.0,0.0,0.0,0.0,0.0,0.0,0.0,0.0,0.0,0.0,0.0,0.0,0.0,0.0,0.0,0.0,0.0,0.0,0.0,0.0,0.0,0.0,0.0,0.0,0.0,4.4615,4.4615,0.0,0.0,0.0,0.0,4.4615,4.4615,4.4615,4.4615,4.4615,4.4615,4.4615,4.4615,4.4615,4.4615,4.4615,4.4615,4.4615,4.5062,4.5267,4.5294,4.5775,4.6024,4.6074,4.6613,4.6822,4.6822,4.6293,4.6389,4.6845,4.6845,4.7151,4.7636,4.7657,4.7657,4.7657,4.7678,4.7699,4.7699,4.7699,4.7699,4.7699,4.7699,4.7699,0.0,0.0,4.7699,4.7699,4.7699,4.7699,4.7699,4.7699,4.7699,4.7699,4.7699,4.7699,4.7762,0.0,4.8012,4.8008,4.7922,0.0,4.7902,4.7902,4.7968,4.8012,4.8012,4.819,4.8267,4.8207,4.8248,4.8306,4.8306,4.8306,4.8306,4.8306,4.8306,4.8306,4.8306,4.8306,4.8306,4.8306,4.8306,0.0,0.0,0.0,0.0,0.0,0.0,0.0,0.0,0.0,0.0,0.0,0.0,0.0,0.0,0.0,0.0,0.0,0.0,0.0,0.0,0.0,0.0,0.0,0.0,0.0,0.0,0.0,0.0,4.5998,4.6311,0.0,4.6065,4.634,4.6396,4.6065,4.6007,4.6007,4.6007,4.6007,4.6007,4.6007,4.6007,4.6007,4.6007,4.6368,4.6529,4.6556,4.709,4.7352,4.7378,4.7557,4.7834,4.8175,4.8342,4.8634,4.8942,4.8726,4.8174,4.7407,4.7407,4.7551,4.7699,4.7699,4.7699,4.7699,4.7699,4.7699,4.7699,4.7699,4.7699,4.7699,4.7699,4.7699,4.7699,4.7699,4.7699,4.7699,4.7699,4.7699,4.7699,4.7699,4.7699,4.7699,4.7699,4.7699,4.772,4.7804,4.7866,4.7927,4.7968,4.7968,4.7968,4.7968,4.8068,4.8148,4.8148,4.8209,4.8287,4.8248,4.8287,4.8306,4.8306,4.8306,4.8306,4.8306,4.8306,4.8306,4.8306,4.8306,4.8306,4.8306,4.8306,4.8306,0.0,0.0,0.0,0.0,0.0,0.0,0.0,0.0,0.0,0.0,0.0,0.0,0.0,0.0,0.0,0.0,0.0,0.0,0.0,0.0,0.0,0.0,0.0,0.0,0.0,4.6659,4.6942,4.7062,4.7569,4.7672,4.7124,4.7402,4.7423,4.7096,4.6898,4.6786,4.6786,4.6786,4.6903,4.7038,4.7067,4.7153,4.738,4.7734,4.7916,4.7916,4.8492,4.8781,4.8781,4.8954,4.9222,4.9588,4.9588,4.9748,5.0112,5.0112,4.9474,4.8496,4.8206,4.8076,4.8098,4.7808,4.7699,4.7699,4.7699,4.7699,4.7699,4.7699,4.7699,4.7699,4.7699,4.7699,4.7699,4.7699,4.7699,4.7699,4.7699,4.7699,4.7699,4.7699,4.7699,4.7699,4.7699,4.7699,4.7699,4.7699,4.7777,4.7861,4.7907,4.7891,4.7891,4.7891,4.8008,4.8068,4.8028,4.8187,4.8248,4.8209,4.8267,4.8306,4.8306,4.8306,4.8306,4.8306,4.8306,4.8306,4.8306,4.8306,4.8306,4.8306,4.8306,4.8306,4.8306,0.0,0.0,0.0,0.0,0.0,0.0,0.0,0.0,0.0,0.0,0.0,0.0,0.0,0.0,0.0,0.0,0.0,0.0,0.0,0.0,0.0,0.0,0.0,4.7815,4.7679,4.7679,4.7686,4.8225,4.8356,4.7768,4.7713,4.7713,4.7713,4.7221,4.6912,4.6912,4.6912,4.714,4.7658,4.7658,4.7931,4.8521,4.8547,4.8547,4.8572,4.9124,4.9365,4.9389,4.9925,5.0184,5.0184,5.0184,5.0184,5.0184,5.0184,5.0184,5.0112,4.9257,4.8945,4.8837,4.804,4.7772,4.7772,4.7772,4.7772,4.7772,4.7772,4.7772,4.7772,4.7772,4.7714,4.7735,4.7735,4.7699,4.7699,4.7699,4.7699,4.7699,4.7699,4.7699,4.7699,4.7699,4.7699,4.7699,4.7699,4.7699,4.7699,4.7699,4.7699,4.7699,4.7699,4.7819,0.0,4.772,4.7988,4.8148,4.8012,4.819,4.8306,4.8306,4.8306,4.8306,4.8306,4.8306,4.8306,4.8306,4.8306,4.8306,4.8306,4.8306,4.8306,4.8306,0.0,0.0,0.0,0.0,0.0,0.0,0.0,0.0,0.0,0.0,0.0,0.0,0.0,0.0,0.0,0.0,0.0,0.0,0.0,0.0,0.0,4.9535,4.9437,4.8612,4.9126,4.9547,4.9296,5.0127,5.0494,4.9905,5.0224,5.0338,4.9878,4.9714,4.9604,4.9604,4.9252,4.9143,4.928,4.8851,4.8703,4.8851,4.928,4.9507,4.9535,5.0494,5.0959,5.0983,5.156,5.1828,5.1828,5.1828,5.1828,5.1828,5.1828,5.1828,5.1683,5.0307,4.9764,4.9727,4.951,4.9438,4.9438,4.9438,4.9438,4.9438,4.9438,4.9438,4.9329,4.8749,4.8547,4.8438,4.7859,4.7699,4.7699,4.7699,4.7699,4.7699,4.7699,4.7699,4.7699,4.7699,4.7699,4.7699,4.7699,4.7699,4.7699,4.7699,4.7699,4.7699,4.7699,4.7819,0.0,4.7927,4.8088,4.8207,4.8209,4.8267,4.8306,4.8306,4.8306,4.8306,4.8306,4.8306,4.8306,4.8306,4.8306,4.8306,4.8306,4.8306,4.8306,0.0,0.0,0.0,0.0,0.0,0.0,0.0,0.0,0.0,0.0,0.0,0.0,0.0,0.0,0.0,0.0,0.0,0.0,0.0,0.0,0.0,0.0,5.1341,5.1351,5.1029,5.0726,5.0558,5.0616,5.1218,5.1475,5.1131,5.1363,5.1337,5.0751,5.048,5.0265,5.0011,4.9698,4.9644,4.9873,4.9555,4.9496,4.9727,5.0039,5.0349,5.0632,5.1026,5.15,5.1957,5.209,5.2257,5.248,5.248,5.248,5.248,5.248,5.248,0.0,0.0,0.0,0.0,0.0,5.0112,5.0112,5.0112,5.0112,5.0112,5.0112,5.0112,5.0003,4.9546,4.9401,4.9329,4.8822,4.8713,4.8713,4.8713,4.8713,4.8713,4.8713,4.8713,4.8713,4.8713,4.8713,4.8605,4.8279,4.8185,0.0,4.7772,4.7699,4.7699,4.7699,4.7777,4.784,4.7886,4.8028,4.8111,4.817,4.8248,4.8306,4.8306,4.8306,0.0,0.0,0.0,4.8306,4.8306,4.8306,0.0,0.0,0.0,4.8306,4.8306,0.0,0.0,0.0,4.8067,4.803,0.0,0.0,0.0,0.0,0.0,0.0,0.0,0.0,0.0,0.0,0.0,0.0,0.0,0.0,0.0,0.0,5.336,5.382,5.4092,5.2369,5.1273,5.18,5.1937,5.1962,5.1962,5.1962,5.1749,5.122,5.0704,5.0236,4.9676,4.9619,0.0,0.0,0.0,5.0487,5.097,5.097,5.1247,5.1749,5.1299,5.1612,5.264,5.2196,5.2269,5.277,5.277,5.277,5.277,5.2661,5.2589,5.2408,5.1719,5.143,5.1357,5.0655,5.0365,5.0365,5.0365,0.0,0.0,5.0365,5.0365,5.0365,5.0257,5.0257,5.022,5.0148,5.0112,5.0112,5.0112,5.0112,5.0112,5.0112,5.0112,5.0112,5.0112,5.0112,4.9872,4.9184,4.9018,4.8822,4.8098,4.7844,4.7699,4.7699,4.7699,4.7699,4.7699,4.7886,4.7992,4.8012,0.0,0.0,4.8306,4.8306,4.8306,4.8306,4.8306,4.8306,4.8306,4.8306,4.8306,4.8306,4.8306,4.8306,4.8306,4.8306,4.8306,4.8306,4.8306,4.8306,0.0,0.0,0.0,0.0,0.0,0.0,0.0,0.0,0.0,0.0,0.0,0.0,0.0,0.0,0.0,5.3575,5.3872,5.4122,5.4639,5.3939,5.3414,5.3518,5.3972,5.4254,5.4254,5.4254,5.4206,5.4107,5.3972,5.3871,5.377,5.3309,5.3087,5.3194,5.2732,5.2537,5.2614,5.2614,5.267,5.2815,0.0,0.0,5.3734,5.4071,5.4339,5.4436,5.4436,5.4436,5.4399,5.3748,5.3096,5.248,5.2335,5.2263,5.2263,5.2082,5.2045,5.2045,5.2045,5.2045,5.2045,5.2045,5.2045,5.19,5.1249,5.109,0.0,5.0293,5.0112,5.0112,5.0112,5.0112,5.0112,5.0112,5.0112,5.0112,5.0112,5.0112,5.0075,4.9872,4.9872,4.98,4.9655,4.8568,4.7699,4.7699,4.7699,4.772,4.784,4.7902,4.8004,4.8148,4.8207,4.8246,4.8287,4.8306,4.8306,4.8306,4.8306,4.8306,4.8306,4.8306,4.8306,4.8306,4.8306,4.8306,4.8306,4.8306,4.8306,4.8306,4.8306,4.8306,0.0,0.0,0.0,0.0,0.0,0.0,0.0,0.0,0.0,0.0,0.0,5.3056,5.3936,0.0,5.3838,5.4447,5.4554,5.4811,5.5502,5.5355,5.4981,5.4511,5.4174,5.42,5.4858,5.4625,5.4403,5.4464,5.4464,5.4302,5.4008,5.3709,5.3548,5.3548,5.3238,5.3099,5.3099,5.3099,5.3238,5.3548,5.3548,5.3877,5.4464,5.4464,5.4589,5.4907,5.4907,5.4907,5.487,5.4472,5.4074,5.3711,5.3711,5.3204,5.248,5.248,5.248,5.248,5.248,5.248,5.248,5.248,5.248,5.2408,5.2009,5.19,5.1828,5.1393,5.1285,5.1285,5.1285,5.1285,5.1285,5.1285,5.1285,5.1285,5.1285,5.1285,5.1176,5.08,5.0728,5.056,5.0184,4.9438,4.8894,4.8894,4.8894,4.8937,4.908,4.878,4.8628,4.8789,4.8446,4.8248,4.8287,4.8306,4.8306,4.8306,4.8306,4.8306,4.8306,4.8306,4.8306,4.8306,4.8306,4.8306,4.8306,4.8306,4.8306,4.8306,4.8306,4.8306,0.0,0.0,0.0,0.0,0.0,0.0,0.0,5.2253,5.2925,5.374,5.4071,5.4437,5.5044,5.5158,5.5185,5.5294,5.5428,5.5723,5.6367,5.6474,5.6168,5.5437,5.4446,5.4225,5.5243,5.4871,5.4542,5.4629,5.4629,5.4411,5.3918,5.3891,5.3891,5.3891,5.3891,5.3891,5.3891,5.3891,5.4144,5.4629,5.4109,5.4384,5.5317,5.4845,5.4896,5.5341,5.5341,5.5269,5.5124,5.5124,5.5051,5.4907,5.4907,5.411,5.2951,5.2951,5.2951,5.2951,5.2951,5.2842,5.2733,5.2733,5.2625,5.248,5.248,5.248,5.248,5.248,5.248,5.248,5.248,5.248,5.248,5.248,5.248,5.248,5.248,5.248,5.2299,5.1647,5.1538,5.1321,5.0691,5.0583,5.0474,5.0148,5.0112,5.0134,5.0257,4.9783,4.945,4.959,4.9089,4.8764,4.8783,4.8636,4.8563,4.8526,4.8379,4.8306,4.8306,4.8306,4.8306,4.8306,4.8306,4.8306,4.8306,4.8306,4.8306,4.8306,4.8306,4.8306,5.0879,5.1488,5.1961,5.2029,5.306,5.4005,0.0,5.4009,5.4503,5.5724,5.4699,5.3979,5.5144,5.5314,5.5453,5.6059,5.6632,5.7004,5.7087,5.7112,5.704,5.6971,5.6834,5.6772,5.6935,5.6884,5.6859,5.6859,5.6859,5.6798,5.6747,5.6747,5.6747,5.6747,5.6747,5.6747,5.6747,5.6747,5.6772,5.6859,5.6772,5.6798,5.6935,5.6884,5.6884,5.6935,5.6935,5.6536,5.5884,5.5884,5.5486,5.4907,5.4907,5.4798,5.4653,5.4653,5.4653,5.4653,5.4653,5.4146,5.3566,5.3566,5.3096,5.248,5.248,5.248,5.248,5.248,5.248,5.248,5.248,5.248,5.248,5.248,5.248,5.248,5.248,5.248,5.248,5.2371,5.2371,5.2335,5.2226,5.2226,5.1756,5.0329,5.0112,5.0112,5.0112,5.0148,5.022,5.0289,5.0341,5.0407,5.0488,4.9848,4.9427,4.937,4.871,4.8306,4.8306,4.8306,4.8306,4.8306,4.8306,4.8306,4.8306,4.8306,4.8306,4.8306,4.8306,4.8306,5.115,5.2097,5.2875,5.2435,5.3331,5.429,5.3888,5.4121,5.4548,5.5064,5.4548,5.4425,5.5687,5.5887,5.5971,5.6257,5.6501,5.6661,5.6661,5.6661,5.6793,5.7163,5.7188,5.7188,5.7188,5.6907,5.6793,5.7163,5.7188,5.7188,5.7188,5.7188,5.7188,5.7188,5.7188,5.7188,5.7188,5.7188,5.7188,5.7188,5.7188,5.7188,5.7188,5.7188,5.7188,5.7188,5.7188,5.7007,5.6681,5.6681,5.65,5.6247,5.6247,5.6247,5.6138,5.5233,5.4907,5.4907,5.4907,5.4689,5.4399,5.4399,5.4182,5.3892,5.3892,5.3892,5.3892,5.3892,5.3892,5.3892,5.3892,5.3566,5.3204,5.3204,5.2842,5.248,5.248,5.248,5.248,5.248,5.248,5.248,5.248,5.248,5.2263,5.1574,5.1502,5.1511,5.1542,5.1253,5.0946,5.0675,5.0664,5.0762,5.0802,5.0472,5.0288,5.0251,4.9958,4.9738,4.9738,4.9738,4.9738,4.9738,4.9297,4.904,4.9003,4.8526,4.8306,4.8306,4.8306,4.8306,5.186,5.2672,5.3382,5.2773,5.3502,5.4264,5.3849,5.4074,5.4391,5.4391,5.4391,5.4703,5.5601,5.5915,5.6118,5.6284,5.6311,5.6366,5.6528,5.6555,5.6688,5.7138,5.7188,5.7188,5.7188,5.6793,5.6714,5.7163,5.7188,5.7188,5.7188,5.7188,5.7188,5.7188,5.7406,5.7514,5.7514,5.7732,5.7876,5.7876,5.7876,5.7876,5.7876,5.7876,5.7876,5.7876,5.7876,5.7876,5.784,5.7623,5.7514,5.7514,5.7297,5.7188,5.7043,5.5957,5.5522,5.5522,5.5522,5.5377,5.5196,5.5196,5.5088,5.4907,5.4907,5.4907,5.4907,5.4907,5.4907,5.4907,5.4907,5.4472,5.4037,5.4037,5.3603,5.3168,5.3168,5.3168,5.3168,5.3168,5.3168,5.3168,5.3168,5.3168,5.3096,5.2842,5.2842,5.278,5.2627,5.2251,5.1819,5.1438,5.1442,5.1463,5.1463,5.1242,5.1132,5.1132,5.0912,5.0802,5.0802,5.0802,5.0802,5.0802,5.0215,4.9884,4.9848,4.926,4.9003,4.9003,4.9003,4.9003,5.345,5.345,5.3484,5.3484,5.3946,5.4391,5.4391,5.4391,5.4391,5.4391,5.4391,5.4422,5.4454,5.4978,5.5636,5.6201,5.6311,5.6501,5.7087,5.7163,5.7163,5.7188,5.7188,5.7188,5.7188,5.7163,5.7163,5.7188,5.7188,5.7188,5.7188,5.7188,5.7188,5.7188,5.7949,5.8347,5.8347,5.9144,5.9542,5.9542,5.9542,5.9542,5.9542,5.9542,5.9542,5.9542,5.9542,5.9542,5.947,5.8709,5.8347,5.8275,5.7514,5.7188,5.7188,5.7152,5.7116,5.7116,5.7116,5.6609,5.5957,5.5957,5.5486,5.4907,5.4907,5.4907,5.4907,5.4907,5.4907,5.4907,5.4907,5.487,5.487,5.487,5.4834,5.4834,5.4834,5.4834,5.4834,5.4834,5.4834,5.4834,5.4834,5.4834,5.4581,5.3784,5.3675,5.3396,5.2699,5.2813,5.2944,5.2907,5.3051,5.3151,5.3151,5.2417,5.194,5.194,5.1242,5.0802,5.0802,5.0802,5.0802,5.0802,5.0765,5.0765,5.0765,5.0729,5.0729,5.0729,5.0729,5.0729,5.3518,5.3518,5.3518,5.3518,5.3946,5.4296,5.3881,5.4106,5.4264,5.3881,5.4191,5.4665,5.5053,5.5684,5.6347,5.6921,5.6967,5.6984,5.7163,5.7188,5.7188,5.7188,5.7188,5.7188,5.7188,5.7188,5.7188,5.7188,5.7188,5.7442,5.7985,5.7985,5.8239,5.8782,5.9072,5.9216,5.9216,5.947,5.9615,5.9615,5.9615,5.9615,5.9615,5.9615,5.9615,5.9615,5.9615,5.9615,5.9579,5.9325,5.9216,5.918,5.8891,5.8782,5.8782,5.8782,5.8782,5.8637,5.755,5.7007,5.679,5.679,5.6609,5.6428,5.6428,5.6428,5.6428,5.6428,5.6428,5.6428,5.6428,5.6029,5.5631,5.5631,5.5269,5.4907,5.4907,5.4907,5.4907,5.4907,5.4907,5.4907,5.4907,5.4907,5.4822,5.4604,5.3647,5.2895,5.2753,5.2893,5.3002,5.3124,5.3167,5.3203,5.3203,5.2968,5.2821,5.2821,5.2564,5.2417,5.2417,5.2417,5.2417,5.2417,5.1867,5.161,5.1573,5.1059,5.0802,5.0802,5.0802,5.0802,5.3484,5.3518,5.3518,5.3518,5.3783,5.3979,5.3584,5.3816,5.3979,5.3584,5.4262,5.504,5.54,5.6067,5.6775,5.7669,5.7541,5.7381,5.7597,5.7623,5.7514,5.7224,5.7188,5.7297,5.7587,5.7623,5.7623,5.7623,5.7913,5.8275,5.8818,5.8818,5.9072,5.9579,5.9905,6.005,6.005,6.0339,6.0484,6.0484,6.0484,6.0484,6.0484,6.0484,6.0484,6.0484,6.0484,6.0484,6.0448,6.0158,6.005,6.0013,5.9724,5.9615,5.9615,5.9615,5.9615,5.9434,5.8094,5.7623,5.7587,5.7297,5.7188,5.7188,5.7188,5.7188,5.7188,5.7188,5.7188,5.7188,5.7188,5.6826,5.6428,5.6428,5.6066,5.574,5.574,5.574,5.574,5.574,5.574,5.574,5.574,5.5486,5.5293,5.5329,5.4275,5.3508,5.3658,5.3837,5.3946,5.4004,5.4047,5.3959,5.3665,5.3628,5.3518,5.3203,5.3203,5.3203,5.3203,5.3203,5.3203,5.3203,5.2711,5.2417,5.2417,5.1903,5.1683,5.1683,5.1683,5.1683,5.345,5.3518,5.3518,5.3518,5.3518,5.3518,5.3518,5.3518,5.3518,5.3551,5.4595,5.5501,5.557,5.614,5.7057,5.8388,5.8024,5.7801,5.8378,5.8456,5.8166,5.7406,5.7333,5.7623,5.8383,5.8492,5.8528,5.8528,5.918,5.9615,5.9651,5.9651,5.9687,5.9724,6.0484,6.0856,6.0856,6.1616,6.1978,6.1978,6.1978,6.1978,6.1978,6.1978,6.1978,6.1978,6.1978,6.1978,6.1942,6.1181,6.0856,6.081,6.0013,5.9724,5.9724,5.9724,5.9724,5.9615,5.8818,5.8492,5.8347,5.755,5.7333,5.7333,5.7333,5.7297,5.7261,5.7261,5.7224,5.7188,5.7188,5.7188,5.7188,5.7188,5.7188,5.7188,5.7188,5.7188,5.7188,5.7188,5.7188,5.7188,5.7188,5.6573,5.6066,5.6066,5.5535,5.5145,5.5189,5.5418,5.553,5.5418,5.5507,5.528,5.4509,5.4473,5.4142,5.335,5.3314,5.3314,5.3314,5.3314,5.3298,5.324,5.324,5.3261,5.3203,5.3203,5.3203,5.3203,5.3203,5.3203,5.3518,5.3518,5.3518,5.3518,5.3518,5.3518,5.3518,5.3518,5.3653,5.4194,5.5042,5.5791,5.6369,5.7417,5.8316,5.8712,5.8938,5.9131,5.9263,5.9289,5.9216,5.8999,5.8999,5.9072,5.9289,5.9832,6.0194,6.0194,5.9832,5.9868,6.0484,6.0484,6.0774,6.1362,6.158,6.1688,6.1688,6.1906,6.1978,6.1978,6.1978,6.1978,6.1978,6.1978,6.1978,6.1978,6.1978,6.1978,6.1978,6.1761,6.1688,6.1652,6.1471,6.1362,6.1362,6.1362,6.1362,6.1254,6.0484,5.9796,5.9253,5.9072,5.8999,5.8999,5.8999,5.8565,5.8094,5.8094,5.7659,5.7188,5.7188,5.7188,5.7188,5.7188,5.7188,5.7188,5.7188,5.7188,5.7188,5.7188,5.7188,5.7188,5.7188,5.7043,5.6899,5.6899,5.6915,5.6538,5.5358,5.535,5.5463,5.553,5.5574,5.5522,5.5317,5.528,5.5207,5.4987,5.4987,5.4987,5.4987,5.4987,5.4693,5.4106,5.4106,5.3812,5.3203,5.3203,5.3203,5.3203,5.3203,5.3203,5.3484,5.3518,5.3518,5.3518,5.3518,5.3585,5.3923,5.3991,5.4194,5.4938,5.5683,5.6325,5.6731,5.7907,5.8917,5.9268,5.9788,6.0122,6.0122,6.0122,6.0013,5.9651,5.9615,5.976,6.0086,6.0557,6.0955,6.129,6.0892,6.0846,6.129,6.1326,6.1507,6.1978,6.1978,6.1978,6.1978,6.1978,6.1978,6.1978,6.1978,6.1978,6.1978,6.1978,6.1978,6.1978,0.0,6.1978,6.1978,6.1978,6.1978,6.1978,6.1978,6.1978,6.1978,6.1978,6.1978,6.1942,6.1471,6.1,6.0557,5.9832,5.9615,5.9615,5.9615,5.9289,5.8927,5.8927,5.8601,5.8239,5.8239,5.7985,5.7732,5.7732,5.7442,5.7188,5.7188,5.7188,5.7188,5.7188,5.7188,5.7188,5.7188,5.7188,5.7188,5.7188,5.7313,5.711,5.6284,5.6387,5.6571,5.6638,5.6638,5.6492,5.6161,5.6124,5.5978,5.5611,5.5596,5.5596,5.5596,5.5596,5.539,5.495,5.4913,5.4693,5.4252,5.4252,5.4252,5.4252,5.4252,5.4252,5.345,5.3518,5.3518,5.3518,5.3518,5.3687,5.4431,5.46,5.4837,5.5683,5.6359,5.6833,5.6934,5.7978,5.9067,5.9861,6.0474,6.0847,6.0928,6.0964,6.0701,6.0013,5.9941,6.0194,6.0892,6.0964,6.1254,6.1942,6.1978,6.1978,6.1978,6.1978,6.1978,6.1978,6.1978,6.1978,6.1978,6.1978,6.1978,6.1978,6.1978,6.1978,6.1978,6.1978,6.1978,6.1978,6.1978,6.1978,6.1978,6.1978,6.1978,6.1978,6.1978,6.1978,6.1978,6.1978,6.1978,6.1978,6.1978,6.1978,6.1761,6.0375,5.9941,5.9941,5.9941,5.9832,5.976,5.976,5.9687,5.9615,5.9615,5.9072,5.8565,5.8565,5.8021,5.7514,5.7514,5.7442,5.7369,5.7369,5.7261,5.7188,5.7188,5.7188,5.7188,5.7188,5.7213,5.7264,5.7388,5.7703,5.795,5.7973,5.7997,5.7703,5.7042,5.6969,5.6675,5.5941,5.5904,5.5904,5.5904,5.5904,5.589,5.5757,5.5757,5.5706,5.5596,5.5596,5.5596,5.5596,5.5596,5.5596,5.3518,5.3518,5.3518,5.3518,5.3518,5.3687,5.4431,5.46,5.4972,5.6325,5.6697,5.7002,5.7577,5.8358,5.9107,5.9902,6.0544,6.1157,6.1706,6.1761,6.1725,6.158,6.158,6.1616,6.1761,6.1761,6.1833,6.1978,6.1978,6.1978,6.1978,6.1978,6.1978,6.1978,6.1978,6.1978,6.1978,6.1978,6.1978,6.1978,6.1978,6.1978,6.1978,6.1978,6.1978,6.1978,6.1978,0.0,6.1978,6.1978,6.1978,6.1978,6.1978,6.1978,6.1978,6.1978,6.1978,6.1978,6.1978,6.1978,6.1942,6.1652,6.158,6.158,6.158,6.1136,6.0593,6.0593,6.0122,5.9615,5.9615,5.9506,5.9398,5.9398,5.9289,5.918,5.918,5.8673,5.8202,5.8202,5.7659,5.7188,5.7188,5.7188,5.7188,5.7188,5.7289,5.7412,5.7534,5.7607,5.7703,5.7834,5.7927,5.7923,5.7813,5.7776,5.774,5.7593,5.7556,5.7556,5.7556,5.7556,5.7262,5.6602,5.6602,5.6271,5.5596,5.5596,5.5596,5.5596,5.5596,5.5596,5.345,5.3518,5.3518,5.3518,5.3518,5.3788,5.4938,5.5175,5.5581,5.707,5.7374,5.762,5.8284,5.9011,5.9709,6.0406,6.1075,6.1636,6.195,6.1978,6.1978,6.1978,6.1978,6.1978,6.1978,6.1978,6.1978,6.1978,6.1978,6.1978,6.1978,6.1978,6.1978,6.1978,6.1978,6.1978,6.1978,6.1978,6.1978,6.1978,6.1978,6.1978,6.1978,6.1978,6.1978,6.1978,6.1978,0.0,6.1978,6.1978,6.1978,6.1978,6.1978,6.1978,6.1978,6.1978,6.1978,6.1978,6.1978,6.1978,6.1978,6.1978,6.1978,6.1978,6.1978,6.1725,6.1399,6.1399,6.1172,6.0846,6.0846,6.0557,6.0231,6.0231,5.9905,5.9615,5.9615,5.9289,5.9035,5.9035,5.8709,5.8456,5.8456,5.8456,5.8311,5.7876,5.7891,5.7785,5.746,5.751,5.7655,5.7881,5.7973,5.7997,5.7997,5.7997,5.7997,5.7997,5.7997,5.7997,5.7997,5.7997,5.7813,5.7446,5.7409,5.7226,5.6859,5.6859,5.6859,5.6859,5.6859,5.6859,5.345,5.3518,5.3518,5.3518,5.3518,5.389,5.5378,5.5681,5.6122,5.7577,5.7881,5.8101,5.8772,5.938,6.003,6.0867,6.143,6.184,6.1978,6.1978,6.1978,6.1978,6.1978,6.1978,6.1978,6.1978,6.1978,6.1978,6.1978,6.1978,6.1978,6.1978,6.1978,6.1978,6.1978,6.1978,6.1978,6.1978,6.1978,6.1978,6.1978,6.1978,6.1978,6.1978,6.1978,6.1978,6.1978,6.1978,0.0,6.1978,6.1978,6.1978,6.1978,6.1978,6.1978,6.1978,6.1978,6.1978,6.1978,6.1978,6.1978,6.1978,6.1978,6.1978,6.1978,6.1978,6.1978,6.1978,6.1978,6.1978,6.1978,6.1507,6.1037,6.1037,6.0593,6.0122,6.0122,5.9977,5.9868,5.9868,5.9724,5.9615,5.9615,5.9615,5.9398,5.8746,5.8673,5.842,5.7855,5.7946,5.8227,5.844,5.8194,5.7997,5.7997,5.7997,5.7997,5.7997,5.7997,5.7997,5.7997,5.7997,5.7997,5.7997,5.7997,5.7997,5.7997,5.7997,5.7997,5.7997,5.7997,5.7997,5.345,5.3518,5.3518,5.3518,5.3518,5.389,5.5378,5.5681,5.6122,5.7577,5.7881,5.8101,5.8772,5.8977,5.9412,6.0777,6.1045,6.1315,6.1923,6.1978,6.1978,6.1978,6.1978,6.1978,6.1978,6.1978,6.1978,6.1978,6.1978,6.1978,6.1978,6.1978,6.1978,6.1978,6.1978,6.1978,6.1978,6.1978,6.1978,6.1978,6.1978,6.1978,6.1978,6.1978,6.1978,6.1978,6.1978,6.1978,0.0,6.1978,6.1978,6.1978,6.1978,6.1978,6.1978,6.1978,6.1978,6.1978,6.1978,6.1978,6.1978,6.1978,6.1978,6.1978,6.1978,6.1978,6.1978,6.1978,6.1978,6.1978,6.1978,6.1942,6.1869,6.1869,6.1833,6.1761,6.1761,6.1181,6.0701,6.0701,6.0122,5.9615,5.9615,5.9615,5.9579,5.9506,5.9506,5.9522,5.9553,5.967,5.9846,5.9969,5.8807,5.7997,5.7997,5.7997,5.7997,5.7997,5.7997,5.7997,5.7997,5.7997,5.7997,5.7997,5.7997,5.7997,5.7997,5.7997,5.7997,5.7997,5.7997,5.7997,5.345,5.3518,5.3518,5.3518,5.3822,5.4431,5.548,5.6055,5.6664,5.7679,5.7881,5.8244,5.9347,5.9578,6.003,6.1372,6.1608,6.1692,6.195,6.1978,6.1978,6.1978,6.1978,6.1978,6.1978,6.1978,6.1978,6.1978,6.1978,6.1978,6.1978,6.1978,6.1978,6.1978,6.1978,6.1978,6.1978,6.1978,6.1978,6.1978,6.1978,6.1978,6.1978,6.1978,6.1978,6.1978,6.1978,6.1978,0.0,6.1978,6.1978,6.1978,6.1978,6.1978,6.1978,6.1978,6.1978,6.1978,6.1978,6.1978,6.1978,6.1978,6.1978,6.1978,6.1978,6.1978,6.1978,6.1978,6.1978,6.1978,6.1978,6.1978,6.1978,6.1978,6.1978,6.1978,6.1978,6.1725,6.1507,6.1507,6.1254,6.1064,6.1064,6.1064,6.0883,6.0412,6.0339,6.0158,5.9766,5.9863,6.0015,6.0065,5.9273,5.8731,5.8731,5.829,5.7997,5.7997,5.7997,5.7997,5.7997,5.7997,5.7997,5.7997,5.7997,5.7997,5.7997,5.7997,5.7997,5.7997,5.7997,5.7997,5.3348,5.345,5.3518,5.3518,5.4059,5.4769,5.5547,5.6292,5.7002,5.7746,5.7881,5.8351,5.9741,5.9998,6.0437,6.1776,6.1978,6.1978,6.1978,6.1978,6.1978,6.1978,6.1978,6.1978,6.1978,6.1978,6.1978,6.1978,6.1978,6.1978,6.1978,6.1978,6.1978,6.1978,6.1978,6.1978,6.1978,6.1978,6.1978,6.1978,6.1978,6.1978,6.1978,6.1978,6.1978,6.1978,6.1978,6.1978,0.0,6.1978,6.1978,6.1978,6.1978,6.1978,6.1978,6.1978,6.1978,6.1978,6.1978,6.1978,6.1978,6.1978,6.1978,6.1978,6.1978,6.1978,6.1978,6.1978,6.1978,6.1978,6.1978,6.1978,6.1978,6.1978,6.1978,6.1978,6.1978,6.1978,6.1978,6.1978,6.1978,6.1978,6.1978,6.1978,6.1824,6.1299,6.1226,6.1009,6.0429,6.0617,6.0733,6.0719,6.0213,5.9832,5.9588,5.9061,5.8621,5.8364,5.8364,5.8253,5.7997,5.7997,5.7997,5.7997,5.7997,5.7997,5.7997,5.7997,5.7997,5.7997,5.7997,5.7997,5.3144,5.3348,5.3518,5.3518,5.4059,5.4769,5.5547,5.6292,5.7002,5.7746,5.7881,5.8351,5.9741,5.9998,6.0437,6.1776,6.1978,6.1978,6.1978,6.1978,6.1978,6.1978,6.1978,6.1978,6.1978,6.1978,6.1978,6.1978,6.1978,6.1978,6.1978,6.1978,6.1978,6.1978,6.1978,6.1978,6.1978,6.1978,6.1978,6.1978,6.1978,6.1978,6.1978,6.1978,6.1978,6.1978,6.1978,0.0,0.0,6.1978,6.1978,6.1978,6.1978,6.1978,6.1978,6.1978,6.1978,6.1978,6.1978,6.1978,6.1978,6.1978,6.1978,6.1978,6.1978,6.1978,6.1978,6.1978,6.1978,6.1978,6.1978,6.1978,6.1978,6.1978,6.1978,6.1978,6.1978,6.1978,6.1978,6.1978,6.1978,6.1978,6.1978,6.1978,6.2033,6.2158,6.2185,6.2185,6.2185,6.2386,6.2515,6.2397,6.1897,6.1263,6.0456,6.0382,6.0052,5.9221,5.9184,5.8817,5.8033,5.7997,5.7997,5.7997,5.7997,5.7997,5.7997,5.7997,5.7997,5.7997,5.7997,5.7997,5.3144,5.3247,5.3348,5.3484,5.4431,5.5412,5.5683,5.6664,5.7611,5.7848,5.7881,5.8351,5.9741,5.9998,6.0437,6.1776,6.1978,6.1978,6.1978,6.1978,6.1978,6.1978,6.1978,6.1978,6.1978,6.1978,6.1978,6.1978,6.1978,6.1978,6.1978,6.1978,6.1978,6.1978,6.1978,6.1978,6.1978,6.1978,6.1978,6.1978,6.1978,6.1978,6.1978,6.1978,6.1978,6.1978,6.1978,0.0,0.0,6.1978,6.1978,6.1978,6.1978,6.1978,6.1978,6.1978,6.1978,6.1978,6.1978,6.1978,6.1978,6.1978,6.1978,6.1978,6.1978,6.1978,6.1978,6.1978,6.1978,6.1978,6.1978,6.1978,6.1978,6.1978,6.1978,6.1978,6.1978,6.1978,6.1978,6.1978,6.1978,6.1978,6.1978,6.1978,6.2005,6.206,6.2141,6.2185,6.2185,6.2423,6.2578,6.2526,6.2485,6.2108,6.13,6.0713,6.0309,6.0052,6.0015,5.9905,5.9648,5.9648,5.9391,5.8817,5.8841,5.8547,5.7997,5.7997,5.7997,5.7997,5.7997,5.7997,5.2972,5.311,5.3348,5.3382,5.4531,5.5681,5.5681,5.6833,5.7881,5.7881,5.7881,5.8351,5.9741,5.9998,6.0437,6.1776,6.1978,6.1978,6.1978,6.1978,6.1978,6.1978,6.1978,6.1978,6.1978,6.1978,6.1978,6.1978,6.1978,6.1978,6.1978,6.1978,6.1978,6.1978,6.1978,6.1978,6.1978,6.1978,6.1978,6.1978,6.1978,6.1978,6.1978,6.1978,6.1978,6.1978,6.1978,0.0,0.0,6.1978,6.1978,6.1978,6.1978,6.1978,6.1978,6.1978,6.1978,6.1978,6.1978,6.1978,6.1978,6.1978,6.1978,6.1978,6.1978,6.1978,6.1978,6.1978,6.1978,6.1978,6.1978,6.1978,6.1978,6.1978,6.1978,6.1978,6.1978,6.1978,6.1978,6.1978,6.1978,6.1978,6.1978,6.1978,6.2005,6.206,6.2195,6.2301,6.2301,6.25,6.2654,6.2603,6.2705,6.2622,6.2108,6.1594,6.119,6.086,6.086,6.0713,6.0419,6.0419,6.0162,5.9685,5.9625,5.9428,5.8914,5.8621,5.829,5.7997,5.7997,5.7997,0.0,5.304,5.3416,5.3247,5.4462,5.5681,5.5681,5.6869,0.0,5.7918,5.7954,5.8386,5.9741,5.9998,6.0437,6.1776,6.1978,6.1978,6.1978,6.1978,6.1978,6.1978,6.1978,6.1978,6.1978,6.1978,6.1978,6.1978,6.1978,6.1978,6.1978,6.1978,6.1978,6.1978,6.1978,6.1978,6.1978,6.1978,6.1978,6.1978,6.1978,6.1978,6.1978,6.1978,6.1978,0.0,0.0,0.0,0.0,6.1978,6.1978,6.1978,6.1978,6.1978,6.1978,6.1978,6.1978,6.1978,6.1978,6.1978,6.1978,6.1978,6.1978,6.1978,6.1978,6.1978,6.1978,6.1978,6.1978,6.1978,6.1978,6.1978,6.1978,6.1978,6.1978,6.1978,6.1978,6.1978,6.1978,6.1978,6.1978,6.1978,6.1978,6.1978,6.2033,6.2195,6.2291,6.2407,6.2407,6.2629,6.2755,6.2629,6.273,6.278,6.278,6.278,6.2475,6.1741,6.1704,6.1337,6.0603,6.0566,6.0529,6.0493,6.0419,6.0419,6.0419,5.9625,5.8914,5.818,5.8107,5.8107,5.2729,0.0,5.3314,5.3382,5.4566,5.5681,0.0,5.7258,5.8528,5.8027,5.8281,5.8943,5.9838,5.9998,6.0437,6.1776,6.1978,6.1978,6.1978,6.1978,6.1978,6.1978,6.1978,6.1978,6.1978,6.1978,6.1978,6.1978,6.1978,6.1978,6.1978,6.1978,6.1978,6.1978,6.1978,6.1978,6.1978,6.1978,6.1978,6.1978,6.1978,6.1978,6.1978,6.1978,6.1978,0.0,0.0,0.0,6.1978,6.1978,6.1978,6.1978,6.1978,6.1978,6.1978,6.1978,6.1978,6.1978,6.1978,6.1978,6.1978,6.1978,6.1978,6.1978,6.1978,6.1978,6.1978,6.1978,6.1978,6.1978,6.1978,6.1978,6.1978,6.1978,6.1978,6.1978,6.1978,6.1978,6.1978,6.1978,6.1978,6.1978,6.1978,6.1978,6.2005,6.2033,6.2248,6.2407,6.2407,6.2629,6.278,6.2755,6.278,6.278,6.278,6.278,6.2707,6.2548,6.2511,6.2438,6.2254,6.2254,6.1961,6.1337,6.0713,6.0419,6.0419,6.0236,6.0015,5.9832,5.9208,5.8914,5.2868,5.3007,5.3348,5.3348,5.4295,5.5277,5.5649,5.6846,5.7907,5.7923,5.8209,5.8737,5.9806,5.9998,6.0437,6.1776,6.1978,6.1978,6.1978,6.1978,6.1978,6.1978,6.1978,6.1978,6.1978,6.1978,6.1978,6.1978,6.1978,6.1978,6.1978,6.1978,6.1978,6.1978,6.1978,6.1978,6.1978,6.1978,6.1978,6.1978,6.1978,6.1978,6.1978,6.1978,6.1978,0.0,0.0,0.0,6.1978,6.1978,6.1978,6.1978,6.1978,6.1978,6.1978,6.1978,6.1978,6.1978,6.1978,6.1978,6.1978,6.1978,6.1978,6.1978,6.1978,6.1978,6.1978,6.1978,6.1978,6.1978,6.1978,6.1978,6.1978,6.1978,6.1978,6.1978,6.1978,6.1978,6.1978,6.1978,6.1978,6.2005,6.2087,6.2033,6.2005,6.2087,6.2275,6.2407,6.2407,6.2629,6.278,6.278,6.278,6.278,6.278,6.278,6.278,6.278,6.278,6.278,6.278,6.278,6.2622,6.2144,6.1741,6.1337,6.0933,6.0933,6.075,6.0382,5.9942,5.9758,5.3007,5.3212,5.345,5.3314,5.3923,5.4769,5.5547,5.6328,5.7145,5.7782,5.8099,5.8563,5.9774,5.9998,6.0437,6.1776,6.1978,6.1978,6.1978,6.1978,6.1978,6.1978,6.1978,6.1978,6.1978,6.1978,6.1978,6.1978,6.1978,6.1978,6.1978,6.1978,6.1978,6.1978,6.1978,6.1978,6.1978,6.1978,6.1978,6.1978,6.1978,6.1978,6.1978,6.1978,6.1978,6.1978,0.0,0.0,6.1978,6.1978,6.1978,6.1978,6.1978,6.1978,6.1978,6.1978,6.1978,6.1978,6.1978,6.1978,6.1978,6.1978,6.1978,6.1978,6.1978,6.1978,6.1978,6.1978,6.1978,6.1978,6.1978,6.1978,6.1978,6.1978,6.1978,6.1978,6.1978,6.1978,6.1978,6.1978,6.1978,6.2033,6.2195,6.2087,6.2033,6.2158,6.2291,6.2407,6.2407,6.2629,6.278,6.278,6.278,6.278,6.278,6.278,6.278,6.278,6.278,6.278,6.278,6.278,6.278,6.278,6.278,6.2475,6.1777,6.1777,6.1447,6.0786,6.0639,6.0566,5.3007,5.3212,5.3518,5.345,5.4059,5.4769,5.5547,5.6713,5.7672,5.7857,5.8841,5.9741,5.9966,5.9998,6.0437,6.1776,6.1978,6.1978,6.1978,6.1978,6.1978,6.1978,6.1978,6.1978,6.1978,6.1978,6.1978,6.1978,6.1978,6.1978,6.1978,6.1978,6.1978,6.1978,6.1978,6.1978,6.1978,6.1978,6.1978,6.1978,6.1978,6.1978,6.1978,6.1978,6.1978,6.1978,0.0,6.1978,6.1978,6.1978,6.1978,6.1978,6.1978,6.1978,6.1978,6.1978,6.1978,6.1978,6.1978,6.1978,6.1978,6.1978,6.1978,6.1978,6.1978,6.1978,6.1978,6.1978,6.1978,6.1978,6.1978,6.1978,6.1978,6.1978,6.1978,6.1978,6.1978,6.1978,6.1978,6.1978,6.1978,6.2033,6.2195,6.2087,6.2033,6.2158,6.2291,6.2407,6.2407,6.2629,6.278,6.278,6.278,6.278,6.278,6.278,6.278,6.278,6.278,6.278,6.278,6.278,6.278,6.278,6.278,6.2768,6.2622,6.2622,6.2548,6.2413,6.1741,6.141,5.3007,5.3212,5.3518,5.3518,5.3754,5.4194,5.4938,5.5927,5.6884,5.7671,5.8667,5.9644,6.0406,6.0251,6.0313,6.1315,6.1748,6.1978,6.1978,6.1978,6.1978,6.1978,6.1978,6.1978,6.1978,6.1978,6.1978,6.1978,6.1978,6.1978,6.1978,6.1978,6.1978,6.1978,6.1978,6.1978,6.1978,6.1978,6.1978,6.1978,6.1978,6.1978,6.1978,6.1978,6.1978,6.1978,0.0,6.1978,6.1978,6.1978,6.1978,6.1978,6.1978,6.1978,6.1978,6.1978,6.1978,6.1978,6.1978,6.1978,6.1978,6.1978,6.1978,6.1978,6.1978,6.1978,6.1978,6.1978,6.1978,6.1978,6.1978,6.1978,6.1978,6.1978,6.1978,6.1978,6.1978,6.1978,6.1978,6.1978,6.1978,6.206,6.2265,6.2222,6.2168,6.2265,6.2344,6.2407,6.2407,6.2578,6.2705,6.278,6.278,6.278,6.278,6.278,6.278,6.278,6.278,6.278,6.278,6.278,6.278,6.278,6.278,6.278,6.278,6.278,6.278,6.278,6.2438,6.2254,5.3007,5.3212,5.3518,5.3518,5.3518,5.3687,5.4431,5.5175,5.6096,5.7499,5.8392,5.9279,6.0529,6.0468,6.0344,6.0681,6.1458,6.1978,6.1978,6.1978,6.1978,6.1978,6.1978,6.1978,6.1978,6.1978,6.1978,6.1978,6.1978,6.1978,6.1978,6.1978,6.1978,6.1978,6.1978,6.1978,6.1978,6.1978,6.1978,6.1978,6.1978,6.1978,6.1978,6.1978,6.1978,6.1978,6.1978,6.1978,6.1978,6.1978,6.1978,6.1978,6.1978,6.1978,6.1978,6.1978,6.1978,6.1978,6.1978,6.1978,6.1978,6.1978,6.1978,6.1978,6.1978,6.1978,6.1978,6.1978,6.1978,6.1978,6.1978,6.1978,6.1978,6.1978,6.1978,6.1978,6.1978,6.1978,6.1978,6.1978,6.1978,6.2087,6.2354,6.2265,6.2275,6.2407,6.2407,6.2407,6.2407,6.25,6.2654,6.278,6.278,6.278,6.278,6.278,6.278,6.278,6.278,6.278,6.278,6.278,6.278,6.278,6.278,6.278,6.278,6.278,6.278,6.278,6.278,6.278,5.3007,5.3212,5.3518,5.3518,5.3518,5.3687,5.4431,5.5175,5.6096,5.7499,5.8392,5.9112,5.9934,6.0529,6.0711,6.0156,6.1169,6.1978,6.1978,6.1978,6.1978,6.1978,6.1978,6.1978,6.1978,6.1978,6.1978,6.1978,6.1978,6.1978,6.1978,6.1978,6.1978,6.1978,6.1978,6.1978,6.1978,6.1978,6.1978,6.1978,6.1978,6.1978,6.1978,6.1978,6.1978,6.1978,6.1978,6.1978,6.1978,6.1978,6.1978,6.1978,6.1978,6.1978,6.1978,6.1978,6.1978,6.1978,6.1978,6.1978,6.1978,6.1978,6.1978,6.1978,6.1978,6.1978,6.1978,6.1978,6.1978,6.1978,6.1978,6.1978,6.1978,6.1978,6.1978,6.1978,6.1978,6.1978,6.1978,6.1978,6.1978,6.2087,6.2354,6.2265,6.2275,6.2407,6.2407,6.2407,6.2407,6.25,6.2654,6.278,6.278,6.278,6.278,6.278,6.278,6.278,6.278,6.278,6.278,6.278,6.278,6.278,6.278,6.278,6.278,6.278,6.278,6.278,6.278,6.278,5.3007,5.3212,5.3518,5.3518,5.3518,5.3585,5.3856,5.5145,5.6472,5.7013,5.8413,5.9676,5.9934,6.0529,6.0927,6.0656,6.1372,6.1978,6.1978,6.1978,6.1978,6.1978,6.1978,6.1978,6.1978,6.1978,6.1978,6.1978,6.1978,6.1978,6.1978,6.1978,6.1978,6.1978,6.1978,6.1978,6.1978,6.1978,6.1978,6.1978,6.1978,6.1978,6.1978,6.1978,6.1978,6.1978,6.1978,6.1978,6.1978,6.1978,6.1978,6.1978,6.1978,6.1978,6.1978,6.1978,6.1978,6.1978,6.1978,6.1978,6.1978,6.1978,6.1978,6.1978,6.1978,6.1978,6.1978,6.1978,6.1978,6.1978,6.1978,6.1978,6.1978,6.1978,6.1978,6.1978,6.1978,6.1978,6.1978,6.1978,6.1978,6.2087,6.2354,6.2381,6.2344,6.25,6.2449,6.2423,6.25,6.25,6.2552,6.278,6.278,6.278,6.278,6.278,6.278,6.278,6.278,6.278,6.278,6.278,6.278,6.278,6.278,6.278,6.278,6.278,6.278,6.278,6.278,6.278,5.3076,5.3246,5.3518,5.3518,5.3518,5.3518,5.3518,5.5008,5.6503,5.6928,5.8628,5.9934,5.9709,6.0406,6.0986,6.0986,6.1579,6.1978,6.1978,6.1978,6.1978,6.1978,6.1978,6.1978,6.1978,6.1978,6.1978,6.1978,6.1978,6.1978,6.1978,6.1978,6.1978,6.1978,6.1978,6.1978,6.1978,6.1978,6.1978,6.1978,6.1978,6.1978,6.1978,6.1978,6.1978,6.1978,6.1978,6.1978,6.1978,6.1978,6.1978,6.1978,6.1978,6.1978,6.1978,6.1978,6.1978,6.1978,6.1978,6.1978,6.1978,6.1978,6.1978,6.1978,6.1978,6.1978,6.1978,6.1978,6.1978,6.1978,6.1978,6.1978,6.1978,6.1978,6.1978,6.1978,6.1978,6.1978,6.1978,6.1978,6.1978,6.206,6.2301,6.2344,6.2423,6.2526,6.2475,6.2475,6.2526,6.2475,6.2552,6.2755,6.278,6.278,6.278,6.278,6.278,6.278,6.278,6.278,6.278,6.278,6.278,6.278,6.278,6.278,6.278,6.278,6.278,6.278,6.278,6.278,5.3247,5.3348,5.3518,5.3518,5.3518,5.3518,5.3518,5.4634,5.6099,5.7405,5.8913,5.9774,5.9011,6.0058,6.1016,6.1016,6.1579,6.1978,6.1978,6.1978,6.1978,6.1978,6.1978,6.1978,6.1978,6.1978,6.1978,6.1978,6.1978,6.1978,6.1978,6.1978,6.1978,6.1978,6.1978,6.1978,6.1978,6.1978,6.1978,6.1978,6.1978,6.1978,6.1978,6.1978,6.1978,6.1978,6.1978,6.1978,6.1978,6.1978,6.1978,6.1978,6.1978,6.1978,6.1978,6.1978,6.1978,6.1978,6.1978,6.1978,6.1978,6.1978,6.1978,6.1978,6.1978,6.1978,6.1978,6.1978,6.1978,6.1978,6.1978,6.1978,6.1978,6.1978,6.1978,6.1978,6.1978,6.1978,6.1978,6.1978,6.1978,6.2033,6.2195,6.2291,6.2407,6.2397,6.25,6.2552,6.2433,6.25,6.2654,6.278,6.278,6.278,6.278,6.278,6.278,6.278,6.278,6.278,6.278,6.278,6.278,6.278,6.278,6.278,6.278,6.278,6.278,6.278,6.278,6.278,5.3781,5.365,5.3518,5.3518,5.3518,5.3618,5.4044,5.5305,5.6778,5.8246,5.89,5.9347,5.9611,6.0406,6.1133,6.1636,6.1868,6.1978,6.1978,6.1978,6.1978,6.1978,6.1978,6.1978,6.1978,6.1978,6.1978,6.1978,6.1978,6.1978,6.1978,6.1978,6.1978,6.1978,6.1978,6.1978,6.1978,6.1978,6.1978,6.1978,6.1978,6.1978,6.1978,6.1978,6.1978,6.1978,6.1978,6.1978,6.1978,6.1978,6.1978,6.1978,6.1978,6.1978,6.1978,6.1978,6.1978,6.1978,6.1978,6.1978,6.1978,6.1978,6.1978,6.1978,6.1978,6.1978,6.1978,6.1978,6.1978,6.1978,6.1978,6.1978,6.1978,6.1978,6.1978,6.1978,6.1978,6.1978,6.1978,6.1978,6.1978,6.2033,6.2195,6.2291,6.2423,6.2526,6.2578,6.2552,6.2433,6.2603,6.2705,6.2654,6.273,6.278,6.278,6.278,6.278,6.278,6.278,6.278,6.278,6.278,6.278,6.278,6.278,6.278,6.278,6.278,6.278,6.278,6.278,6.278,5.3881,5.3684,5.3518,5.3518,5.3518,5.3652,5.4322,5.561,5.7081,5.8599,5.9112,5.9543,6.0251,6.0956,6.1515,6.1923,6.1978,6.1978,6.1978,6.1978,6.1978,6.1978,6.1978,6.1978,6.1978,6.1978,6.1978,6.1978,6.1978,6.1978,6.1978,6.1978,6.1978,6.1978,6.1978,6.1978,6.1978,6.1978,6.1978,6.1978,6.1978,6.1978,6.1978,6.1978,6.1978,6.1978,6.1978,6.1978,6.1978,6.1978,6.1978,6.1978,6.1978,6.1978,6.1978,6.1978,6.1978,6.1978,6.1978,6.1978,6.1978,6.1978,6.1978,6.1978,6.1978,6.1978,6.1978,6.1978,6.1978,6.1978,6.1978,6.1978,6.1978,6.1978,6.1978,6.1978,6.1978,6.1978,6.1978,6.1978,6.1978,6.2033,6.2114,6.2301,6.2459,6.25,6.2578,6.2603,6.2552,6.2654,6.2705,6.2679,6.2755,6.278,6.278,6.278,6.278,6.278,6.278,6.278,6.278,6.278,6.278,6.278,6.278,6.278,6.278,6.278,6.278,6.278,6.278,6.278,5.3717,5.3517,5.3484,5.3551,5.3584,5.3788,5.45,5.5687,5.7013,5.8495,5.9476,6.0282,6.0897,6.1544,6.1978,6.1923,6.1923,6.1923,6.1923,6.1923,6.1923,6.1978,6.1978,6.1978,6.1978,6.1978,6.1978,6.1978,6.1978,6.1978,6.1978,6.1978,6.1978,6.1978,6.1978,6.1978,6.1978,6.1978,6.1978,6.1978,6.1978,6.1978,6.1978,6.1978,6.1978,6.1978,6.1978,6.1978,6.1978,6.1978,6.1978,6.1978,6.1978,6.1978,6.1978,6.1978,6.1978,6.1978,6.1978,6.1978,6.1978,6.1978,6.1978,6.1978,6.1978,6.1978,6.1978,6.1978,6.1978,6.1978,6.1978,6.1978,6.1978,6.1978,6.1978,6.1978,6.1978,6.1978,6.1978,6.1978,6.1978,6.1978,6.1978,6.2222,6.237,6.2397,6.2526,6.2654,6.2755,6.2679,6.2654,6.2755,6.278,6.278,6.278,6.278,6.278,6.278,6.278,6.278,6.278,6.278,6.278,6.278,6.278,6.278,6.278,6.278,6.278,6.278,6.278,6.278,5.4267,5.3882,5.3618,5.4074,5.4203,5.4409,5.5132,5.6019,5.6943,5.784,5.9478,6.0837,6.0986,6.1544,6.184,6.1315,6.1192,6.1192,6.1192,6.1192,6.1401,6.1923,6.1978,6.1978,6.1978,6.1978,6.1978,6.1978,6.1978,6.1978,6.1978,6.1978,6.1978,6.1978,6.1978,6.1978,6.1978,6.1978,6.1978,0.0,6.1978,6.1978,6.1978,6.1978,6.1978,6.1978,6.1978,6.1978,6.1978,6.1978,6.1978,6.1978,6.1978,6.1978,6.1978,6.1978,6.1978,6.1978,6.1978,6.1978,6.1978,6.1978,6.1978,6.1978,6.1978,6.1978,6.1978,6.1978,6.1978,6.1978,6.1978,6.1978,6.1978,6.1978,6.1978,6.1978,6.1978,6.1978,6.1978,6.1978,6.1978,6.1978,6.1978,6.2141,6.2291,6.2526,6.2679,6.273,6.2654,6.2705,6.273,6.2654,6.273,6.278,6.278,6.278,6.278,6.278,6.278,6.278,6.278,6.278,6.278,6.278,6.278,6.278,6.278,6.278,6.278,6.278,6.278,6.278,5.4485,5.3946,5.3651,5.4267,5.4171,5.4146,5.4812,5.6096,5.7321,5.7672,5.947,6.1016,6.1016,6.1315,6.1401,6.1045,6.0986,6.1104,6.143,6.1458,6.1608,6.195,6.1978,6.1978,6.1978,6.1978,6.1978,6.1978,6.1978,6.1978,6.1978,6.1978,6.1978,6.1978,6.1978,6.1978,6.1978,6.1978,6.1978,6.1978,6.1978,6.1978,6.1978,6.1978,6.1978,6.1978,6.1978,6.1978,6.1978,6.1978,6.1978,6.1978,6.1978,6.1978,6.1978,6.1978,6.1978,6.1978,6.1978,6.1978,6.1978,6.1978,6.1978,6.1978,6.1978,6.1978,6.1978,6.1978,6.1978,6.1978,6.1978,6.1978,6.1978,6.1978,6.1978,6.1978,6.1978,6.1978,6.1978,6.1978,6.1978,6.1978,6.1978,6.2168,6.2344,6.2578,6.2705,6.278,6.2705,6.2755,6.2755,6.2705,6.2755,6.278,6.278,6.278,6.278,6.278,6.278,6.278,6.278,6.278,6.278,6.278,6.278,6.278,6.278,6.278,6.278,6.278,6.278,6.278,5.4765,5.4203,5.3948,5.4422,5.4205,5.398,5.4454,5.6191,5.7741,5.7862,5.9645,6.1133,6.1016,6.1016,6.0986,6.0867,6.0837,6.1081,6.172,6.184,6.1868,6.1978,6.1978,6.1978,6.1978,6.1978,6.1978,6.1978,6.1978,6.1978,6.1978,6.1978,6.1978,6.1978,6.1978,6.1978,6.1978,6.1978,6.1978,6.1978,6.1978,6.1978,6.1978,6.1978,6.1978,6.1978,6.1978,6.1978,6.1978,6.1978,6.1978,6.1978,6.1978,6.1978,6.1978,6.1978,6.1978,6.1978,6.1978,6.1978,6.1978,6.1978,6.1978,6.1978,6.1978,6.1978,6.1978,6.1978,6.1978,6.1978,6.1978,6.1978,6.1978,6.1978,6.1978,6.1978,6.1978,6.1978,6.1978,6.1978,6.1978,6.2005,6.2033,6.2222,6.2397,6.2552,6.2679,6.2755,6.278,6.278,6.278,6.278,6.278,6.278,6.278,6.278,6.278,6.278,6.278,6.278,6.278,6.278,6.278,6.278,6.278,6.278,6.278,6.278,6.278,6.278,6.278,6.278,5.5426,5.5224,5.5164,5.5254,5.5224,5.5164,5.5254,5.65,5.7867,5.8459,6.0352,6.1692,6.1104,6.1016,6.0837,6.0219,6.0125,6.0344,6.1045,6.1133,6.1343,6.1923,6.1978,6.1978,6.1978,6.1978,6.1978,6.1978,6.1978,6.1978,6.1978,6.1978,6.1978,6.1978,6.1978,6.1978,6.1978,6.1978,6.1978,6.1978,6.1978,6.1978,6.1978,6.1978,6.1978,6.1978,6.1978,6.1978,6.1978,6.1978,6.1978,6.1978,6.1978,6.1978,6.1978,6.1978,6.1978,6.1978,6.1978,6.1978,6.1978,6.1978,6.1978,6.1978,6.1978,6.1978,6.1978,6.1978,6.1978,6.1978,6.1978,6.1978,6.1978,6.1978,6.1978,6.1978,6.1978,6.1978,6.1978,6.1978,6.1978,6.2033,6.2168,6.2185,6.2265,6.2397,6.2526,6.2679,6.278,6.278,6.278,6.278,6.278,6.278,6.278,6.278,6.278,6.278,6.278,6.278,6.278,6.278,6.278,6.278,6.278,6.278,6.278,6.278,6.278,6.278,6.278,6.278,5.5543,5.5129,5.5009,5.5716,5.5367,5.4948,5.5308,5.6245,5.7243,5.8001,5.9588,6.0748,6.0489,6.0437,6.0219,5.9513,5.938,5.9739,6.0867,6.1016,6.1221,6.1923,6.1978,6.1978,6.1978,6.1978,6.1978,6.1978,6.1978,6.1978,6.1978,6.1978,6.1978,6.1978,6.1978,6.1978,6.1978,6.1978,6.1978,6.1978,6.1978,6.1978,6.1978,6.1978,6.1978,6.1978,6.1978,6.1978,6.1978,6.1978,6.1978,6.1978,6.1978,6.1978,6.1978,6.1978,6.1978,6.1978,6.1978,6.1978,6.1978,6.1978,6.1978,6.1978,6.1978,6.1978,6.1978,6.1978,6.1978,6.1978,6.1978,6.1978,6.1978,6.1978,6.1978,6.1978,6.1978,6.1978,6.2005,6.2114,6.2114,6.2168,6.2265,6.2291,6.2318,6.237,6.25,6.2629,6.2679,6.2755,6.278,6.278,6.278,6.278,6.278,6.278,6.278,6.278,6.278,6.278,6.278,6.278,6.278,6.278,6.278,6.278,6.278,6.278,6.278,6.278,6.278,6.278,5.5971,5.5396,5.5094,5.6055,5.5601,5.4978,5.5308,5.5964,5.6731,5.7504,5.8708,5.9698,5.9953,5.9998,5.9838,5.9281,5.9011,5.9379,6.0802,6.1016,6.1257,6.1923,6.1978,6.1978,6.1978,6.1978,6.1978,6.1978,6.1978,6.1978,6.1978,6.1978,6.1978,6.1978,6.1978,6.1978,6.1978,6.1978,6.1978,6.1978,6.1978,6.1978,6.1978,6.1978,6.1978,6.1978,6.1978,6.1978,6.1978,6.1978,6.1978,6.1978,6.1978,6.1978,6.1978,6.1978,6.1978,6.1978,6.1978,6.1978,6.1978,6.1978,6.1978,6.1978,6.1978,6.1978,6.1978,6.1978,6.1978,6.1978,6.1978,6.1978,6.1978,6.1978,6.1978,6.1978,6.1978,6.1978,6.2033,6.2222,6.2212,6.2238,6.2423,6.2397,6.2397,6.2423,6.25,6.2578,6.2654,6.2705,6.2755,6.278,6.278,6.278,6.278,6.278,6.278,6.278,6.278,6.278,6.278,6.278,6.278,6.278,6.278,6.278,6.278,6.278,6.278,6.278,6.278,6.278,5.7112,5.6661,5.6229,5.6284,5.6257,5.6063,5.5549,5.5964,5.6736,5.7509,5.8343,5.9081,5.9858,5.9998,5.9966,5.9934,5.938,5.9379,6.0802,6.0986,6.1257,6.1923,6.1978,6.1978,6.1978,6.1978,6.1978,6.1978,6.1978,6.1978,6.1978,6.1978,6.1978,6.1978,6.1978,6.1978,6.1978,6.1978,6.1978,6.1978,6.1978,6.1978,6.1978,6.1978,6.1978,6.1978,6.1978,6.1978,6.1978,6.1978,6.1978,6.1978,6.1978,6.1978,6.1978,6.1978,6.1978,6.1978,6.1978,6.1978,6.1978,6.1978,6.1978,6.1978,6.1978,6.1978,6.1978,6.1978,6.1978,6.1978,6.1978,6.1978,6.1978,6.1978,6.1978,6.1978,6.1978,6.1978,6.206,6.2354,6.2265,6.2265,6.2552,6.2475,6.2423,6.2578,6.2475,6.2475,6.2755,6.2679,6.2654,6.278,6.278,6.278,6.278,6.278,6.278,6.278,6.278,6.278,6.278,6.278,6.278,6.278,6.278,6.278,6.278,6.278,6.278,6.278,6.278,6.278,5.7188,5.674,5.6393,5.6767,5.6582,5.6257,5.6035,5.6191,5.6609,5.753,5.7926,5.8611,6.0347,6.0282,5.9838,5.938,5.8703,5.8598,5.9511,6.0062,6.0626,6.1286,6.172,6.1978,6.1978,6.1978,6.1978,6.1978,6.1978,6.1978,6.1978,6.1978,6.1978,6.1978,6.1978,6.1978,6.1978,6.1978,6.1978,6.1978,6.1978,6.1978,6.1978,6.1978,6.1978,6.1978,6.1978,6.1978,6.1978,6.1978,6.1978,6.1978,6.1978,6.1978,6.1978,6.1978,6.1978,6.1978,6.1978,6.1978,6.1978,6.1978,6.1978,6.1978,6.1978,6.1978,6.1978,6.1978,6.1978,6.1978,6.1978,6.1978,6.1978,6.1978,6.1978,6.1978,6.1978,6.1978,6.206,6.2248,6.2291,6.237,6.2578,6.2552,6.2552,6.2603,6.2552,6.2552,6.2654,6.2705,6.2755,6.278,6.278,6.278,6.278,6.278,6.278,6.278,6.278,6.278,6.278,6.278,6.278,6.278,6.278,6.278,6.278,6.278,6.278,6.278,6.278,6.278,5.7188,5.6933,5.6635,5.6855,5.674,5.6555,5.6339,5.6311,5.653,5.7406,5.7661,5.8285,6.0226,6.026,5.9838,5.938,5.8493,5.8137,5.8806,5.9546,6.0251,6.0927,6.1608,6.1978,6.1978,6.1978,6.1978,6.1978,6.1978,0.0,6.1978,6.1978,6.1978,6.1978,6.1978,6.1978,6.1978,6.1978,6.1978,6.1978,6.1978,6.1978,6.1978,6.1978,6.1978,6.1978,6.1978,6.1978,6.1978,6.1978,6.1978,6.1978,6.1978,6.1978,6.1978,6.1978,6.1978,6.1978,6.1978,6.1978,6.1978,6.1978,6.1978,6.1978,6.1978,6.1978,6.1978,6.1978,6.1978,6.1978,6.1978,6.1978,6.1978,6.1978,6.1978,6.1978,6.1978,6.1978,6.2033,6.2158,6.2265,6.2407,6.25,6.2578,6.2603,6.2603,6.2603,6.2629,6.2654,6.2705,6.2755,6.278,6.278,6.278,6.278,6.278,6.278,6.278,6.278,6.278,6.278,6.278,6.278,6.278,6.278,6.278,6.278,6.278,6.278,6.278,6.278,6.278,0.0,0.0,0.0,5.6474,5.6767,5.7061,5.6447,5.6339,5.6525,5.7255,5.7571,5.8144,5.952,5.9911,5.9998,5.9998,5.8841,5.8137,5.8772,5.9513,6.0219,6.0897,6.1579,6.1978,6.1978,6.1978,6.1978,6.1978,6.1978,6.1978,6.1978,6.1978,6.1978,6.1978,6.1978,6.1978,6.1978,6.1978,6.1978,6.1978,6.1978,6.1978,6.1978,6.1978,6.1978,6.1978,6.1978,6.1978,6.1978,6.1978,6.1978,6.1978,6.1978,6.1978,6.1978,6.1978,6.1978,6.1978,6.1978,6.1978,6.1978,6.1978,6.1978,6.1978,6.1978,6.1978,6.1978,6.1978,6.1978,6.1978,6.1978,6.1978,6.1978,6.1978,6.1978,6.1978,6.1978,6.1978,6.2033,6.2195,6.2185,6.2212,6.2344,6.25,6.2603,6.2603,6.2603,6.2654,6.278,6.2679,6.2654,6.278,6.278,6.278,6.278,6.278,6.278,6.278,6.278,6.278,6.278,6.278,6.278,6.278,6.278,6.278,6.278,6.278,6.278,6.278,6.278,6.278,5.7188,0.0,0.0,0.0,0.0,0.0,5.6984,5.6959,5.7045,5.7338,5.7925,5.8503,5.8981,5.9601,5.9998,5.9998,5.9247,5.8528,5.8244,5.8772,5.9445,6.0188,6.0867,6.1458,6.195,6.1978,6.1978,0.0,6.1978,6.1978,6.1978,6.1978,6.1978,6.1978,6.1978,6.1978,6.1978,6.1978,6.1978,6.1978,6.1978,6.1978,6.1978,6.1978,6.1978,6.1978,6.1978,6.1978,6.1978,6.1978,6.1978,6.1978,6.1978,6.1978,6.1978,6.1978,6.1978,6.1978,6.1978,6.1978,6.1978,6.1978,6.1978,6.1978,6.1978,6.1978,6.1978,6.1978,6.1978,6.1978,6.1978,6.1978,6.1978,6.1978,6.1978,6.1978,6.1978,6.1978,6.2005,6.2033,6.2141,6.2185,6.2238,6.2449,6.2603,6.2603,6.2679,6.2755,6.278,6.2755,6.2755,6.278,6.278,6.278,6.278,6.278,6.278,6.278,6.278,6.278,6.278,6.278,6.278,6.278,6.278,6.278,6.278,6.278,6.278,6.278,6.278,6.278,0.0,0.0,5.7188,5.7188,0.0,0.0,5.7188,5.7188,5.7195,5.7289,5.8021,5.8716,5.9064,5.985,6.0406,6.0406,6.0027,5.9543,5.8875,5.9113,5.9546,5.9934,6.059,6.1133,6.1515,6.184,6.1978,6.1978,6.1978,6.1978,6.1978,6.1978,6.1978,6.1978,6.1978,6.1978,6.1978,6.1978,6.1978,6.1978,6.1978,6.1978,6.1978,6.1978,6.1978,6.1978,6.1978,6.1978,6.1978,6.1978,6.1978,6.1978,6.1978,6.1978,6.1978,6.1978,6.1978,6.1978,6.1978,6.1978,6.1978,6.1978,6.1978,6.1978,6.1978,6.1978,6.1978,6.1978,6.1978,6.1978,6.1978,6.1978,6.1978,6.1978,6.1978,6.1978,6.1978,6.1978,6.1978,6.1978,6.206,6.2114,6.2114,6.2318,6.25,6.25,6.2679,6.278,6.278,6.278,6.278,6.278,6.278,6.278,6.278,6.278,6.278,6.278,6.278,6.278,6.278,6.278,6.278,6.278,6.278,6.278,6.278,6.278,6.278,6.278,6.278,6.278,0.0,0.0,0.0,0.0,5.7188,0.0,5.7188,5.7188,5.7188,5.7188,5.7927,5.8721,5.9249,6.0164,6.0825,6.0766,6.0896,6.076,6.0093,5.9998,6.003,6.0093,6.062,6.1016,6.1016,6.1608,6.195,6.1895,6.195,6.1978,6.1978,6.1978,6.1978,6.1978,6.1978,6.1978,6.1978,6.1978,6.1978,6.1978,6.1978,6.1978,6.1978,6.1978,6.1978,6.1978,6.1978,6.1978,6.1978,6.1978,6.1978,6.1978,6.1978,6.1978,6.1978,6.1978,6.1978,6.1978,6.1978,6.1978,6.1978,6.1978,6.1978,6.1978,6.1978,6.1978,6.1978,6.1978,6.1978,6.1978,6.1978,6.1978,6.1978,6.1978,6.1978,6.1978,6.1978,6.1978,6.1978,6.1978,6.1978,6.1978,6.1978,6.2222,6.237,6.2407,6.2603,6.278,6.278,6.278,6.278,6.278,6.278,6.278,6.278,6.278,6.278,6.278,6.278,6.278,6.278,6.278,6.278,6.278,6.278,6.278,6.278,6.278,6.278,6.278,6.278,6.278,0.0,0.0,0.0,0.0,5.7188,0.0,5.7188,5.7188,5.7188,5.7188,5.7846,5.8312,5.7898,5.8934,5.9727,5.9152,6.0065,6.0654,6.0086,5.9998,6.0188,6.0741,6.0927,6.1016,6.1016,6.1608,6.1776,6.1257,6.1692,6.1978,6.1978,6.1978,6.1978,6.1978,6.1978,6.1978,6.1978,6.1978,6.1978,6.1978,6.1978,6.1978,6.1978,6.1978,6.1978,6.1978,6.1978,6.1978,6.1978,6.1978,6.1978,6.1978,6.1978,6.1978,6.1978,6.1978,6.1978,6.1978,6.1978,6.1978,6.1978,6.1978,6.1978,6.1978,6.1978,6.1978,6.1978,6.1978,6.1978,6.1978,6.1978,6.1978,6.1978,6.1978,6.1978,6.1978,6.1978,6.1978,6.1978,6.1978,6.1978,6.1978,6.1978,6.2141,6.2301,6.237,6.2526,6.2679,6.278,6.278,6.278,6.278,6.278,6.278,6.278,6.278,6.278,6.278,6.278,6.278,6.278,6.278,6.278,6.278,6.278,6.278,6.278,6.278,6.278,6.278,6.278,6.278,0.0,0.0,0.0,5.7188,0.0,0.0,0.0,5.7188,5.7188,5.7188,5.784,5.828,5.7954,5.8825,5.9473,5.9141,6.0052,6.0557,5.9895,6.0219,6.062,6.0986,6.1016,6.1016,6.1016,6.1608,6.1868,6.1515,6.184,6.1978,6.1978,6.1978,6.1978,6.1978,6.1978,6.1978,6.1978,6.1978,6.1978,6.1978,6.1978,6.1978,6.1978,6.1978,6.1978,6.1978,6.1978,6.1978,6.1978,6.1978,6.1978,6.1978,6.1978,6.1978,6.1978,6.1978,6.1978,6.1978,6.1978,6.1978,6.1978,6.1978,6.1978,6.1978,6.1978,6.1978,6.1978,6.1978,6.1978,6.1978,6.1978,6.1978,6.1978,6.1978,6.1978,6.1978,6.1978,6.1978,6.1978,6.1978,6.1978,6.1978,6.1978,6.2114,6.2275,6.2407,6.25,6.2654,6.278,6.278,6.278,6.278,6.278,6.278,6.278,6.278,6.278,6.278,6.278,6.278,6.278,6.278,6.278,6.278,6.278,6.278,6.278,6.278,6.278,6.278,6.278,6.278,0.0,0.0,0.0,0.0,0.0,5.7188,0.0,0.0,0.0,5.7188,5.7732,5.8166,5.8166,5.8709,5.9035,5.8746,5.9615,6.0013,5.9035,5.9968,6.0798,6.0941,6.112,6.1133,6.1016,6.1487,6.1868,6.1978,6.1978,6.1978,6.1978,6.1978,6.1978,6.1978,6.1978,6.1978,6.1978,6.1978,6.1978,6.1978,6.1978,6.1978,6.1978,6.1978,6.1978,6.1978,6.1978,6.1978,6.1978,6.1978,6.1978,6.1978,6.1978,6.1978,6.1978,6.1978,6.1978,6.1978,6.1978,6.1978,6.1978,6.1978,6.1978,6.1978,6.1978,6.1978,6.1978,6.1978,6.1978,6.1978,6.1978,6.1978,6.1978,6.1978,6.1978,6.1978,6.1978,6.1978,6.1978,6.1978,6.1978,6.1978,6.1978,6.2087,6.2222,6.2407,6.2475,6.2629,6.278,6.278,6.278,6.278,6.278,6.278,6.278,6.278,6.278,6.278,6.278,6.278,6.278,6.278,6.278,6.278,6.278,6.278,6.278,6.278,6.278,6.278,6.278,6.278,0.0,0.0,0.0,0.0,5.7188,0.0,0.0,0.0,5.7188,5.7188,0.0,5.7333,5.7333,0.0,0.0,5.5667,5.7261,5.813,5.6609,5.8332,6.0015,6.0738,6.1462,6.1664,6.1075,6.1075,6.1372,6.195,6.1978,6.1978,6.1978,6.1978,6.1978,6.1978,6.1978,6.1978,6.1978,6.1978,6.1978,6.1978,6.1978,6.1978,6.1978,6.1978,6.1978,6.1978,6.1978,6.1978,6.1978,6.1978,6.1978,6.1978,6.1978,6.1978,6.1978,6.1978,6.1978,6.1978,6.1978,6.1978,6.1978,6.1978,6.1978,6.1978,6.1978,6.1978,6.1978,6.1978,6.1978,6.1978,6.1978,6.1978,6.1978,6.1978,6.1978,6.1978,6.1978,6.1978,6.1978,6.1978,6.1978,6.1978,6.1978,6.2005,6.2114,6.2344,6.2397,6.25,6.2755,6.278,6.278,6.278,6.278,6.278,6.278,6.278,6.278,6.278,6.278,6.278,6.278,6.278,6.278,6.278,6.278,6.278,6.278,6.278,6.278,6.278,6.278,6.278,0.0,0.0,0.0,0.0,0.0,0.0,5.7188,0.0,5.7188,0.0,0.0,0.0,0.0,0.0,0.0,0.0,5.7442,5.7985,5.6862,5.8383,5.9905,6.0701,0.0,0.0,6.1536,6.1608,6.1692,6.1978,6.1978,6.1978,6.1978,6.1978,6.1978,6.1978,6.1978,6.1978,6.1978,6.1978,6.1978,6.1978,6.1978,6.1978,6.1978,6.1978,6.1978,6.1978,6.1978,6.1978,6.1978,6.1978,6.1978,6.1978,6.1978,6.1978,6.1978,6.1978,6.1978,6.1978,6.1978,6.1978,6.1978,6.1978,6.1978,6.1978,6.1978,6.1978,6.1978,6.1978,6.1978,6.1978,6.1978,6.1978,6.1978,6.1978,6.1978,6.1978,6.1978,6.1978,6.1978,6.1978,6.1978,6.1978,6.1978,6.1978,6.206,6.2275,6.2265,6.237,6.2654,6.2679,6.2705,6.278,6.278,6.278,6.278,6.278,6.278,6.278,6.278,6.278,6.278,6.278,6.278,6.278,6.278,6.278,6.278,6.278,6.278,6.278,6.278,6.278,5.7732,0.0,0.0,0.0,0.0,0.0,0.0,0.0,0.0,0.0,0.0,0.0,0.0,0.0,0.0,0.0,0.0,5.7732,5.6717,5.7949,5.9253,6.005,0.0,0.0,0.0,6.1978,6.1978,6.1978,6.1978,6.1978,6.1978,6.1978,6.1978,6.1978,6.1978,6.1978,6.1978,6.1978,6.1978,6.1978,6.1978,6.1978,6.1978,6.1978,6.1978,6.1978,6.1978,6.1978,6.1978,6.1978,6.1978,6.1978,6.1978,6.1978,6.1978,6.1978,6.1978,6.1978,6.1978,6.1978,6.1978,6.1978,6.1978,6.1978,6.1978,6.1978,6.1978,6.1978,6.1978,6.1978,6.1978,6.1978,6.1978,6.1978,6.1978,6.1978,6.1978,6.1978,6.1978,6.1978,6.1978,6.1978,6.1978,6.1978,6.2033,6.2158,6.2185,6.2265,6.25,6.2578,6.2629,6.273,6.278,6.278,6.278,6.278,6.278,6.278,6.278,6.278,6.278,6.278,6.278,6.278,6.278,6.278,6.278,6.278,6.278,6.278,6.278,6.278,0.0,0.0,0.0,5.7369,0.0,0.0,0.0,0.0,5.7188,0.0,0.0,0.0,0.0,0.0,0.0,0.0,0.0,0.0,0.0,5.6319,5.7587,5.8383,5.9868,0.0,0.0,6.1978,6.1978,0.0,6.1978,6.1978,6.1978,6.1978,6.1978,6.1978,6.1978,6.1978,6.1978,6.1978,6.1978,6.1978,6.1978,6.1978,6.1978,6.1978,6.1978,6.1978,6.1978,6.1978,6.1978,6.1978,6.1978,6.1978,6.1978,6.1978,6.1978,6.1978,6.1978,6.1978,6.1978,6.1978,6.1978,6.1978,6.1978,6.1978,6.1978,6.1978,6.1978,6.1978,6.1978,6.1978,6.1978,6.1978,6.1978,6.1978,6.1978,6.1978,6.1978,6.1978,6.1978,6.1978,6.1978,6.1978,6.1978,6.1978,6.2033,6.2158,6.2185,6.2238,6.2407,6.2526,6.2603,6.2603,6.273,6.278,6.278,6.278,6.278,6.278,6.278,6.278,6.278,6.278,6.278,6.278,6.278,6.278,6.278,6.278,6.278,6.278,6.278,6.278,0.0,0.0,5.9144,5.8854,0.0,0.0,0.0,0.0,0.0,0.0,0.0,0.0,0.0,0.0,0.0,0.0,0.0,0.0,0.0,0.0,5.7695,5.9035,6.0158,6.1136,6.1906,0.0,0.0,0.0,6.1978,0.0,6.1978,6.1978,6.1978,6.1978,6.1978,6.1978,6.1978,6.1978,6.1978,6.1978,6.1978,6.1978,6.1978,6.1978,6.1978,6.1978,6.1978,6.1978,6.1978,6.1978,6.1978,6.1978,6.1978,6.1978,6.1978,6.1978,6.1978,6.1978,6.1978,6.1978,6.1978,6.1978,6.1978,6.1978,6.1978,6.1978,6.1978,6.1978,6.1978,6.1978,6.1978,6.1978,6.1978,6.1978,6.1978,6.1978,6.1978,6.1978,6.1978,6.1978,6.1978,6.1978,6.1978,6.1978,6.2005,6.206,6.2168,6.2212,6.2238,6.2291,6.2397,6.2578,6.2654,6.2705,6.278,6.278,6.278,6.278,6.278,6.278,6.278,6.278,6.278,6.278,6.278,6.278,6.278,6.278,6.2978,6.3238,6.3238,6.3086,6.0267,6.005,0.0,5.9687,5.9216,0.0,5.8818,0.0,5.8058,0.0,0.0,0.0,0.0,0.0,0.0,0.0,0.0,0.0,0.0,5.7876,5.8528,5.9868,6.0231,6.081,6.1869,6.1978,6.1978,6.1978,6.1978,6.1978,0.0,6.1978,6.1978,6.1978,6.1978,6.1978,6.1978,6.1978,6.1978,6.1978,6.1978,6.1978,6.1978,6.1978,6.1978,6.1978,6.1978,6.1978,6.1978,6.1978,6.1978,6.1978,6.1978,6.1978,6.1978,6.1978,6.1978,6.1978,6.1978,6.1978,6.1978,6.1978,6.1978,6.1978,6.1978,6.1978,6.1978,6.1978,6.1978,6.1978,6.1978,6.1978,6.1978,6.1978,6.1978,6.1978,6.1978,6.1978,6.1978,6.1978,6.1978,6.1978,6.1978,6.2033,6.206,6.2005,6.2087,6.2141,6.2141,6.2195,6.2265,6.2449,6.2552,6.2654,6.278,6.278,6.278,6.278,6.278,6.278,6.278,6.278,6.278,6.278,6.278,6.278,6.278,6.278,6.3038,6.349,6.349,6.3422]}]]